Wetterdaten: Samstag, 24.08.2024
Datum Zeit Temp. I. Temp. A. Feuchte I. Feuchte A. Luftdruck Regen Wind Richtung Richtung Sonnenschein Solar Taupunkt Windchill Windböen
24.08.2024 00:01 23,0 °C 21,7 °C 55 % 59 % 1012,7 hPa 0,0 l/m² 2,2 km/h (1 Bft) NW 323 ° 0 min 0 W/m² 13,3 °C 21,7 °C 6,4 km/h (2 Bft)
24.08.2024 00:02 23,0 °C 21,7 °C 55 % 59 % 1012,7 hPa 0,0 l/m² 2,5 km/h (1 Bft) NW 305 ° 0 min 0 W/m² 13,3 °C 21,7 °C 4,8 km/h (1 Bft)
24.08.2024 00:04 23,0 °C 21,7 °C 55 % 60 % 1012,7 hPa 0,0 l/m² 1,0 km/h (0 Bft) W-NW 286 ° 0 min 0 W/m² 13,6 °C 21,7 °C 3,2 km/h (1 Bft)
24.08.2024 00:06 23,0 °C 21,5 °C 55 % 60 % 1012,7 hPa 0,0 l/m² 0,6 km/h (0 Bft) W-NW 286 ° 0 min 0 W/m² 13,4 °C 21,5 °C 1,6 km/h (1 Bft)
24.08.2024 00:08 23,0 °C 21,4 °C 55 % 61 % 1012,7 hPa 0,0 l/m² 0,4 km/h (0 Bft) W-NW 286 ° 0 min 0 W/m² 13,6 °C 21,4 °C 1,6 km/h (1 Bft)
24.08.2024 00:10 23,0 °C 21,3 °C 55 % 61 % 1012,8 hPa 0,0 l/m² 0,4 km/h (0 Bft) W-NW 286 ° 0 min 0 W/m² 13,5 °C 21,3 °C 1,6 km/h (1 Bft)
24.08.2024 00:11 23,0 °C 21,2 °C 55 % 62 % 1012,7 hPa 0,0 l/m² 2,2 km/h (1 Bft) W-NW 294 ° 0 min 0 W/m² 13,6 °C 21,2 °C 3,2 km/h (1 Bft)
24.08.2024 00:12 23,0 °C 21,0 °C 55 % 62 % 1012,7 hPa 0,0 l/m² 1,5 km/h (1 Bft) W-NW 294 ° 0 min 0 W/m² 13,4 °C 21,0 °C 3,2 km/h (1 Bft)
24.08.2024 00:13 23,0 °C 20,9 °C 55 % 63 % 1012,7 hPa 0,0 l/m² 2,1 km/h (1 Bft) W-NW 294 ° 0 min 0 W/m² 13,6 °C 20,9 °C 3,2 km/h (1 Bft)
24.08.2024 00:15 23,0 °C 20,7 °C 55 % 64 % 1012,7 hPa 0,0 l/m² 2,5 km/h (1 Bft) SW 231 ° 0 min 0 W/m² 13,6 °C 20,7 °C 4,8 km/h (1 Bft)
24.08.2024 00:17 23,0 °C 20,3 °C 55 % 66 % 1012,7 hPa 0,0 l/m² 4,2 km/h (1 Bft) S-SW 200 ° 0 min 0 W/m² 13,7 °C 20,3 °C 6,4 km/h (2 Bft)
24.08.2024 00:19 23,0 °C 20,1 °C 55 % 66 % 1012,7 hPa 0,0 l/m² 3,3 km/h (1 Bft) S-SW 200 ° 0 min 0 W/m² 13,5 °C 20,1 °C 4,8 km/h (1 Bft)
24.08.2024 00:20 23,0 °C 20,0 °C 55 % 66 % 1012,7 hPa 0,0 l/m² 1,7 km/h (1 Bft) S-SW 200 ° 0 min 0 W/m² 13,4 °C 20,0 °C 3,2 km/h (1 Bft)
24.08.2024 00:22 23,0 °C 19,9 °C 55 % 67 % 1012,7 hPa 0,0 l/m² 0,1 km/h (0 Bft) S-SW 200 ° 0 min 0 W/m² 13,6 °C 19,9 °C 1,6 km/h (1 Bft)
24.08.2024 00:23 23,0 °C 19,8 °C 55 % 67 % 1012,7 hPa 0,0 l/m² 3,5 km/h (1 Bft) S-SW 205 ° 0 min 0 W/m² 13,5 °C 19,8 °C 6,4 km/h (2 Bft)
24.08.2024 00:25 23,0 °C 19,8 °C 55 % 67 % 1012,7 hPa 0,0 l/m² 4,1 km/h (1 Bft) S-SW 208 ° 0 min 0 W/m² 13,5 °C 19,8 °C 6,4 km/h (2 Bft)
24.08.2024 00:27 22,9 °C 19,9 °C 55 % 67 % 1012,8 hPa 0,0 l/m² 0,8 km/h (0 Bft) S-SW 208 ° 0 min 0 W/m² 13,6 °C 19,9 °C 3,2 km/h (1 Bft)
24.08.2024 00:29 23,0 °C 19,9 °C 55 % 67 % 1012,8 hPa 0,0 l/m² 2,6 km/h (1 Bft) SW 225 ° 0 min 0 W/m² 13,6 °C 19,9 °C 4,8 km/h (1 Bft)
24.08.2024 00:30 22,9 °C 19,9 °C 55 % 67 % 1012,8 hPa 0,0 l/m² 5,0 km/h (1 Bft) W-SW 246 ° 0 min 0 W/m² 13,6 °C 19,9 °C 6,4 km/h (2 Bft)
24.08.2024 00:32 23,0 °C 19,9 °C 55 % 67 % 1012,9 hPa 0,0 l/m² 2,9 km/h (1 Bft) W-SW 246 ° 0 min 0 W/m² 13,6 °C 19,9 °C 4,8 km/h (1 Bft)
24.08.2024 00:33 22,9 °C 19,9 °C 55 % 67 % 1012,9 hPa 0,0 l/m² 2,5 km/h (1 Bft) W-SW 246 ° 0 min 0 W/m² 13,6 °C 19,9 °C 4,8 km/h (1 Bft)
24.08.2024 00:35 22,9 °C 19,8 °C 55 % 67 % 1013,0 hPa 0,0 l/m² 1,4 km/h (1 Bft) W-SW 246 ° 0 min 0 W/m² 13,5 °C 19,8 °C 3,2 km/h (1 Bft)
24.08.2024 00:37 22,9 °C 19,8 °C 55 % 67 % 1012,9 hPa 0,0 l/m² 2,2 km/h (1 Bft) W-SW 246 ° 0 min 0 W/m² 13,5 °C 19,8 °C 4,8 km/h (1 Bft)
24.08.2024 00:39 23,0 °C 19,8 °C 55 % 68 % 1012,9 hPa 0,0 l/m² 4,0 km/h (1 Bft) W-SW 256 ° 0 min 0 W/m² 13,7 °C 19,8 °C 6,4 km/h (2 Bft)
24.08.2024 00:41 22,9 °C 19,8 °C 55 % 68 % 1012,8 hPa 0,0 l/m² 3,3 km/h (1 Bft) W 264 ° 0 min 0 W/m² 13,7 °C 19,8 °C 6,4 km/h (2 Bft)
24.08.2024 00:42 23,0 °C 19,7 °C 55 % 68 % 1012,9 hPa 0,0 l/m² 2,7 km/h (1 Bft) W 264 ° 0 min 0 W/m² 13,6 °C 19,7 °C 4,8 km/h (1 Bft)
24.08.2024 00:43 23,0 °C 19,7 °C 55 % 69 % 1012,9 hPa 0,0 l/m² 1,9 km/h (1 Bft) W 264 ° 0 min 0 W/m² 13,8 °C 19,7 °C 3,2 km/h (1 Bft)
24.08.2024 00:46 22,9 °C 19,6 °C 55 % 70 % 1012,9 hPa 0,0 l/m² 0,7 km/h (0 Bft) W 264 ° 0 min 0 W/m² 14,0 °C 19,6 °C 3,2 km/h (1 Bft)
24.08.2024 00:47 22,9 °C 19,5 °C 55 % 69 % 1012,9 hPa 0,0 l/m² 2,2 km/h (1 Bft) W 264 ° 0 min 0 W/m² 13,7 °C 19,5 °C 3,2 km/h (1 Bft)
24.08.2024 00:48 23,0 °C 19,3 °C 55 % 69 % 1012,9 hPa 0,0 l/m² 2,1 km/h (1 Bft) W 264 ° 0 min 0 W/m² 13,5 °C 19,3 °C 3,2 km/h (1 Bft)
24.08.2024 00:49 22,9 °C 19,2 °C 55 % 69 % 1012,9 hPa 0,0 l/m² 1,0 km/h (0 Bft) W 264 ° 0 min 0 W/m² 13,4 °C 19,2 °C 3,2 km/h (1 Bft)
24.08.2024 00:50 22,9 °C 19,1 °C 55 % 70 % 1013,0 hPa 0,0 l/m² 0,0 km/h (0 Bft) W 264 ° 0 min 0 W/m² 13,5 °C 19,1 °C 0,0 km/h (0 Bft)
24.08.2024 00:51 22,9 °C 19,1 °C 55 % 71 % 1012,9 hPa 0,0 l/m² 0,0 km/h (0 Bft) W 264 ° 0 min 0 W/m² 13,7 °C 19,1 °C 0,0 km/h (0 Bft)
24.08.2024 00:53 22,9 °C 19,1 °C 55 % 73 % 1012,9 hPa 0,0 l/m² 0,0 km/h (0 Bft) W 264 ° 0 min 0 W/m² 14,1 °C 19,1 °C 0,0 km/h (0 Bft)
24.08.2024 00:54 22,9 °C 19,1 °C 55 % 73 % 1012,9 hPa 0,0 l/m² 0,0 km/h (0 Bft) W 264 ° 0 min 0 W/m² 14,1 °C 19,1 °C 0,0 km/h (0 Bft)
24.08.2024 00:55 22,9 °C 19,1 °C 55 % 72 % 1013,0 hPa 0,0 l/m² 0,0 km/h (0 Bft) W 264 ° 0 min 0 W/m² 13,9 °C 19,1 °C 0,0 km/h (0 Bft)
24.08.2024 00:56 22,9 °C 18,9 °C 55 % 72 % 1013,0 hPa 0,0 l/m² 0,0 km/h (0 Bft) W 264 ° 0 min 0 W/m² 13,7 °C 18,9 °C 0,0 km/h (0 Bft)
24.08.2024 00:57 22,9 °C 18,9 °C 55 % 72 % 1013,1 hPa 0,0 l/m² 1,4 km/h (1 Bft) W 264 ° 0 min 0 W/m² 13,7 °C 18,9 °C 3,2 km/h (1 Bft)
24.08.2024 00:58 22,9 °C 18,8 °C 55 % 72 % 1013,0 hPa 0,0 l/m² 3,1 km/h (1 Bft) W 264 ° 0 min 0 W/m² 13,6 °C 18,8 °C 4,8 km/h (1 Bft)
24.08.2024 00:59 22,9 °C 18,8 °C 55 % 73 % 1013,1 hPa 0,0 l/m² 2,6 km/h (1 Bft) W 264 ° 0 min 0 W/m² 13,9 °C 18,8 °C 3,2 km/h (1 Bft)
24.08.2024 01:00 22,9 °C 18,7 °C 55 % 73 % 1013,0 hPa 0,0 l/m² 1,6 km/h (1 Bft) W 264 ° 0 min 0 W/m² 13,8 °C 18,7 °C 3,2 km/h (1 Bft)
24.08.2024 01:02 22,9 °C 18,7 °C 55 % 74 % 1013,0 hPa 0,0 l/m² 1,6 km/h (1 Bft) W 264 ° 0 min 0 W/m² 14,0 °C 18,7 °C 3,2 km/h (1 Bft)
24.08.2024 01:03 22,9 °C 18,7 °C 55 % 74 % 1013,0 hPa 0,0 l/m² 2,6 km/h (1 Bft) W 264 ° 0 min 0 W/m² 14,0 °C 18,7 °C 3,2 km/h (1 Bft)
24.08.2024 01:04 22,9 °C 18,7 °C 55 % 74 % 1012,9 hPa 0,0 l/m² 1,9 km/h (1 Bft) W 264 ° 0 min 0 W/m² 14,0 °C 18,7 °C 3,2 km/h (1 Bft)
24.08.2024 01:05 22,9 °C 18,7 °C 55 % 74 % 1013,0 hPa 0,0 l/m² 0,0 km/h (0 Bft) W 264 ° 0 min 0 W/m² 14,0 °C 18,7 °C 0,0 km/h (0 Bft)
24.08.2024 01:06 22,9 °C 18,7 °C 55 % 74 % 1013,0 hPa 0,0 l/m² 0,0 km/h (0 Bft) W 264 ° 0 min 0 W/m² 14,0 °C 18,7 °C 0,0 km/h (0 Bft)
24.08.2024 01:07 22,9 °C 18,6 °C 55 % 74 % 1013,0 hPa 0,0 l/m² 0,8 km/h (0 Bft) W 264 ° 0 min 0 W/m² 13,9 °C 18,6 °C 1,6 km/h (1 Bft)
24.08.2024 01:08 22,9 °C 18,4 °C 55 % 73 % 1013,0 hPa 0,0 l/m² 1,7 km/h (1 Bft) W 264 ° 0 min 0 W/m² 13,5 °C 18,4 °C 3,2 km/h (1 Bft)
24.08.2024 01:09 22,9 °C 18,3 °C 55 % 74 % 1013,1 hPa 0,0 l/m² 0,2 km/h (0 Bft) W 264 ° 0 min 0 W/m² 13,6 °C 18,3 °C 1,6 km/h (1 Bft)
24.08.2024 01:10 22,9 °C 18,1 °C 55 % 75 % 1013,1 hPa 0,0 l/m² 0,0 km/h (0 Bft) W 264 ° 0 min 0 W/m² 13,6 °C 18,1 °C 0,0 km/h (0 Bft)
24.08.2024 01:11 22,9 °C 18,1 °C 55 % 75 % 1013,1 hPa 0,0 l/m² 0,0 km/h (0 Bft) W 264 ° 0 min 0 W/m² 13,6 °C 18,1 °C 0,0 km/h (0 Bft)
24.08.2024 01:13 22,9 °C 18,0 °C 55 % 76 % 1013,0 hPa 0,0 l/m² 0,0 km/h (0 Bft) W 264 ° 0 min 0 W/m² 13,7 °C 18,0 °C 0,0 km/h (0 Bft)
24.08.2024 01:14 22,9 °C 18,0 °C 55 % 77 % 1013,1 hPa 0,0 l/m² 0,0 km/h (0 Bft) W 264 ° 0 min 0 W/m² 13,9 °C 18,0 °C 0,0 km/h (0 Bft)
24.08.2024 01:15 22,9 °C 18,0 °C 55 % 77 % 1013,1 hPa 0,0 l/m² 0,0 km/h (0 Bft) W 264 ° 0 min 0 W/m² 13,9 °C 18,0 °C 0,0 km/h (0 Bft)
24.08.2024 01:16 22,9 °C 18,0 °C 55 % 77 % 1013,0 hPa 0,0 l/m² 1,2 km/h (1 Bft) W 264 ° 0 min 0 W/m² 13,9 °C 18,0 °C 3,2 km/h (1 Bft)
24.08.2024 01:17 22,9 °C 18,1 °C 55 % 77 % 1013,0 hPa 0,0 l/m² 2,0 km/h (1 Bft) W 264 ° 0 min 0 W/m² 14,0 °C 18,1 °C 3,2 km/h (1 Bft)
24.08.2024 01:18 22,9 °C 18,1 °C 55 % 77 % 1013,0 hPa 0,0 l/m² 1,9 km/h (1 Bft) W 264 ° 0 min 0 W/m² 14,0 °C 18,1 °C 3,2 km/h (1 Bft)
24.08.2024 01:19 22,9 °C 18,1 °C 55 % 77 % 1013,0 hPa 0,0 l/m² 0,7 km/h (0 Bft) W 264 ° 0 min 0 W/m² 14,0 °C 18,1 °C 1,6 km/h (1 Bft)
24.08.2024 01:20 22,9 °C 18,0 °C 55 % 77 % 1013,1 hPa 0,0 l/m² 0,1 km/h (0 Bft) W 264 ° 0 min 0 W/m² 13,9 °C 18,0 °C 1,6 km/h (1 Bft)
24.08.2024 01:22 22,9 °C 18,0 °C 55 % 77 % 1013,0 hPa 0,0 l/m² 0,0 km/h (0 Bft) W 264 ° 0 min 0 W/m² 13,9 °C 18,0 °C 0,0 km/h (0 Bft)
24.08.2024 01:23 22,9 °C 17,9 °C 55 % 76 % 1013,1 hPa 0,0 l/m² 0,0 km/h (0 Bft) W 264 ° 0 min 0 W/m² 13,6 °C 17,9 °C 0,0 km/h (0 Bft)
24.08.2024 01:24 22,9 °C 17,8 °C 55 % 76 % 1013,1 hPa 0,0 l/m² 0,0 km/h (0 Bft) W 264 ° 0 min 0 W/m² 13,5 °C 17,8 °C 0,0 km/h (0 Bft)
24.08.2024 01:25 22,9 °C 17,8 °C 55 % 77 % 1013,0 hPa 0,0 l/m² 0,0 km/h (0 Bft) W 264 ° 0 min 0 W/m² 13,7 °C 17,8 °C 0,0 km/h (0 Bft)
24.08.2024 01:26 22,9 °C 17,8 °C 55 % 77 % 1013,1 hPa 0,0 l/m² 0,0 km/h (0 Bft) W 264 ° 0 min 0 W/m² 13,7 °C 17,8 °C 0,0 km/h (0 Bft)
24.08.2024 01:27 22,9 °C 17,7 °C 55 % 78 % 1013,1 hPa 0,0 l/m² 0,0 km/h (0 Bft) W 264 ° 0 min 0 W/m² 13,8 °C 17,7 °C 0,0 km/h (0 Bft)
24.08.2024 01:28 22,9 °C 17,7 °C 55 % 78 % 1013,0 hPa 0,0 l/m² 0,0 km/h (0 Bft) W 264 ° 0 min 0 W/m² 13,8 °C 17,7 °C 0,0 km/h (0 Bft)
24.08.2024 01:29 22,9 °C 17,7 °C 55 % 78 % 1013,0 hPa 0,0 l/m² 0,0 km/h (0 Bft) W 264 ° 0 min 0 W/m² 13,8 °C 17,7 °C 0,0 km/h (0 Bft)
24.08.2024 01:30 22,9 °C 17,7 °C 55 % 78 % 1013,0 hPa 0,0 l/m² 0,0 km/h (0 Bft) W 264 ° 0 min 0 W/m² 13,8 °C 17,7 °C 0,0 km/h (0 Bft)
24.08.2024 01:31 22,9 °C 17,7 °C 55 % 79 % 1013,0 hPa 0,0 l/m² 0,0 km/h (0 Bft) W 264 ° 0 min 0 W/m² 14,0 °C 17,7 °C 0,0 km/h (0 Bft)
24.08.2024 01:32 22,9 °C 17,7 °C 55 % 79 % 1013,0 hPa 0,0 l/m² 0,0 km/h (0 Bft) W 264 ° 0 min 0 W/m² 14,0 °C 17,7 °C 0,0 km/h (0 Bft)
24.08.2024 01:33 22,9 °C 17,7 °C 55 % 79 % 1013,0 hPa 0,0 l/m² 0,6 km/h (0 Bft) W 264 ° 0 min 0 W/m² 14,0 °C 17,7 °C 1,6 km/h (1 Bft)
24.08.2024 01:34 22,9 °C 17,7 °C 55 % 79 % 1013,0 hPa 0,0 l/m² 0,7 km/h (0 Bft) W 264 ° 0 min 0 W/m² 14,0 °C 17,7 °C 1,6 km/h (1 Bft)
24.08.2024 01:35 22,9 °C 17,7 °C 55 % 79 % 1013,0 hPa 0,0 l/m² 0,0 km/h (0 Bft) W 264 ° 0 min 0 W/m² 14,0 °C 17,7 °C 0,0 km/h (0 Bft)
24.08.2024 01:36 22,9 °C 17,7 °C 55 % 79 % 1013,0 hPa 0,0 l/m² 0,6 km/h (0 Bft) W 264 ° 0 min 0 W/m² 14,0 °C 17,7 °C 3,2 km/h (1 Bft)
24.08.2024 01:37 22,9 °C 17,7 °C 55 % 79 % 1013,0 hPa 0,0 l/m² 3,7 km/h (1 Bft) W 264 ° 0 min 0 W/m² 14,0 °C 17,7 °C 4,8 km/h (1 Bft)
24.08.2024 01:38 22,9 °C 17,6 °C 55 % 78 % 1013,0 hPa 0,0 l/m² 4,5 km/h (1 Bft) W 264 ° 0 min 0 W/m² 13,7 °C 17,6 °C 6,4 km/h (2 Bft)
24.08.2024 01:39 22,9 °C 17,5 °C 55 % 79 % 1013,0 hPa 0,0 l/m² 2,8 km/h (1 Bft) W 264 ° 0 min 0 W/m² 13,8 °C 17,5 °C 4,8 km/h (1 Bft)
24.08.2024 01:40 22,9 °C 17,4 °C 55 % 79 % 1013,1 hPa 0,0 l/m² 1,5 km/h (1 Bft) W 264 ° 0 min 0 W/m² 13,7 °C 17,4 °C 3,2 km/h (1 Bft)
24.08.2024 01:41 22,9 °C 17,4 °C 55 % 80 % 1012,9 hPa 0,0 l/m² 3,5 km/h (1 Bft) W 264 ° 0 min 0 W/m² 13,9 °C 17,4 °C 4,8 km/h (1 Bft)
24.08.2024 01:43 22,9 °C 17,4 °C 55 % 80 % 1012,9 hPa 0,0 l/m² 3,4 km/h (1 Bft) W 264 ° 0 min 0 W/m² 13,9 °C 17,4 °C 4,8 km/h (1 Bft)
24.08.2024 01:44 22,9 °C 17,4 °C 55 % 80 % 1012,9 hPa 0,0 l/m² 1,2 km/h (1 Bft) W 264 ° 0 min 0 W/m² 13,9 °C 17,4 °C 3,2 km/h (1 Bft)
24.08.2024 01:45 22,9 °C 17,4 °C 55 % 80 % 1012,9 hPa 0,0 l/m² 1,4 km/h (1 Bft) W 264 ° 0 min 0 W/m² 13,9 °C 17,4 °C 3,2 km/h (1 Bft)
24.08.2024 01:46 22,8 °C 17,3 °C 55 % 79 % 1013,0 hPa 0,0 l/m² 2,7 km/h (1 Bft) W 264 ° 0 min 0 W/m² 13,6 °C 17,3 °C 3,2 km/h (1 Bft)
24.08.2024 01:47 22,9 °C 17,2 °C 55 % 79 % 1012,9 hPa 0,0 l/m² 2,9 km/h (1 Bft) W 264 ° 0 min 0 W/m² 13,5 °C 17,2 °C 4,8 km/h (1 Bft)
24.08.2024 01:48 22,9 °C 17,1 °C 55 % 80 % 1013,1 hPa 0,0 l/m² 5,0 km/h (1 Bft) S-SW 205 ° 0 min 0 W/m² 13,6 °C 17,1 °C 6,4 km/h (2 Bft)
24.08.2024 01:49 22,9 °C 16,9 °C 55 % 80 % 1013,1 hPa 0,0 l/m² 3,7 km/h (1 Bft) S-SW 205 ° 0 min 0 W/m² 13,4 °C 16,9 °C 4,8 km/h (1 Bft)
24.08.2024 01:50 22,9 °C 16,9 °C 55 % 81 % 1013,1 hPa 0,0 l/m² 3,0 km/h (1 Bft) S-SW 205 ° 0 min 0 W/m² 13,6 °C 16,9 °C 4,8 km/h (1 Bft)
24.08.2024 01:51 22,9 °C 16,8 °C 55 % 81 % 1013,0 hPa 0,0 l/m² 0,1 km/h (0 Bft) S-SW 205 ° 0 min 0 W/m² 13,5 °C 16,8 °C 1,6 km/h (1 Bft)
24.08.2024 01:53 22,8 °C 16,8 °C 55 % 81 % 1013,0 hPa 0,0 l/m² 0,1 km/h (0 Bft) S-SW 205 ° 0 min 0 W/m² 13,5 °C 16,8 °C 1,6 km/h (1 Bft)
24.08.2024 01:54 22,8 °C 16,8 °C 55 % 81 % 1013,1 hPa 0,0 l/m² 0,0 km/h (0 Bft) S-SW 205 ° 0 min 0 W/m² 13,5 °C 16,8 °C 0,0 km/h (0 Bft)
24.08.2024 01:55 22,9 °C 16,8 °C 55 % 82 % 1013,0 hPa 0,0 l/m² 0,0 km/h (0 Bft) S-SW 205 ° 0 min 0 W/m² 13,7 °C 16,8 °C 0,0 km/h (0 Bft)
24.08.2024 01:56 22,8 °C 16,8 °C 55 % 82 % 1013,0 hPa 0,0 l/m² 0,0 km/h (0 Bft) S-SW 205 ° 0 min 0 W/m² 13,7 °C 16,8 °C 0,0 km/h (0 Bft)
24.08.2024 01:57 22,8 °C 16,8 °C 55 % 82 % 1013,0 hPa 0,0 l/m² 0,0 km/h (0 Bft) S-SW 205 ° 0 min 0 W/m² 13,7 °C 16,8 °C 0,0 km/h (0 Bft)
24.08.2024 01:58 22,9 °C 16,8 °C 55 % 82 % 1013,1 hPa 0,0 l/m² 0,1 km/h (0 Bft) S-SW 205 ° 0 min 0 W/m² 13,7 °C 16,8 °C 1,6 km/h (1 Bft)
24.08.2024 01:59 22,8 °C 16,8 °C 55 % 82 % 1013,1 hPa 0,0 l/m² 1,5 km/h (1 Bft) S-SW 205 ° 0 min 0 W/m² 13,7 °C 16,8 °C 3,2 km/h (1 Bft)
24.08.2024 02:00 22,9 °C 16,9 °C 55 % 82 % 1013,1 hPa 0,0 l/m² 1,9 km/h (1 Bft) S-SW 205 ° 0 min 0 W/m² 13,8 °C 16,9 °C 3,2 km/h (1 Bft)
24.08.2024 02:01 22,9 °C 16,9 °C 55 % 82 % 1013,1 hPa 0,0 l/m² 2,9 km/h (1 Bft) S-SW 206 ° 0 min 0 W/m² 13,8 °C 16,9 °C 3,2 km/h (1 Bft)
24.08.2024 02:02 22,9 °C 16,9 °C 55 % 83 % 1013,1 hPa 0,0 l/m² 3,4 km/h (1 Bft) SW 217 ° 0 min 0 W/m² 14,0 °C 16,9 °C 4,8 km/h (1 Bft)
24.08.2024 02:03 22,8 °C 17,0 °C 55 % 83 % 1013,0 hPa 0,0 l/m² 2,6 km/h (1 Bft) SW 217 ° 0 min 0 W/m² 14,1 °C 17,0 °C 4,8 km/h (1 Bft)
24.08.2024 02:04 22,8 °C 17,0 °C 55 % 82 % 1013,0 hPa 0,0 l/m² 0,5 km/h (0 Bft) SW 217 ° 0 min 0 W/m² 13,9 °C 17,0 °C 1,6 km/h (1 Bft)
24.08.2024 02:05 22,8 °C 17,0 °C 55 % 82 % 1013,1 hPa 0,0 l/m² 0,0 km/h (0 Bft) SW 217 ° 0 min 0 W/m² 13,9 °C 17,0 °C 0,0 km/h (0 Bft)
24.08.2024 02:06 22,8 °C 17,1 °C 55 % 82 % 1013,0 hPa 0,0 l/m² 0,0 km/h (0 Bft) SW 217 ° 0 min 0 W/m² 14,0 °C 17,1 °C 0,0 km/h (0 Bft)
24.08.2024 02:07 22,8 °C 17,0 °C 55 % 82 % 1013,0 hPa 0,0 l/m² 0,0 km/h (0 Bft) SW 217 ° 0 min 0 W/m² 13,9 °C 17,0 °C 0,0 km/h (0 Bft)
24.08.2024 02:08 22,8 °C 16,9 °C 55 % 82 % 1013,1 hPa 0,0 l/m² 0,8 km/h (0 Bft) SW 217 ° 0 min 0 W/m² 13,8 °C 16,9 °C 3,2 km/h (1 Bft)
24.08.2024 02:09 22,8 °C 16,9 °C 55 % 82 % 1013,1 hPa 0,0 l/m² 2,9 km/h (1 Bft) SW 217 ° 0 min 0 W/m² 13,8 °C 16,9 °C 3,2 km/h (1 Bft)
24.08.2024 02:10 22,9 °C 16,8 °C 55 % 82 % 1013,1 hPa 0,0 l/m² 2,4 km/h (1 Bft) SW 217 ° 0 min 0 W/m² 13,7 °C 16,8 °C 3,2 km/h (1 Bft)
24.08.2024 02:11 22,8 °C 16,8 °C 55 % 83 % 1013,1 hPa 0,0 l/m² 1,3 km/h (1 Bft) SW 217 ° 0 min 0 W/m² 13,9 °C 16,8 °C 3,2 km/h (1 Bft)
24.08.2024 02:13 22,8 °C 16,8 °C 55 % 84 % 1013,0 hPa 0,0 l/m² 0,2 km/h (0 Bft) SW 217 ° 0 min 0 W/m² 14,1 °C 16,8 °C 1,6 km/h (1 Bft)
24.08.2024 02:14 22,8 °C 16,8 °C 55 % 84 % 1013,1 hPa 0,0 l/m² 1,1 km/h (1 Bft) SW 217 ° 0 min 0 W/m² 14,1 °C 16,8 °C 1,6 km/h (1 Bft)
24.08.2024 02:15 22,8 °C 16,8 °C 55 % 84 % 1013,0 hPa 0,0 l/m² 0,9 km/h (0 Bft) SW 217 ° 0 min 0 W/m² 14,1 °C 16,8 °C 1,6 km/h (1 Bft)
24.08.2024 02:16 22,8 °C 16,8 °C 55 % 84 % 1013,1 hPa 0,0 l/m² 1,7 km/h (1 Bft) SW 218 ° 0 min 0 W/m² 14,1 °C 16,8 °C 3,2 km/h (1 Bft)
24.08.2024 02:17 22,8 °C 16,8 °C 55 % 84 % 1013,0 hPa 0,0 l/m² 2,5 km/h (1 Bft) SW 218 ° 0 min 0 W/m² 14,1 °C 16,8 °C 3,2 km/h (1 Bft)
24.08.2024 02:18 22,8 °C 16,8 °C 55 % 84 % 1013,1 hPa 0,0 l/m² 2,3 km/h (1 Bft) SW 218 ° 0 min 0 W/m² 14,1 °C 16,8 °C 3,2 km/h (1 Bft)
24.08.2024 02:19 22,8 °C 16,8 °C 55 % 84 % 1013,0 hPa 0,0 l/m² 1,3 km/h (1 Bft) SW 218 ° 0 min 0 W/m² 14,1 °C 16,8 °C 3,2 km/h (1 Bft)
24.08.2024 02:20 22,8 °C 16,8 °C 55 % 84 % 1013,0 hPa 0,0 l/m² 0,1 km/h (0 Bft) SW 218 ° 0 min 0 W/m² 14,1 °C 16,8 °C 1,6 km/h (1 Bft)
24.08.2024 02:21 22,8 °C 16,9 °C 55 % 84 % 1013,0 hPa 0,0 l/m² 0,0 km/h (0 Bft) SW 218 ° 0 min 0 W/m² 14,2 °C 16,9 °C 0,0 km/h (0 Bft)
24.08.2024 02:23 22,8 °C 16,9 °C 55 % 83 % 1013,0 hPa 0,0 l/m² 0,3 km/h (0 Bft) SW 218 ° 0 min 0 W/m² 14,0 °C 16,9 °C 1,6 km/h (1 Bft)
24.08.2024 02:24 22,8 °C 16,9 °C 55 % 83 % 1013,0 hPa 0,0 l/m² 0,8 km/h (0 Bft) SW 218 ° 0 min 0 W/m² 14,0 °C 16,9 °C 1,6 km/h (1 Bft)
24.08.2024 02:25 22,8 °C 16,9 °C 56 % 83 % 1013,1 hPa 0,0 l/m² 0,6 km/h (0 Bft) SW 218 ° 0 min 0 W/m² 14,0 °C 16,9 °C 1,6 km/h (1 Bft)
24.08.2024 02:26 22,8 °C 16,8 °C 55 % 84 % 1013,1 hPa 0,0 l/m² 1,7 km/h (1 Bft) SW 217 ° 0 min 0 W/m² 14,1 °C 16,8 °C 3,2 km/h (1 Bft)
24.08.2024 02:27 22,8 °C 16,8 °C 55 % 84 % 1013,1 hPa 0,0 l/m² 1,2 km/h (1 Bft) SW 217 ° 0 min 0 W/m² 14,1 °C 16,8 °C 3,2 km/h (1 Bft)
24.08.2024 02:28 22,8 °C 16,7 °C 56 % 84 % 1013,1 hPa 0,0 l/m² 0,0 km/h (0 Bft) SW 217 ° 0 min 0 W/m² 14,0 °C 16,7 °C 0,0 km/h (0 Bft)
24.08.2024 02:29 22,8 °C 16,7 °C 56 % 84 % 1013,1 hPa 0,0 l/m² 0,0 km/h (0 Bft) SW 217 ° 0 min 0 W/m² 14,0 °C 16,7 °C 0,0 km/h (0 Bft)
24.08.2024 02:30 22,8 °C 16,7 °C 56 % 84 % 1013,1 hPa 0,0 l/m² 0,0 km/h (0 Bft) SW 217 ° 0 min 0 W/m² 14,0 °C 16,7 °C 0,0 km/h (0 Bft)
24.08.2024 02:31 22,8 °C 16,6 °C 56 % 85 % 1013,0 hPa 0,0 l/m² 0,0 km/h (0 Bft) SW 217 ° 0 min 0 W/m² 14,1 °C 16,6 °C 0,0 km/h (0 Bft)
24.08.2024 02:33 22,8 °C 16,5 °C 56 % 85 % 1013,1 hPa 0,0 l/m² 0,0 km/h (0 Bft) SW 217 ° 0 min 0 W/m² 14,0 °C 16,5 °C 0,0 km/h (0 Bft)
24.08.2024 02:34 22,8 °C 16,4 °C 56 % 85 % 1013,0 hPa 0,0 l/m² 0,1 km/h (0 Bft) SW 217 ° 0 min 0 W/m² 13,9 °C 16,4 °C 1,6 km/h (1 Bft)
24.08.2024 02:35 22,8 °C 16,4 °C 56 % 85 % 1013,1 hPa 0,0 l/m² 1,6 km/h (1 Bft) SW 217 ° 0 min 0 W/m² 13,9 °C 16,4 °C 3,2 km/h (1 Bft)
24.08.2024 02:36 22,8 °C 16,4 °C 56 % 86 % 1013,0 hPa 0,0 l/m² 1,9 km/h (1 Bft) SW 217 ° 0 min 0 W/m² 14,1 °C 16,4 °C 3,2 km/h (1 Bft)
24.08.2024 02:37 22,8 °C 16,3 °C 56 % 85 % 1013,1 hPa 0,0 l/m² 0,9 km/h (0 Bft) SW 217 ° 0 min 0 W/m² 13,8 °C 16,3 °C 1,6 km/h (1 Bft)
24.08.2024 02:38 22,8 °C 16,3 °C 56 % 85 % 1013,1 hPa 0,0 l/m² 0,0 km/h (0 Bft) SW 217 ° 0 min 0 W/m² 13,8 °C 16,3 °C 0,0 km/h (0 Bft)
24.08.2024 02:39 22,8 °C 16,2 °C 56 % 86 % 1013,1 hPa 0,0 l/m² 0,0 km/h (0 Bft) SW 217 ° 0 min 0 W/m² 13,9 °C 16,2 °C 0,0 km/h (0 Bft)
24.08.2024 02:40 22,8 °C 16,2 °C 56 % 86 % 1013,1 hPa 0,0 l/m² 0,0 km/h (0 Bft) SW 217 ° 0 min 0 W/m² 13,9 °C 16,2 °C 0,0 km/h (0 Bft)
24.08.2024 02:41 22,8 °C 16,2 °C 56 % 87 % 1013,1 hPa 0,0 l/m² 0,0 km/h (0 Bft) SW 217 ° 0 min 0 W/m² 14,0 °C 16,2 °C 0,0 km/h (0 Bft)
24.08.2024 02:43 22,8 °C 16,2 °C 56 % 87 % 1013,1 hPa 0,0 l/m² 0,4 km/h (0 Bft) SW 217 ° 0 min 0 W/m² 14,0 °C 16,2 °C 1,6 km/h (1 Bft)
24.08.2024 02:44 22,8 °C 16,2 °C 56 % 87 % 1013,1 hPa 0,0 l/m² 1,4 km/h (1 Bft) SW 217 ° 0 min 0 W/m² 14,0 °C 16,2 °C 1,6 km/h (1 Bft)
24.08.2024 02:45 22,8 °C 16,2 °C 56 % 87 % 1013,1 hPa 0,0 l/m² 1,7 km/h (1 Bft) SW 217 ° 0 min 0 W/m² 14,0 °C 16,2 °C 3,2 km/h (1 Bft)
24.08.2024 02:46 22,8 °C 16,2 °C 56 % 87 % 1013,1 hPa 0,0 l/m² 3,1 km/h (1 Bft) SW 218 ° 0 min 0 W/m² 14,0 °C 16,2 °C 3,2 km/h (1 Bft)
24.08.2024 02:47 22,8 °C 16,2 °C 56 % 87 % 1013,2 hPa 0,0 l/m² 3,3 km/h (1 Bft) SW 217 ° 0 min 0 W/m² 14,0 °C 16,2 °C 4,8 km/h (1 Bft)
24.08.2024 02:48 22,8 °C 16,2 °C 56 % 86 % 1013,2 hPa 0,0 l/m² 3,8 km/h (1 Bft) O-SO 112 ° 0 min 0 W/m² 13,9 °C 16,2 °C 4,8 km/h (1 Bft)
24.08.2024 02:49 22,8 °C 16,1 °C 56 % 86 % 1013,1 hPa 0,0 l/m² 4,1 km/h (1 Bft) O-SO 111 ° 0 min 0 W/m² 13,8 °C 16,1 °C 4,8 km/h (1 Bft)
24.08.2024 02:50 22,8 °C 16,1 °C 56 % 86 % 1013,2 hPa 0,0 l/m² 4,5 km/h (1 Bft) O-SO 109 ° 0 min 0 W/m² 13,8 °C 16,1 °C 4,8 km/h (1 Bft)
24.08.2024 02:51 22,8 °C 16,1 °C 56 % 87 % 1013,2 hPa 0,0 l/m² 4,1 km/h (1 Bft) O-SO 108 ° 0 min 0 W/m² 13,9 °C 16,1 °C 4,8 km/h (1 Bft)
24.08.2024 02:53 22,8 °C 16,0 °C 56 % 87 % 1013,1 hPa 0,0 l/m² 2,2 km/h (1 Bft) O-SO 107 ° 0 min 0 W/m² 13,8 °C 16,0 °C 3,2 km/h (1 Bft)
24.08.2024 02:54 22,8 °C 15,9 °C 56 % 87 % 1013,2 hPa 0,0 l/m² 2,0 km/h (1 Bft) O-SO 107 ° 0 min 0 W/m² 13,7 °C 15,9 °C 3,2 km/h (1 Bft)
24.08.2024 02:55 22,8 °C 16,0 °C 56 % 87 % 1013,1 hPa 0,0 l/m² 1,5 km/h (1 Bft) O-SO 107 ° 0 min 0 W/m² 13,8 °C 16,0 °C 3,2 km/h (1 Bft)
24.08.2024 02:56 22,8 °C 16,0 °C 56 % 87 % 1013,2 hPa 0,0 l/m² 1,4 km/h (1 Bft) O-SO 107 ° 0 min 0 W/m² 13,8 °C 16,0 °C 3,2 km/h (1 Bft)
24.08.2024 02:57 22,8 °C 16,1 °C 56 % 87 % 1013,2 hPa 0,0 l/m² 0,0 km/h (0 Bft) O-SO 107 ° 0 min 0 W/m² 13,9 °C 16,1 °C 0,0 km/h (0 Bft)
24.08.2024 02:58 22,8 °C 16,1 °C 56 % 87 % 1013,2 hPa 0,0 l/m² 0,0 km/h (0 Bft) O-SO 107 ° 0 min 0 W/m² 13,9 °C 16,1 °C 0,0 km/h (0 Bft)
24.08.2024 02:59 22,8 °C 16,1 °C 56 % 87 % 1013,1 hPa 0,0 l/m² 0,0 km/h (0 Bft) O-SO 107 ° 0 min 0 W/m² 13,9 °C 16,1 °C 0,0 km/h (0 Bft)
24.08.2024 03:00 22,8 °C 16,1 °C 56 % 87 % 1013,2 hPa 0,0 l/m² 0,0 km/h (0 Bft) O-SO 107 ° 0 min 0 W/m² 13,9 °C 16,1 °C 0,0 km/h (0 Bft)
24.08.2024 03:01 22,8 °C 16,0 °C 56 % 87 % 1013,1 hPa 0,0 l/m² 0,0 km/h (0 Bft) N 0 ° 0 min 0 W/m² 13,8 °C 16,0 °C 0,0 km/h (0 Bft)
24.08.2024 03:07 22,8 °C 16,0 °C 56 % 87 % 1013,1 hPa 0,0 l/m² 1,5 km/h (1 Bft) O-SO 107 ° 0 min 0 W/m² 13,8 °C 16,0 °C 3,2 km/h (1 Bft)
24.08.2024 03:08 22,8 °C 16,1 °C 56 % 87 % 1013,1 hPa 0,0 l/m² 1,6 km/h (1 Bft) O-SO 107 ° 0 min 0 W/m² 13,9 °C 16,1 °C 3,2 km/h (1 Bft)
24.08.2024 03:09 22,7 °C 16,2 °C 56 % 87 % 1013,1 hPa 0,0 l/m² 0,1 km/h (0 Bft) O-SO 107 ° 0 min 0 W/m² 14,0 °C 16,2 °C 1,6 km/h (1 Bft)
24.08.2024 03:10 22,8 °C 16,2 °C 56 % 87 % 1013,1 hPa 0,0 l/m² 0,0 km/h (0 Bft) O-SO 107 ° 0 min 0 W/m² 14,0 °C 16,2 °C 0,0 km/h (0 Bft)
24.08.2024 03:12 22,7 °C 16,2 °C 56 % 86 % 1013,1 hPa 0,0 l/m² 0,0 km/h (0 Bft) O-SO 107 ° 0 min 0 W/m² 13,9 °C 16,2 °C 0,0 km/h (0 Bft)
24.08.2024 03:13 22,7 °C 16,1 °C 56 % 86 % 1013,1 hPa 0,0 l/m² 0,0 km/h (0 Bft) O-SO 107 ° 0 min 0 W/m² 13,8 °C 16,1 °C 0,0 km/h (0 Bft)
24.08.2024 03:14 22,7 °C 16,1 °C 56 % 86 % 1013,2 hPa 0,0 l/m² 0,0 km/h (0 Bft) O-SO 107 ° 0 min 0 W/m² 13,8 °C 16,1 °C 0,0 km/h (0 Bft)
24.08.2024 03:15 22,7 °C 15,9 °C 56 % 85 % 1013,2 hPa 0,0 l/m² 0,0 km/h (0 Bft) O-SO 107 ° 0 min 0 W/m² 13,4 °C 15,9 °C 0,0 km/h (0 Bft)
24.08.2024 03:16 22,8 °C 15,9 °C 56 % 85 % 1013,3 hPa 0,0 l/m² 1,1 km/h (1 Bft) O-SO 107 ° 0 min 0 W/m² 13,4 °C 15,9 °C 1,6 km/h (1 Bft)
24.08.2024 03:18 22,8 °C 15,8 °C 56 % 86 % 1013,3 hPa 0,0 l/m² 0,5 km/h (0 Bft) O-SO 107 ° 0 min 0 W/m² 13,5 °C 15,8 °C 1,6 km/h (1 Bft)
24.08.2024 03:20 22,7 °C 15,7 °C 56 % 86 % 1013,3 hPa 0,0 l/m² 0,0 km/h (0 Bft) O-SO 107 ° 0 min 0 W/m² 13,4 °C 15,7 °C 0,0 km/h (0 Bft)
24.08.2024 03:21 22,7 °C 15,7 °C 56 % 87 % 1013,2 hPa 0,0 l/m² 0,0 km/h (0 Bft) O-SO 107 ° 0 min 0 W/m² 13,5 °C 15,7 °C 0,0 km/h (0 Bft)
24.08.2024 03:22 22,7 °C 15,7 °C 56 % 87 % 1013,2 hPa 0,0 l/m² 0,0 km/h (0 Bft) O-SO 107 ° 0 min 0 W/m² 13,5 °C 15,7 °C 0,0 km/h (0 Bft)
24.08.2024 03:23 22,7 °C 15,7 °C 56 % 87 % 1013,2 hPa 0,0 l/m² 0,0 km/h (0 Bft) O-SO 107 ° 0 min 0 W/m² 13,5 °C 15,7 °C 0,0 km/h (0 Bft)
24.08.2024 03:25 22,7 °C 15,7 °C 56 % 87 % 1013,3 hPa 0,0 l/m² 0,0 km/h (0 Bft) O-SO 107 ° 0 min 0 W/m² 13,5 °C 15,7 °C 0,0 km/h (0 Bft)
24.08.2024 03:27 22,7 °C 15,8 °C 56 % 87 % 1013,2 hPa 0,0 l/m² 0,0 km/h (0 Bft) O-SO 107 ° 0 min 0 W/m² 13,6 °C 15,8 °C 0,0 km/h (0 Bft)
24.08.2024 03:29 22,7 °C 15,8 °C 56 % 87 % 1013,2 hPa 0,0 l/m² 0,0 km/h (0 Bft) O-SO 107 ° 0 min 0 W/m² 13,6 °C 15,8 °C 0,0 km/h (0 Bft)
24.08.2024 03:30 22,7 °C 15,8 °C 56 % 87 % 1013,2 hPa 0,0 l/m² 1,4 km/h (1 Bft) O-SO 107 ° 0 min 0 W/m² 13,6 °C 15,8 °C 3,2 km/h (1 Bft)
24.08.2024 03:32 22,7 °C 15,7 °C 56 % 87 % 1013,2 hPa 0,0 l/m² 1,6 km/h (1 Bft) O-SO 107 ° 0 min 0 W/m² 13,5 °C 15,7 °C 3,2 km/h (1 Bft)
24.08.2024 03:33 22,7 °C 15,8 °C 56 % 87 % 1013,1 hPa 0,0 l/m² 0,5 km/h (0 Bft) O-SO 107 ° 0 min 0 W/m² 13,6 °C 15,8 °C 1,6 km/h (1 Bft)
24.08.2024 03:35 22,7 °C 15,8 °C 56 % 88 % 1013,1 hPa 0,0 l/m² 0,7 km/h (0 Bft) O-SO 107 ° 0 min 0 W/m² 13,8 °C 15,8 °C 3,2 km/h (1 Bft)
24.08.2024 03:37 22,7 °C 15,8 °C 56 % 88 % 1013,1 hPa 0,0 l/m² 2,3 km/h (1 Bft) O-SO 107 ° 0 min 0 W/m² 13,8 °C 15,8 °C 3,2 km/h (1 Bft)
24.08.2024 03:39 22,7 °C 15,9 °C 56 % 88 % 1013,1 hPa 0,0 l/m² 2,1 km/h (1 Bft) O-SO 107 ° 0 min 0 W/m² 13,9 °C 15,9 °C 3,2 km/h (1 Bft)
24.08.2024 03:40 22,7 °C 15,9 °C 56 % 88 % 1013,1 hPa 0,0 l/m² 0,3 km/h (0 Bft) O-SO 107 ° 0 min 0 W/m² 13,9 °C 15,9 °C 1,6 km/h (1 Bft)
24.08.2024 03:42 22,7 °C 15,8 °C 56 % 87 % 1013,2 hPa 0,0 l/m² 0,1 km/h (0 Bft) O-SO 107 ° 0 min 0 W/m² 13,6 °C 15,8 °C 1,6 km/h (1 Bft)
24.08.2024 03:43 22,7 °C 15,8 °C 56 % 86 % 1013,1 hPa 0,0 l/m² 1,8 km/h (1 Bft) O-SO 107 ° 0 min 0 W/m² 13,5 °C 15,8 °C 3,2 km/h (1 Bft)
24.08.2024 03:45 22,7 °C 15,6 °C 56 % 86 % 1013,1 hPa 0,0 l/m² 1,7 km/h (1 Bft) O-SO 107 ° 0 min 0 W/m² 13,3 °C 15,6 °C 3,2 km/h (1 Bft)
24.08.2024 03:47 22,7 °C 15,4 °C 56 % 87 % 1013,2 hPa 0,0 l/m² 0,3 km/h (0 Bft) O-SO 107 ° 0 min 0 W/m² 13,2 °C 15,4 °C 1,6 km/h (1 Bft)
24.08.2024 03:48 22,7 °C 15,4 °C 56 % 88 % 1013,2 hPa 0,0 l/m² 0,0 km/h (0 Bft) O-SO 107 ° 0 min 0 W/m² 13,4 °C 15,4 °C 0,0 km/h (0 Bft)
24.08.2024 03:50 22,7 °C 15,4 °C 56 % 88 % 1013,1 hPa 0,0 l/m² 0,0 km/h (0 Bft) O-SO 107 ° 0 min 0 W/m² 13,4 °C 15,4 °C 0,0 km/h (0 Bft)
24.08.2024 03:51 22,7 °C 15,4 °C 56 % 88 % 1013,1 hPa 0,0 l/m² 0,0 km/h (0 Bft) O-SO 107 ° 0 min 0 W/m² 13,4 °C 15,4 °C 0,0 km/h (0 Bft)
24.08.2024 03:52 22,7 °C 15,4 °C 56 % 89 % 1013,1 hPa 0,0 l/m² 1,1 km/h (1 Bft) O-SO 107 ° 0 min 0 W/m² 13,6 °C 15,4 °C 3,2 km/h (1 Bft)
24.08.2024 03:53 22,7 °C 15,4 °C 56 % 89 % 1013,1 hPa 0,0 l/m² 0,2 km/h (0 Bft) O-SO 107 ° 0 min 0 W/m² 13,6 °C 15,4 °C 1,6 km/h (1 Bft)
24.08.2024 03:55 22,7 °C 15,4 °C 56 % 89 % 1013,1 hPa 0,0 l/m² 0,0 km/h (0 Bft) O-SO 107 ° 0 min 0 W/m² 13,6 °C 15,4 °C 0,0 km/h (0 Bft)
24.08.2024 03:57 22,7 °C 15,4 °C 56 % 89 % 1013,1 hPa 0,0 l/m² 0,0 km/h (0 Bft) O-SO 107 ° 0 min 0 W/m² 13,6 °C 15,4 °C 0,0 km/h (0 Bft)
24.08.2024 03:59 22,7 °C 15,3 °C 56 % 89 % 1013,1 hPa 0,0 l/m² 0,0 km/h (0 Bft) O-SO 107 ° 0 min 0 W/m² 13,5 °C 15,3 °C 0,0 km/h (0 Bft)
24.08.2024 04:00 22,7 °C 15,3 °C 56 % 89 % 1013,1 hPa 0,0 l/m² 0,0 km/h (0 Bft) O-SO 107 ° 0 min 0 W/m² 13,5 °C 15,3 °C 0,0 km/h (0 Bft)
24.08.2024 04:02 22,7 °C 15,3 °C 56 % 89 % 1013,1 hPa 0,0 l/m² 0,0 km/h (0 Bft) O-SO 107 ° 0 min 0 W/m² 13,5 °C 15,3 °C 0,0 km/h (0 Bft)
24.08.2024 04:03 22,7 °C 15,3 °C 56 % 89 % 1013,0 hPa 0,0 l/m² 0,0 km/h (0 Bft) O-SO 107 ° 0 min 0 W/m² 13,5 °C 15,3 °C 0,0 km/h (0 Bft)
24.08.2024 04:05 22,7 °C 15,3 °C 56 % 89 % 1013,1 hPa 0,0 l/m² 0,0 km/h (0 Bft) O-SO 107 ° 0 min 0 W/m² 13,5 °C 15,3 °C 0,0 km/h (0 Bft)
24.08.2024 04:06 22,7 °C 15,3 °C 56 % 89 % 1013,1 hPa 0,0 l/m² 0,0 km/h (0 Bft) O-SO 107 ° 0 min 0 W/m² 13,5 °C 15,3 °C 0,0 km/h (0 Bft)
24.08.2024 04:08 22,7 °C 15,3 °C 56 % 89 % 1013,1 hPa 0,0 l/m² 0,0 km/h (0 Bft) O-SO 107 ° 0 min 0 W/m² 13,5 °C 15,3 °C 0,0 km/h (0 Bft)
24.08.2024 04:10 22,7 °C 15,3 °C 56 % 89 % 1013,2 hPa 0,0 l/m² 1,1 km/h (1 Bft) O-SO 107 ° 0 min 0 W/m² 13,5 °C 15,3 °C 3,2 km/h (1 Bft)
24.08.2024 04:11 22,7 °C 15,2 °C 56 % 89 % 1013,2 hPa 0,0 l/m² 2,6 km/h (1 Bft) O-SO 107 ° 0 min 0 W/m² 13,4 °C 15,2 °C 3,2 km/h (1 Bft)
24.08.2024 04:12 22,7 °C 15,2 °C 56 % 89 % 1013,2 hPa 0,0 l/m² 2,9 km/h (1 Bft) O-SO 107 ° 0 min 0 W/m² 13,4 °C 15,2 °C 3,2 km/h (1 Bft)
24.08.2024 04:14 22,7 °C 15,2 °C 56 % 89 % 1013,2 hPa 0,0 l/m² 2,8 km/h (1 Bft) O-SO 106 ° 0 min 0 W/m² 13,4 °C 15,2 °C 4,8 km/h (1 Bft)
24.08.2024 04:16 22,7 °C 15,2 °C 56 % 90 % 1013,2 hPa 0,0 l/m² 0,7 km/h (0 Bft) O-SO 106 ° 0 min 0 W/m² 13,6 °C 15,2 °C 3,2 km/h (1 Bft)
24.08.2024 04:18 22,7 °C 15,2 °C 56 % 90 % 1013,2 hPa 0,0 l/m² 0,1 km/h (0 Bft) O-SO 106 ° 0 min 0 W/m² 13,6 °C 15,2 °C 1,6 km/h (1 Bft)
24.08.2024 04:20 22,7 °C 15,2 °C 56 % 90 % 1013,3 hPa 0,0 l/m² 0,0 km/h (0 Bft) O-SO 106 ° 0 min 0 W/m² 13,6 °C 15,2 °C 0,0 km/h (0 Bft)
24.08.2024 04:21 22,7 °C 15,2 °C 56 % 89 % 1013,3 hPa 0,0 l/m² 0,0 km/h (0 Bft) O-SO 106 ° 0 min 0 W/m² 13,4 °C 15,2 °C 0,0 km/h (0 Bft)
24.08.2024 04:22 22,7 °C 15,2 °C 56 % 89 % 1013,3 hPa 0,0 l/m² 0,5 km/h (0 Bft) O-SO 106 ° 0 min 0 W/m² 13,4 °C 15,2 °C 3,2 km/h (1 Bft)
24.08.2024 04:24 22,7 °C 15,2 °C 56 % 89 % 1013,3 hPa 0,0 l/m² 3,4 km/h (1 Bft) O-SO 106 ° 0 min 0 W/m² 13,4 °C 15,2 °C 4,8 km/h (1 Bft)
24.08.2024 04:26 22,7 °C 15,2 °C 56 % 89 % 1013,3 hPa 0,0 l/m² 2,4 km/h (1 Bft) O-SO 106 ° 0 min 0 W/m² 13,4 °C 15,2 °C 4,8 km/h (1 Bft)
24.08.2024 04:28 22,7 °C 15,1 °C 56 % 90 % 1013,3 hPa 0,0 l/m² 1,0 km/h (0 Bft) O-SO 106 ° 0 min 0 W/m² 13,5 °C 15,1 °C 3,2 km/h (1 Bft)
24.08.2024 04:30 22,7 °C 15,2 °C 56 % 90 % 1013,3 hPa 0,0 l/m² 0,9 km/h (0 Bft) O-SO 106 ° 0 min 0 W/m² 13,6 °C 15,2 °C 3,2 km/h (1 Bft)
24.08.2024 04:31 22,7 °C 15,2 °C 56 % 89 % 1013,3 hPa 0,0 l/m² 0,5 km/h (0 Bft) O-SO 106 ° 0 min 0 W/m² 13,4 °C 15,2 °C 1,6 km/h (1 Bft)
24.08.2024 04:32 22,6 °C 15,1 °C 56 % 89 % 1013,3 hPa 0,0 l/m² 0,9 km/h (0 Bft) O-SO 106 ° 0 min 0 W/m² 13,3 °C 15,1 °C 1,6 km/h (1 Bft)
24.08.2024 04:34 22,6 °C 15,1 °C 56 % 89 % 1013,2 hPa 0,0 l/m² 3,0 km/h (1 Bft) O-SO 106 ° 0 min 0 W/m² 13,3 °C 15,1 °C 4,8 km/h (1 Bft)
24.08.2024 04:36 22,7 °C 15,1 °C 56 % 89 % 1013,3 hPa 0,0 l/m² 1,5 km/h (1 Bft) O-SO 106 ° 0 min 0 W/m² 13,3 °C 15,1 °C 3,2 km/h (1 Bft)
24.08.2024 04:38 22,6 °C 15,1 °C 56 % 90 % 1013,2 hPa 0,0 l/m² 1,8 km/h (1 Bft) O-SO 106 ° 0 min 0 W/m² 13,5 °C 15,1 °C 3,2 km/h (1 Bft)
24.08.2024 04:40 22,6 °C 15,1 °C 56 % 90 % 1013,4 hPa 0,0 l/m² 3,1 km/h (1 Bft) O-SO 106 ° 0 min 0 W/m² 13,5 °C 15,1 °C 4,8 km/h (1 Bft)
24.08.2024 04:41 22,6 °C 15,1 °C 56 % 89 % 1013,4 hPa 0,0 l/m² 3,8 km/h (1 Bft) O-SO 106 ° 0 min 0 W/m² 13,3 °C 15,1 °C 4,8 km/h (1 Bft)
24.08.2024 04:42 22,6 °C 15,1 °C 56 % 89 % 1013,4 hPa 0,0 l/m² 3,9 km/h (1 Bft) O-SO 106 ° 0 min 0 W/m² 13,3 °C 15,1 °C 4,8 km/h (1 Bft)
24.08.2024 04:45 22,6 °C 15,1 °C 56 % 90 % 1013,3 hPa 0,0 l/m² 2,7 km/h (1 Bft) O-SO 106 ° 0 min 0 W/m² 13,5 °C 15,1 °C 4,8 km/h (1 Bft)
24.08.2024 04:47 22,6 °C 15,1 °C 56 % 90 % 1013,3 hPa 0,0 l/m² 1,3 km/h (1 Bft) O-SO 106 ° 0 min 0 W/m² 13,5 °C 15,1 °C 1,6 km/h (1 Bft)
24.08.2024 04:49 22,6 °C 15,1 °C 56 % 90 % 1013,3 hPa 0,0 l/m² 2,3 km/h (1 Bft) O-SO 105 ° 0 min 0 W/m² 13,5 °C 15,1 °C 4,8 km/h (1 Bft)
24.08.2024 04:50 22,6 °C 15,1 °C 56 % 90 % 1013,3 hPa 0,0 l/m² 2,6 km/h (1 Bft) O-SO 105 ° 0 min 0 W/m² 13,5 °C 15,1 °C 3,2 km/h (1 Bft)
24.08.2024 04:52 22,6 °C 15,2 °C 56 % 90 % 1013,3 hPa 0,0 l/m² 2,3 km/h (1 Bft) O-SO 105 ° 0 min 0 W/m² 13,6 °C 15,2 °C 4,8 km/h (1 Bft)
24.08.2024 04:53 22,6 °C 15,2 °C 56 % 90 % 1013,3 hPa 0,0 l/m² 1,5 km/h (1 Bft) O-SO 105 ° 0 min 0 W/m² 13,6 °C 15,2 °C 3,2 km/h (1 Bft)
24.08.2024 04:55 22,6 °C 15,3 °C 56 % 90 % 1013,3 hPa 0,0 l/m² 1,5 km/h (1 Bft) O-SO 105 ° 0 min 0 W/m² 13,7 °C 15,3 °C 3,2 km/h (1 Bft)
24.08.2024 04:57 22,6 °C 15,3 °C 56 % 90 % 1013,3 hPa 0,0 l/m² 1,8 km/h (1 Bft) O-SO 105 ° 0 min 0 W/m² 13,7 °C 15,3 °C 4,8 km/h (1 Bft)
24.08.2024 04:59 22,6 °C 15,4 °C 56 % 90 % 1013,3 hPa 0,0 l/m² 2,3 km/h (1 Bft) O-SO 104 ° 0 min 0 W/m² 13,8 °C 15,4 °C 4,8 km/h (1 Bft)
24.08.2024 05:00 22,6 °C 15,4 °C 56 % 90 % 1013,2 hPa 0,0 l/m² 0,4 km/h (0 Bft) O-SO 104 ° 0 min 0 W/m² 13,8 °C 15,4 °C 3,2 km/h (1 Bft)
24.08.2024 05:02 22,6 °C 15,5 °C 56 % 89 % 1013,2 hPa 0,0 l/m² 2,8 km/h (1 Bft) O 89 ° 0 min 0 W/m² 13,7 °C 15,5 °C 4,8 km/h (1 Bft)
24.08.2024 05:03 22,6 °C 15,4 °C 56 % 89 % 1013,3 hPa 0,0 l/m² 1,7 km/h (1 Bft) O 89 ° 0 min 0 W/m² 13,6 °C 15,4 °C 3,2 km/h (1 Bft)
24.08.2024 05:05 22,6 °C 15,6 °C 56 % 89 % 1013,2 hPa 0,0 l/m² 2,2 km/h (1 Bft) O 89 ° 0 min 0 W/m² 13,8 °C 15,6 °C 4,8 km/h (1 Bft)
24.08.2024 05:07 22,6 °C 15,6 °C 56 % 89 % 1013,2 hPa 0,0 l/m² 1,7 km/h (1 Bft) O 89 ° 0 min 0 W/m² 13,8 °C 15,6 °C 4,8 km/h (1 Bft)
24.08.2024 05:09 22,6 °C 15,8 °C 56 % 88 % 1013,2 hPa 0,0 l/m² 2,7 km/h (1 Bft) O 89 ° 0 min 0 W/m² 13,8 °C 15,8 °C 3,2 km/h (1 Bft)
24.08.2024 05:11 22,6 °C 15,9 °C 56 % 87 % 1013,2 hPa 0,0 l/m² 2,2 km/h (1 Bft) O 88 ° 0 min 0 W/m² 13,7 °C 15,9 °C 3,2 km/h (1 Bft)
24.08.2024 05:12 22,6 °C 15,9 °C 56 % 87 % 1013,2 hPa 0,0 l/m² 1,7 km/h (1 Bft) O 88 ° 0 min 0 W/m² 13,7 °C 15,9 °C 3,2 km/h (1 Bft)
24.08.2024 05:13 22,6 °C 16,0 °C 56 % 87 % 1013,2 hPa 0,0 l/m² 2,5 km/h (1 Bft) O 88 ° 0 min 0 W/m² 13,8 °C 16,0 °C 4,8 km/h (1 Bft)
24.08.2024 05:14 22,6 °C 16,1 °C 56 % 87 % 1013,2 hPa 0,0 l/m² 2,1 km/h (1 Bft) O 88 ° 0 min 0 W/m² 13,9 °C 16,1 °C 3,2 km/h (1 Bft)
24.08.2024 05:16 22,6 °C 16,1 °C 56 % 86 % 1013,3 hPa 0,0 l/m² 1,2 km/h (1 Bft) O 88 ° 0 min 0 W/m² 13,8 °C 16,1 °C 3,2 km/h (1 Bft)
24.08.2024 05:18 22,6 °C 16,1 °C 56 % 85 % 1013,3 hPa 0,0 l/m² 0,9 km/h (0 Bft) O 88 ° 0 min 0 W/m² 13,6 °C 16,1 °C 1,6 km/h (1 Bft)
24.08.2024 05:20 22,6 °C 15,9 °C 56 % 85 % 1013,3 hPa 0,0 l/m² 3,1 km/h (1 Bft) O 88 ° 0 min 0 W/m² 13,4 °C 15,9 °C 4,8 km/h (1 Bft)
24.08.2024 05:21 22,6 °C 15,8 °C 56 % 86 % 1013,3 hPa 0,0 l/m² 3,4 km/h (1 Bft) O 87 ° 0 min 0 W/m² 13,5 °C 15,8 °C 4,8 km/h (1 Bft)
24.08.2024 05:22 22,6 °C 15,8 °C 56 % 86 % 1013,3 hPa 0,0 l/m² 2,9 km/h (1 Bft) O 87 ° 0 min 0 W/m² 13,5 °C 15,8 °C 3,2 km/h (1 Bft)
24.08.2024 05:24 22,6 °C 15,8 °C 56 % 86 % 1013,4 hPa 0,0 l/m² 1,1 km/h (1 Bft) O 87 ° 0 min 0 W/m² 13,5 °C 15,8 °C 3,2 km/h (1 Bft)
24.08.2024 05:26 22,6 °C 15,8 °C 56 % 86 % 1013,3 hPa 0,0 l/m² 0,4 km/h (0 Bft) O 87 ° 0 min 0 W/m² 13,5 °C 15,8 °C 1,6 km/h (1 Bft)
24.08.2024 05:28 22,6 °C 15,7 °C 56 % 86 % 1013,4 hPa 0,0 l/m² 0,7 km/h (0 Bft) O 87 ° 0 min 0 W/m² 13,4 °C 15,7 °C 3,2 km/h (1 Bft)
24.08.2024 05:30 22,6 °C 15,6 °C 56 % 86 % 1013,3 hPa 0,0 l/m² 1,5 km/h (1 Bft) O 87 ° 0 min 0 W/m² 13,3 °C 15,6 °C 3,2 km/h (1 Bft)
24.08.2024 05:31 22,6 °C 15,5 °C 56 % 87 % 1013,3 hPa 0,0 l/m² 1,8 km/h (1 Bft) O 87 ° 0 min 0 W/m² 13,3 °C 15,5 °C 3,2 km/h (1 Bft)
24.08.2024 05:32 22,6 °C 15,4 °C 56 % 87 % 1013,3 hPa 0,0 l/m² 2,1 km/h (1 Bft) O 87 ° 0 min 0 W/m² 13,2 °C 15,4 °C 4,8 km/h (1 Bft)
24.08.2024 05:33 22,6 °C 15,4 °C 56 % 87 % 1013,3 hPa 0,0 l/m² 3,0 km/h (1 Bft) O 87 ° 0 min 0 W/m² 13,2 °C 15,4 °C 4,8 km/h (1 Bft)
24.08.2024 05:35 22,6 °C 15,4 °C 56 % 87 % 1013,3 hPa 0,0 l/m² 2,7 km/h (1 Bft) O 86 ° 0 min 0 W/m² 13,2 °C 15,4 °C 4,8 km/h (1 Bft)
24.08.2024 05:37 22,6 °C 15,6 °C 56 % 87 % 1013,3 hPa 0,0 l/m² 2,1 km/h (1 Bft) O 86 ° 0 min 0 W/m² 13,4 °C 15,6 °C 3,2 km/h (1 Bft)
24.08.2024 05:39 22,6 °C 15,7 °C 56 % 87 % 1013,3 hPa 0,0 l/m² 2,3 km/h (1 Bft) O 86 ° 0 min 0 W/m² 13,5 °C 15,7 °C 3,2 km/h (1 Bft)
24.08.2024 05:40 22,6 °C 15,8 °C 56 % 86 % 1013,3 hPa 0,0 l/m² 1,2 km/h (1 Bft) O 86 ° 0 min 0 W/m² 13,5 °C 15,8 °C 3,2 km/h (1 Bft)
24.08.2024 05:42 22,6 °C 15,9 °C 56 % 86 % 1013,3 hPa 0,0 l/m² 1,3 km/h (1 Bft) O 86 ° 0 min 0 W/m² 13,6 °C 15,9 °C 1,6 km/h (1 Bft)
24.08.2024 05:43 22,6 °C 16,0 °C 56 % 86 % 1013,3 hPa 0,0 l/m² 0,6 km/h (0 Bft) O 86 ° 0 min 0 W/m² 13,7 °C 16,0 °C 1,6 km/h (1 Bft)
24.08.2024 05:45 22,6 °C 16,0 °C 56 % 85 % 1013,3 hPa 0,0 l/m² 0,8 km/h (0 Bft) O 86 ° 0 min 0 W/m² 13,5 °C 16,0 °C 1,6 km/h (1 Bft)
24.08.2024 05:47 22,6 °C 15,9 °C 56 % 85 % 1013,3 hPa 0,0 l/m² 0,9 km/h (0 Bft) O 86 ° 0 min 0 W/m² 13,4 °C 15,9 °C 3,2 km/h (1 Bft)
24.08.2024 05:49 22,6 °C 15,7 °C 56 % 85 % 1013,3 hPa 0,0 l/m² 0,0 km/h (0 Bft) O 86 ° 0 min 0 W/m² 13,2 °C 15,7 °C 0,0 km/h (0 Bft)
24.08.2024 05:50 22,6 °C 15,7 °C 56 % 86 % 1013,3 hPa 0,0 l/m² 0,1 km/h (0 Bft) O 86 ° 0 min 0 W/m² 13,4 °C 15,7 °C 1,6 km/h (1 Bft)
24.08.2024 05:52 22,5 °C 15,6 °C 56 % 86 % 1013,3 hPa 0,0 l/m² 1,5 km/h (1 Bft) O 86 ° 0 min 0 W/m² 13,3 °C 15,6 °C 3,2 km/h (1 Bft)
24.08.2024 05:54 22,6 °C 15,4 °C 56 % 87 % 1013,3 hPa 0,0 l/m² 2,7 km/h (1 Bft) O 86 ° 0 min 0 W/m² 13,2 °C 15,4 °C 3,2 km/h (1 Bft)
24.08.2024 05:56 22,6 °C 15,3 °C 56 % 87 % 1013,3 hPa 0,0 l/m² 2,4 km/h (1 Bft) O 86 ° 0 min 0 W/m² 13,1 °C 15,3 °C 3,2 km/h (1 Bft)
24.08.2024 05:58 22,6 °C 15,3 °C 56 % 87 % 1013,3 hPa 0,0 l/m² 2,4 km/h (1 Bft) O 86 ° 0 min 0 W/m² 13,1 °C 15,3 °C 3,2 km/h (1 Bft)
24.08.2024 06:00 22,5 °C 15,3 °C 56 % 87 % 1013,2 hPa 0,0 l/m² 2,0 km/h (1 Bft) O 86 ° 0 min 0 W/m² 13,1 °C 15,3 °C 3,2 km/h (1 Bft)
24.08.2024 06:01 22,5 °C 15,3 °C 56 % 87 % 1013,2 hPa 0,0 l/m² 1,7 km/h (1 Bft) O 86 ° 0 min 0 W/m² 13,1 °C 15,3 °C 3,2 km/h (1 Bft)
24.08.2024 06:03 22,6 °C 15,4 °C 56 % 87 % 1013,3 hPa 0,0 l/m² 0,6 km/h (0 Bft) O 86 ° 0 min 0 W/m² 13,2 °C 15,4 °C 3,2 km/h (1 Bft)
24.08.2024 06:05 22,5 °C 15,4 °C 56 % 87 % 1013,3 hPa 0,0 l/m² 0,1 km/h (0 Bft) O 86 ° 0 min 0 W/m² 13,2 °C 15,4 °C 1,6 km/h (1 Bft)
24.08.2024 06:07 22,5 °C 15,3 °C 56 % 87 % 1013,3 hPa 0,0 l/m² 0,4 km/h (0 Bft) O 86 ° 0 min 0 W/m² 13,1 °C 15,3 °C 1,6 km/h (1 Bft)
24.08.2024 06:09 22,6 °C 15,2 °C 56 % 87 % 1013,3 hPa 0,0 l/m² 2,9 km/h (1 Bft) O 86 ° 0 min 0 W/m² 13,0 °C 15,2 °C 4,8 km/h (1 Bft)
24.08.2024 06:11 22,5 °C 15,2 °C 56 % 87 % 1013,3 hPa 0,0 l/m² 0,9 km/h (0 Bft) O 86 ° 0 min 0 W/m² 13,0 °C 15,2 °C 1,6 km/h (1 Bft)
24.08.2024 06:12 22,5 °C 15,1 °C 56 % 88 % 1013,2 hPa 0,0 l/m² 0,5 km/h (0 Bft) O 86 ° 0 min 0 W/m² 13,1 °C 15,1 °C 1,6 km/h (1 Bft)
24.08.2024 06:13 22,5 °C 15,1 °C 56 % 88 % 1013,2 hPa 0,0 l/m² 0,2 km/h (0 Bft) O 86 ° 0 min 0 W/m² 13,1 °C 15,1 °C 1,6 km/h (1 Bft)
24.08.2024 06:15 22,5 °C 15,2 °C 56 % 88 % 1013,3 hPa 0,0 l/m² 0,0 km/h (0 Bft) O 86 ° 0 min 0 W/m² 13,2 °C 15,2 °C 0,0 km/h (0 Bft)
24.08.2024 06:17 22,5 °C 15,1 °C 56 % 88 % 1013,2 hPa 0,0 l/m² 0,0 km/h (0 Bft) O 86 ° 0 min 5 W/m² 13,1 °C 15,1 °C 0,0 km/h (0 Bft)
24.08.2024 06:19 22,5 °C 15,1 °C 56 % 88 % 1013,3 hPa 0,0 l/m² 0,0 km/h (0 Bft) O 86 ° 0 min 5 W/m² 13,1 °C 15,1 °C 0,0 km/h (0 Bft)
24.08.2024 06:21 22,5 °C 15,1 °C 56 % 88 % 1013,3 hPa 0,0 l/m² 0,0 km/h (0 Bft) O 86 ° 0 min 5 W/m² 13,1 °C 15,1 °C 0,0 km/h (0 Bft)
24.08.2024 06:22 22,5 °C 15,1 °C 56 % 88 % 1013,3 hPa 0,0 l/m² 0,0 km/h (0 Bft) O 86 ° 0 min 5 W/m² 13,1 °C 15,1 °C 0,0 km/h (0 Bft)
24.08.2024 06:23 22,5 °C 15,0 °C 56 % 88 % 1013,3 hPa 0,0 l/m² 0,0 km/h (0 Bft) O 86 ° 0 min 7 W/m² 13,0 °C 15,0 °C 0,0 km/h (0 Bft)
24.08.2024 06:25 22,5 °C 14,9 °C 56 % 88 % 1013,2 hPa 0,0 l/m² 0,0 km/h (0 Bft) O 86 ° 0 min 7 W/m² 12,9 °C 14,9 °C 0,0 km/h (0 Bft)
24.08.2024 06:27 22,6 °C 14,9 °C 56 % 88 % 1013,3 hPa 0,0 l/m² 0,1 km/h (0 Bft) O 86 ° 0 min 9 W/m² 12,9 °C 14,9 °C 1,6 km/h (1 Bft)
24.08.2024 06:29 22,6 °C 14,9 °C 56 % 89 % 1013,3 hPa 0,0 l/m² 0,0 km/h (0 Bft) O 86 ° 0 min 11 W/m² 13,1 °C 14,9 °C 1,6 km/h (1 Bft)
24.08.2024 06:31 22,6 °C 14,9 °C 56 % 89 % 1013,3 hPa 0,0 l/m² 1,4 km/h (1 Bft) O 86 ° 0 min 12 W/m² 13,1 °C 14,9 °C 3,2 km/h (1 Bft)
24.08.2024 06:32 22,6 °C 14,9 °C 56 % 89 % 1013,3 hPa 0,0 l/m² 2,4 km/h (1 Bft) O 86 ° 0 min 14 W/m² 13,1 °C 14,9 °C 3,2 km/h (1 Bft)
24.08.2024 06:33 22,6 °C 14,9 °C 56 % 89 % 1013,3 hPa 0,0 l/m² 3,5 km/h (1 Bft) O 86 ° 0 min 14 W/m² 13,1 °C 14,9 °C 4,8 km/h (1 Bft)
24.08.2024 06:35 22,6 °C 14,9 °C 56 % 89 % 1013,4 hPa 0,0 l/m² 2,9 km/h (1 Bft) O 86 ° 0 min 16 W/m² 13,1 °C 14,9 °C 4,8 km/h (1 Bft)
24.08.2024 06:37 22,6 °C 14,9 °C 56 % 89 % 1013,3 hPa 0,0 l/m² 3,1 km/h (1 Bft) O 86 ° 0 min 16 W/m² 13,1 °C 14,9 °C 4,8 km/h (1 Bft)
24.08.2024 06:39 22,6 °C 14,9 °C 56 % 89 % 1013,3 hPa 0,0 l/m² 1,8 km/h (1 Bft) O 86 ° 0 min 18 W/m² 13,1 °C 14,9 °C 3,2 km/h (1 Bft)
24.08.2024 06:41 22,6 °C 14,9 °C 56 % 89 % 1013,3 hPa 0,0 l/m² 2,0 km/h (1 Bft) O 86 ° 0 min 19 W/m² 13,1 °C 14,9 °C 3,2 km/h (1 Bft)
24.08.2024 06:43 22,6 °C 15,0 °C 56 % 90 % 1013,4 hPa 0,0 l/m² 1,5 km/h (1 Bft) O 86 ° 0 min 21 W/m² 13,4 °C 15,0 °C 3,2 km/h (1 Bft)
24.08.2024 06:44 22,6 °C 15,1 °C 56 % 90 % 1013,3 hPa 0,0 l/m² 1,6 km/h (1 Bft) O 86 ° 0 min 21 W/m² 13,5 °C 15,1 °C 3,2 km/h (1 Bft)
24.08.2024 06:45 22,6 °C 15,1 °C 56 % 90 % 1013,4 hPa 0,0 l/m² 1,9 km/h (1 Bft) O 86 ° 0 min 23 W/m² 13,5 °C 15,1 °C 3,2 km/h (1 Bft)
24.08.2024 06:46 22,6 °C 15,1 °C 56 % 89 % 1013,4 hPa 0,0 l/m² 3,2 km/h (1 Bft) O 85 ° 0 min 23 W/m² 13,3 °C 15,1 °C 4,8 km/h (1 Bft)
24.08.2024 06:48 22,6 °C 15,2 °C 56 % 89 % 1013,3 hPa 0,0 l/m² 0,4 km/h (0 Bft) O 85 ° 0 min 25 W/m² 13,4 °C 15,2 °C 1,6 km/h (1 Bft)
24.08.2024 06:50 22,6 °C 15,2 °C 56 % 89 % 1013,4 hPa 0,0 l/m² 0,5 km/h (0 Bft) O 85 ° 0 min 25 W/m² 13,4 °C 15,2 °C 1,6 km/h (1 Bft)
24.08.2024 06:51 22,6 °C 15,2 °C 56 % 89 % 1013,4 hPa 0,0 l/m² 1,5 km/h (1 Bft) O 85 ° 0 min 26 W/m² 13,4 °C 15,2 °C 3,2 km/h (1 Bft)
24.08.2024 06:53 22,6 °C 15,3 °C 56 % 89 % 1013,4 hPa 0,0 l/m² 1,4 km/h (1 Bft) O 85 ° 0 min 26 W/m² 13,5 °C 15,3 °C 3,2 km/h (1 Bft)
24.08.2024 06:54 22,6 °C 15,3 °C 56 % 89 % 1013,4 hPa 0,0 l/m² 2,4 km/h (1 Bft) O 85 ° 0 min 28 W/m² 13,5 °C 15,3 °C 4,8 km/h (1 Bft)
24.08.2024 06:56 22,6 °C 15,3 °C 56 % 89 % 1013,4 hPa 0,0 l/m² 2,0 km/h (1 Bft) O 85 ° 0 min 28 W/m² 13,5 °C 15,3 °C 3,2 km/h (1 Bft)
24.08.2024 06:58 22,6 °C 15,3 °C 56 % 89 % 1013,5 hPa 0,0 l/m² 1,7 km/h (1 Bft) O 85 ° 0 min 30 W/m² 13,5 °C 15,3 °C 3,2 km/h (1 Bft)
24.08.2024 07:00 22,6 °C 15,4 °C 56 % 89 % 1013,4 hPa 0,0 l/m² 0,1 km/h (0 Bft) O 85 ° 0 min 32 W/m² 13,6 °C 15,4 °C 1,6 km/h (1 Bft)
24.08.2024 07:01 22,6 °C 15,4 °C 56 % 89 % 1013,4 hPa 0,0 l/m² 0,0 km/h (0 Bft) O 85 ° 0 min 32 W/m² 13,6 °C 15,4 °C 0,0 km/h (0 Bft)
24.08.2024 07:03 22,6 °C 15,4 °C 56 % 89 % 1013,4 hPa 0,0 l/m² 1,1 km/h (1 Bft) O 85 ° 0 min 33 W/m² 13,6 °C 15,4 °C 3,2 km/h (1 Bft)
24.08.2024 07:04 22,6 °C 15,4 °C 56 % 89 % 1013,4 hPa 0,0 l/m² 1,6 km/h (1 Bft) O 85 ° 0 min 33 W/m² 13,6 °C 15,4 °C 3,2 km/h (1 Bft)
24.08.2024 07:06 22,6 °C 15,5 °C 56 % 89 % 1013,5 hPa 0,0 l/m² 3,6 km/h (1 Bft) O 85 ° 0 min 35 W/m² 13,7 °C 15,5 °C 4,8 km/h (1 Bft)
24.08.2024 07:08 22,6 °C 15,4 °C 56 % 89 % 1013,5 hPa 0,0 l/m² 3,0 km/h (1 Bft) O 85 ° 0 min 37 W/m² 13,6 °C 15,4 °C 4,8 km/h (1 Bft)
24.08.2024 07:10 22,6 °C 15,5 °C 56 % 89 % 1013,5 hPa 0,0 l/m² 1,7 km/h (1 Bft) O 85 ° 0 min 39 W/m² 13,7 °C 15,5 °C 4,8 km/h (1 Bft)
24.08.2024 07:11 22,6 °C 15,6 °C 56 % 89 % 1013,4 hPa 0,0 l/m² 0,7 km/h (0 Bft) O 85 ° 0 min 39 W/m² 13,8 °C 15,6 °C 1,6 km/h (1 Bft)
24.08.2024 07:13 22,6 °C 15,7 °C 56 % 89 % 1013,4 hPa 0,0 l/m² 1,9 km/h (1 Bft) O 85 ° 0 min 40 W/m² 13,9 °C 15,7 °C 3,2 km/h (1 Bft)
24.08.2024 07:14 22,6 °C 15,7 °C 56 % 89 % 1013,4 hPa 0,0 l/m² 5,4 km/h (2 Bft) O-NO 60 ° 0 min 40 W/m² 13,9 °C 15,7 °C 8,0 km/h (2 Bft)
24.08.2024 07:16 22,6 °C 15,8 °C 56 % 89 % 1013,4 hPa 0,0 l/m² 4,7 km/h (1 Bft) O-NO 61 ° 0 min 42 W/m² 14,0 °C 15,8 °C 6,4 km/h (2 Bft)
24.08.2024 07:18 22,6 °C 16,1 °C 56 % 88 % 1013,4 hPa 0,0 l/m² 4,8 km/h (1 Bft) O-NO 60 ° 0 min 44 W/m² 14,1 °C 16,1 °C 8,0 km/h (2 Bft)
24.08.2024 07:20 22,6 °C 16,3 °C 56 % 88 % 1013,4 hPa 0,0 l/m² 3,7 km/h (1 Bft) O-NO 57 ° 0 min 49 W/m² 14,3 °C 16,3 °C 8,0 km/h (2 Bft)
24.08.2024 07:21 22,6 °C 16,4 °C 56 % 87 % 1013,5 hPa 0,0 l/m² 4,0 km/h (1 Bft) O-NO 58 ° 0 min 51 W/m² 14,2 °C 16,4 °C 4,8 km/h (1 Bft)
24.08.2024 07:23 22,6 °C 16,7 °C 56 % 86 % 1013,5 hPa 0,0 l/m² 3,9 km/h (1 Bft) O-NO 63 ° 2 min 53 W/m² 14,3 °C 16,7 °C 6,4 km/h (2 Bft)
24.08.2024 07:24 22,6 °C 16,8 °C 56 % 86 % 1013,4 hPa 0,0 l/m² 2,5 km/h (1 Bft) O-NO 62 ° 1 min 54 W/m² 14,4 °C 16,8 °C 3,2 km/h (1 Bft)
24.08.2024 07:26 22,6 °C 17,1 °C 56 % 85 % 1013,4 hPa 0,0 l/m² 3,5 km/h (1 Bft) O-NO 62 ° 2 min 67 W/m² 14,6 °C 17,1 °C 4,8 km/h (1 Bft)
24.08.2024 07:28 22,6 °C 17,2 °C 56 % 84 % 1013,5 hPa 0,0 l/m² 1,3 km/h (1 Bft) O-NO 62 ° 2 min 58 W/m² 14,5 °C 17,2 °C 3,2 km/h (1 Bft)
24.08.2024 07:30 22,6 °C 17,4 °C 56 % 83 % 1013,5 hPa 0,0 l/m² 1,8 km/h (1 Bft) O-NO 62 ° 2 min 79 W/m² 14,5 °C 17,4 °C 4,8 km/h (1 Bft)
24.08.2024 07:31 22,6 °C 17,6 °C 56 % 83 % 1013,4 hPa 0,0 l/m² 1,4 km/h (1 Bft) O-NO 62 ° 1 min 90 W/m² 14,7 °C 17,6 °C 3,2 km/h (1 Bft)
24.08.2024 07:33 22,6 °C 17,7 °C 56 % 82 % 1013,5 hPa 0,0 l/m² 1,4 km/h (1 Bft) O-NO 62 ° 2 min 93 W/m² 14,6 °C 17,7 °C 3,2 km/h (1 Bft)
24.08.2024 07:34 22,6 °C 17,8 °C 56 % 82 % 1013,5 hPa 0,0 l/m² 0,9 km/h (0 Bft) O-NO 62 ° 1 min 95 W/m² 14,7 °C 17,8 °C 3,2 km/h (1 Bft)
24.08.2024 07:36 22,6 °C 18,0 °C 56 % 81 % 1013,4 hPa 0,0 l/m² 1,8 km/h (1 Bft) O-NO 62 ° 2 min 98 W/m² 14,7 °C 18,0 °C 3,2 km/h (1 Bft)
24.08.2024 07:38 22,6 °C 18,2 °C 56 % 81 % 1013,5 hPa 0,0 l/m² 1,3 km/h (1 Bft) O-NO 62 ° 2 min 105 W/m² 14,9 °C 18,2 °C 3,2 km/h (1 Bft)
24.08.2024 07:40 22,6 °C 18,3 °C 56 % 80 % 1013,5 hPa 0,0 l/m² 1,6 km/h (1 Bft) O-NO 62 ° 2 min 111 W/m² 14,8 °C 18,3 °C 4,8 km/h (1 Bft)
24.08.2024 07:41 22,6 °C 18,4 °C 56 % 80 % 1013,4 hPa 0,0 l/m² 1,1 km/h (1 Bft) O-NO 62 ° 1 min 114 W/m² 14,9 °C 18,4 °C 3,2 km/h (1 Bft)
24.08.2024 07:43 22,6 °C 18,6 °C 56 % 79 % 1013,4 hPa 0,0 l/m² 0,4 km/h (0 Bft) O-NO 62 ° 2 min 120 W/m² 14,9 °C 18,6 °C 3,2 km/h (1 Bft)
24.08.2024 07:44 22,6 °C 18,6 °C 56 % 79 % 1013,4 hPa 0,0 l/m² 0,7 km/h (0 Bft) O-NO 62 ° 1 min 123 W/m² 14,9 °C 18,6 °C 1,6 km/h (1 Bft)
24.08.2024 07:46 22,6 °C 18,7 °C 56 % 80 % 1013,4 hPa 0,0 l/m² 0,6 km/h (0 Bft) O-NO 62 ° 2 min 127 W/m² 15,2 °C 18,7 °C 1,6 km/h (1 Bft)
24.08.2024 07:48 22,6 °C 18,8 °C 56 % 81 % 1013,4 hPa 0,0 l/m² 2,8 km/h (1 Bft) O-NO 62 ° 2 min 128 W/m² 15,5 °C 18,8 °C 4,8 km/h (1 Bft)
24.08.2024 07:50 22,6 °C 18,9 °C 56 % 81 % 1013,4 hPa 0,0 l/m² 2,4 km/h (1 Bft) O-NO 62 ° 2 min 132 W/m² 15,6 °C 18,9 °C 3,2 km/h (1 Bft)
24.08.2024 07:51 22,6 °C 18,9 °C 56 % 81 % 1013,4 hPa 0,0 l/m² 2,5 km/h (1 Bft) O-NO 62 ° 1 min 132 W/m² 15,6 °C 18,9 °C 4,8 km/h (1 Bft)
24.08.2024 07:53 22,6 °C 18,9 °C 56 % 82 % 1013,4 hPa 0,0 l/m² 1,5 km/h (1 Bft) O-NO 62 ° 2 min 134 W/m² 15,8 °C 18,9 °C 3,2 km/h (1 Bft)
24.08.2024 07:54 22,6 °C 18,9 °C 56 % 82 % 1013,5 hPa 0,0 l/m² 1,5 km/h (1 Bft) O-NO 62 ° 1 min 134 W/m² 15,8 °C 18,9 °C 3,2 km/h (1 Bft)
24.08.2024 07:56 22,6 °C 19,0 °C 56 % 80 % 1013,5 hPa 0,0 l/m² 1,1 km/h (1 Bft) O-NO 62 ° 2 min 135 W/m² 15,5 °C 19,0 °C 3,2 km/h (1 Bft)
24.08.2024 07:58 22,6 °C 19,1 °C 56 % 80 % 1013,4 hPa 0,0 l/m² 2,0 km/h (1 Bft) O-NO 62 ° 2 min 137 W/m² 15,6 °C 19,1 °C 4,8 km/h (1 Bft)
24.08.2024 08:00 22,6 °C 19,2 °C 56 % 78 % 1013,4 hPa 0,0 l/m² 2,2 km/h (1 Bft) O-NO 62 ° 2 min 141 W/m² 15,3 °C 19,2 °C 4,8 km/h (1 Bft)
24.08.2024 08:01 22,6 °C 19,3 °C 56 % 78 % 1013,4 hPa 0,0 l/m² 2,1 km/h (1 Bft) O-NO 62 ° 1 min 144 W/m² 15,4 °C 19,3 °C 3,2 km/h (1 Bft)
24.08.2024 08:03 22,6 °C 19,4 °C 56 % 78 % 1013,4 hPa 0,0 l/m² 2,7 km/h (1 Bft) O-NO 60 ° 2 min 148 W/m² 15,5 °C 19,4 °C 4,8 km/h (1 Bft)
24.08.2024 08:05 22,6 °C 19,6 °C 56 % 77 % 1013,5 hPa 0,0 l/m² 0,4 km/h (0 Bft) O-NO 60 ° 2 min 153 W/m² 15,5 °C 19,6 °C 1,6 km/h (1 Bft)
24.08.2024 08:07 22,6 °C 19,8 °C 56 % 77 % 1013,4 hPa 0,0 l/m² 0,4 km/h (0 Bft) O-NO 60 ° 2 min 160 W/m² 15,6 °C 19,8 °C 3,2 km/h (1 Bft)
24.08.2024 08:09 22,6 °C 20,0 °C 56 % 77 % 1013,5 hPa 0,0 l/m² 1,4 km/h (1 Bft) O-NO 60 ° 2 min 165 W/m² 15,8 °C 20,0 °C 3,2 km/h (1 Bft)
24.08.2024 08:11 22,6 °C 20,1 °C 56 % 75 % 1013,5 hPa 0,0 l/m² 2,1 km/h (1 Bft) O-NO 60 ° 2 min 172 W/m² 15,5 °C 20,1 °C 3,2 km/h (1 Bft)
24.08.2024 08:13 22,6 °C 20,3 °C 56 % 76 % 1013,5 hPa 0,0 l/m² 2,4 km/h (1 Bft) O-NO 60 ° 2 min 186 W/m² 15,9 °C 20,3 °C 4,8 km/h (1 Bft)
24.08.2024 08:15 22,7 °C 20,4 °C 57 % 75 % 1013,4 hPa 0,0 l/m² 1,6 km/h (1 Bft) O-NO 60 ° 2 min 195 W/m² 15,8 °C 20,4 °C 3,2 km/h (1 Bft)
24.08.2024 08:17 22,6 °C 20,5 °C 57 % 75 % 1013,4 hPa 0,0 l/m² 1,5 km/h (1 Bft) O-NO 60 ° 2 min 207 W/m² 15,9 °C 20,5 °C 3,2 km/h (1 Bft)
24.08.2024 08:19 22,7 °C 20,7 °C 57 % 75 % 1013,4 hPa 0,0 l/m² 2,0 km/h (1 Bft) O-NO 60 ° 2 min 225 W/m² 16,1 °C 20,7 °C 4,8 km/h (1 Bft)
24.08.2024 08:21 22,7 °C 20,7 °C 57 % 74 % 1013,4 hPa 0,0 l/m² 4,0 km/h (1 Bft) O-NO 61 ° 2 min 236 W/m² 15,9 °C 20,7 °C 6,4 km/h (2 Bft)
24.08.2024 08:23 22,6 °C 20,7 °C 57 % 74 % 1013,5 hPa 0,0 l/m² 3,9 km/h (1 Bft) O-NO 63 ° 2 min 246 W/m² 15,9 °C 20,7 °C 6,4 km/h (2 Bft)
24.08.2024 08:25 22,7 °C 20,7 °C 57 % 75 % 1013,4 hPa 0,0 l/m² 4,1 km/h (1 Bft) O-NO 65 ° 2 min 262 W/m² 16,1 °C 20,7 °C 6,4 km/h (2 Bft)
24.08.2024 08:27 22,6 °C 20,7 °C 57 % 74 % 1013,4 hPa 0,0 l/m² 3,7 km/h (1 Bft) O-NO 74 ° 2 min 269 W/m² 15,9 °C 20,7 °C 6,4 km/h (2 Bft)
24.08.2024 08:29 22,7 °C 20,8 °C 57 % 74 % 1013,3 hPa 0,0 l/m² 3,1 km/h (1 Bft) O-NO 69 ° 2 min 274 W/m² 16,0 °C 20,8 °C 4,8 km/h (1 Bft)
24.08.2024 08:31 22,7 °C 21,0 °C 57 % 73 % 1013,4 hPa 0,0 l/m² 3,3 km/h (1 Bft) O-NO 67 ° 2 min 283 W/m² 16,0 °C 21,0 °C 4,8 km/h (1 Bft)
24.08.2024 08:33 22,7 °C 21,2 °C 57 % 73 % 1013,4 hPa 0,0 l/m² 1,0 km/h (0 Bft) O-NO 67 ° 2 min 288 W/m² 16,2 °C 21,2 °C 3,2 km/h (1 Bft)
24.08.2024 08:35 22,7 °C 21,4 °C 57 % 73 % 1013,4 hPa 0,0 l/m² 1,9 km/h (1 Bft) O-NO 67 ° 2 min 294 W/m² 16,4 °C 21,4 °C 3,2 km/h (1 Bft)
24.08.2024 08:37 22,7 °C 21,5 °C 57 % 72 % 1013,4 hPa 0,0 l/m² 2,0 km/h (1 Bft) O-NO 67 ° 2 min 302 W/m² 16,2 °C 21,5 °C 4,8 km/h (1 Bft)
24.08.2024 08:39 22,7 °C 21,7 °C 57 % 72 % 1013,4 hPa 0,0 l/m² 1,4 km/h (1 Bft) O-NO 62 ° 2 min 308 W/m² 16,4 °C 21,7 °C 4,8 km/h (1 Bft)
24.08.2024 08:41 22,7 °C 21,7 °C 57 % 71 % 1013,4 hPa 0,0 l/m² 3,0 km/h (1 Bft) O-NO 62 ° 2 min 315 W/m² 16,2 °C 21,7 °C 4,8 km/h (1 Bft)
24.08.2024 08:43 22,7 °C 21,9 °C 57 % 71 % 1013,3 hPa 0,0 l/m² 2,1 km/h (1 Bft) O-NO 62 ° 2 min 320 W/m² 16,4 °C 21,9 °C 3,2 km/h (1 Bft)
24.08.2024 08:45 22,7 °C 21,9 °C 57 % 72 % 1013,2 hPa 0,0 l/m² 1,7 km/h (1 Bft) O-NO 61 ° 2 min 325 W/m² 16,6 °C 21,9 °C 4,8 km/h (1 Bft)
24.08.2024 08:47 22,7 °C 22,2 °C 57 % 71 % 1013,3 hPa 0,0 l/m² 2,9 km/h (1 Bft) NO 53 ° 2 min 330 W/m² 16,7 °C 22,2 °C 4,8 km/h (1 Bft)
24.08.2024 08:49 22,7 °C 22,4 °C 57 % 70 % 1013,3 hPa 0,0 l/m² 2,6 km/h (1 Bft) NO 53 ° 2 min 338 W/m² 16,7 °C 22,4 °C 4,8 km/h (1 Bft)
24.08.2024 08:51 22,7 °C 22,7 °C 57 % 69 % 1013,2 hPa 0,0 l/m² 3,5 km/h (1 Bft) NO 53 ° 2 min 343 W/m² 16,7 °C 22,7 °C 6,4 km/h (2 Bft)
24.08.2024 08:53 22,7 °C 22,8 °C 57 % 69 % 1013,2 hPa 0,0 l/m² 3,8 km/h (1 Bft) O 81 ° 2 min 348 W/m² 16,8 °C 22,8 °C 6,4 km/h (2 Bft)
24.08.2024 08:55 22,8 °C 23,1 °C 57 % 69 % 1013,2 hPa 0,0 l/m² 6,1 km/h (2 Bft) O 89 ° 2 min 357 W/m² 17,1 °C 23,1 °C 11,3 km/h (2 Bft)
24.08.2024 08:57 22,7 °C 23,2 °C 57 % 68 % 1013,1 hPa 0,0 l/m² 5,1 km/h (1 Bft) O-SO 108 ° 2 min 362 W/m² 17,0 °C 23,2 °C 6,4 km/h (2 Bft)
24.08.2024 08:59 22,8 °C 23,2 °C 57 % 68 % 1013,2 hPa 0,0 l/m² 4,5 km/h (1 Bft) O-SO 103 ° 2 min 366 W/m² 17,0 °C 23,2 °C 6,4 km/h (2 Bft)
24.08.2024 09:01 22,8 °C 23,3 °C 57 % 67 % 1013,2 hPa 0,0 l/m² 2,2 km/h (1 Bft) O-SO 103 ° 2 min 373 W/m² 16,8 °C 23,3 °C 4,8 km/h (1 Bft)
24.08.2024 09:03 22,8 °C 23,5 °C 58 % 67 % 1013,2 hPa 0,0 l/m² 0,0 km/h (0 Bft) O-SO 103 ° 2 min 378 W/m² 17,0 °C 23,5 °C 1,6 km/h (1 Bft)
24.08.2024 09:05 22,8 °C 23,7 °C 58 % 67 % 1013,2 hPa 0,0 l/m² 2,1 km/h (1 Bft) O-SO 103 ° 2 min 381 W/m² 17,2 °C 23,7 °C 4,8 km/h (1 Bft)
24.08.2024 09:07 22,8 °C 23,7 °C 58 % 67 % 1013,2 hPa 0,0 l/m² 2,0 km/h (1 Bft) O-SO 103 ° 2 min 387 W/m² 17,2 °C 23,7 °C 4,8 km/h (1 Bft)
24.08.2024 09:09 22,8 °C 23,8 °C 58 % 66 % 1013,2 hPa 0,0 l/m² 0,7 km/h (0 Bft) O-SO 104 ° 2 min 392 W/m² 17,1 °C 23,8 °C 3,2 km/h (1 Bft)
24.08.2024 09:11 22,8 °C 23,7 °C 58 % 66 % 1013,2 hPa 0,0 l/m² 0,2 km/h (0 Bft) O-SO 104 ° 2 min 403 W/m² 17,0 °C 23,7 °C 1,6 km/h (1 Bft)
24.08.2024 09:13 22,9 °C 23,7 °C 58 % 66 % 1013,2 hPa 0,0 l/m² 1,2 km/h (1 Bft) O-SO 113 ° 2 min 406 W/m² 17,0 °C 23,7 °C 4,8 km/h (1 Bft)
24.08.2024 09:15 22,8 °C 24,1 °C 58 % 67 % 1013,2 hPa 0,0 l/m² 3,6 km/h (1 Bft) W-SW 257 ° 2 min 411 W/m² 17,6 °C 24,1 °C 6,4 km/h (2 Bft)
24.08.2024 09:17 22,9 °C 24,3 °C 58 % 65 % 1013,2 hPa 0,0 l/m² 6,3 km/h (2 Bft) S-SW 200 ° 2 min 418 W/m² 17,3 °C 24,3 °C 16,1 km/h (3 Bft)
24.08.2024 09:19 22,9 °C 24,4 °C 58 % 64 % 1013,2 hPa 0,0 l/m² 12,7 km/h (3 Bft) S-SW 192 ° 2 min 422 W/m² 17,1 °C 23,0 °C 16,1 km/h (3 Bft)
24.08.2024 09:21 22,9 °C 24,7 °C 58 % 64 % 1013,2 hPa 0,0 l/m² 15,0 km/h (3 Bft) S-SW 209 ° 2 min 425 W/m² 17,4 °C 22,9 °C 22,5 km/h (4 Bft)
24.08.2024 09:23 22,9 °C 24,9 °C 58 % 64 % 1013,1 hPa 0,0 l/m² 11,2 km/h (2 Bft) S 188 ° 2 min 434 W/m² 17,6 °C 23,8 °C 16,1 km/h (3 Bft)
24.08.2024 09:25 22,9 °C 25,1 °C 58 % 63 % 1013,2 hPa 0,0 l/m² 10,7 km/h (2 Bft) S-SW 194 ° 2 min 438 W/m² 17,5 °C 24,1 °C 17,7 km/h (3 Bft)
24.08.2024 09:27 22,9 °C 25,3 °C 58 % 63 % 1013,1 hPa 0,0 l/m² 14,1 km/h (3 Bft) S-SW 196 ° 2 min 443 W/m² 17,7 °C 23,8 °C 22,5 km/h (4 Bft)
24.08.2024 09:29 22,9 °C 25,4 °C 58 % 63 % 1013,1 hPa 0,0 l/m² 14,0 km/h (3 Bft) S-SW 213 ° 2 min 448 W/m² 17,8 °C 23,9 °C 20,9 km/h (4 Bft)
24.08.2024 09:30 22,8 °C 25,3 °C 58 % 62 % 1013,1 hPa 0,0 l/m² 15,7 km/h (3 Bft) S-SW 196 ° 1 min 452 W/m² 17,5 °C 23,6 °C 19,3 km/h (3 Bft)
24.08.2024 09:31 22,8 °C 25,4 °C 58 % 63 % 1013,1 hPa 0,0 l/m² 11,6 km/h (2 Bft) S 175 ° 1 min 455 W/m² 17,8 °C 24,3 °C 14,5 km/h (3 Bft)
24.08.2024 09:33 22,9 °C 25,5 °C 58 % 62 % 1013,1 hPa 0,0 l/m² 10,6 km/h (2 Bft) S 189 ° 2 min 461 W/m² 17,7 °C 24,6 °C 14,5 km/h (3 Bft)
24.08.2024 09:35 22,8 °C 25,6 °C 58 % 62 % 1013,1 hPa 0,0 l/m² 10,1 km/h (2 Bft) S 183 ° 2 min 466 W/m² 17,8 °C 24,8 °C 14,5 km/h (3 Bft)
24.08.2024 09:37 22,9 °C 25,6 °C 58 % 62 % 1013,1 hPa 0,0 l/m² 14,8 km/h (3 Bft) S 188 ° 2 min 471 W/m² 17,8 °C 24,1 °C 27,4 km/h (5 Bft)
24.08.2024 09:39 22,9 °C 25,7 °C 58 % 61 % 1013,1 hPa 0,0 l/m² 16,1 km/h (3 Bft) S-SW 210 ° 2 min 476 W/m² 17,6 °C 24,0 °C 24,1 km/h (4 Bft)
24.08.2024 09:41 22,9 °C 25,8 °C 58 % 61 % 1013,1 hPa 0,0 l/m² 13,4 km/h (3 Bft) S 184 ° 2 min 482 W/m² 17,7 °C 24,5 °C 19,3 km/h (3 Bft)
24.08.2024 09:43 22,9 °C 25,9 °C 58 % 61 % 1013,1 hPa 0,0 l/m² 14,1 km/h (3 Bft) S-SO 159 ° 2 min 487 W/m² 17,8 °C 24,5 °C 22,5 km/h (4 Bft)
24.08.2024 09:45 22,9 °C 26,1 °C 58 % 61 % 1013,1 hPa 0,0 l/m² 16,0 km/h (3 Bft) S 191 ° 2 min 489 W/m² 18,0 °C 24,5 °C 20,9 km/h (4 Bft)
24.08.2024 09:47 22,8 °C 26,0 °C 58 % 60 % 1013,1 hPa 0,0 l/m² 17,8 km/h (3 Bft) S-SW 209 ° 2 min 496 W/m² 17,6 °C 24,2 °C 22,5 km/h (4 Bft)
24.08.2024 09:48 22,8 °C 25,9 °C 58 % 60 % 1013,1 hPa 0,0 l/m² 17,7 km/h (3 Bft) S-SW 209 ° 1 min 497 W/m² 17,5 °C 24,1 °C 22,5 km/h (4 Bft)
24.08.2024 09:50 22,9 °C 26,0 °C 58 % 61 % 1013,1 hPa 0,0 l/m² 17,0 km/h (3 Bft) S-SW 192 ° 2 min 499 W/m² 17,9 °C 24,3 °C 25,7 km/h (4 Bft)
24.08.2024 09:52 22,9 °C 25,9 °C 58 % 61 % 1013,1 hPa 0,0 l/m² 15,9 km/h (3 Bft) S 190 ° 2 min 503 W/m² 17,8 °C 24,3 °C 22,5 km/h (4 Bft)
24.08.2024 09:54 22,9 °C 26,1 °C 58 % 61 % 1013,0 hPa 0,0 l/m² 15,1 km/h (3 Bft) S-SW 211 ° 2 min 508 W/m² 18,0 °C 24,6 °C 22,5 km/h (4 Bft)
24.08.2024 09:56 22,9 °C 26,3 °C 58 % 61 % 1013,1 hPa 0,0 l/m² 14,5 km/h (3 Bft) S 186 ° 2 min 512 W/m² 18,2 °C 24,9 °C 20,9 km/h (4 Bft)
24.08.2024 09:58 22,9 °C 26,4 °C 58 % 60 % 1013,0 hPa 0,0 l/m² 18,3 km/h (3 Bft) S-SO 168 ° 2 min 517 W/m² 18,0 °C 24,6 °C 33,8 km/h (5 Bft)
24.08.2024 10:00 22,8 °C 26,4 °C 58 % 59 % 1013,1 hPa 0,0 l/m² 19,0 km/h (3 Bft) S 189 ° 2 min 522 W/m² 17,7 °C 24,6 °C 32,2 km/h (5 Bft)
24.08.2024 10:02 22,9 °C 26,3 °C 58 % 59 % 1013,0 hPa 0,0 l/m² 19,5 km/h (3 Bft) S 177 ° 2 min 526 W/m² 17,6 °C 24,4 °C 25,7 km/h (4 Bft)
24.08.2024 10:04 22,9 °C 26,3 °C 58 % 60 % 1013,0 hPa 0,0 l/m² 16,5 km/h (3 Bft) S-SW 213 ° 2 min 533 W/m² 17,9 °C 24,7 °C 25,7 km/h (4 Bft)
24.08.2024 10:06 22,9 °C 26,5 °C 58 % 59 % 1013,0 hPa 0,0 l/m² 18,0 km/h (3 Bft) S-SO 163 ° 2 min 533 W/m² 17,8 °C 24,8 °C 27,4 km/h (5 Bft)
24.08.2024 10:08 22,9 °C 26,6 °C 58 % 59 % 1013,1 hPa 0,0 l/m² 17,3 km/h (3 Bft) S-SW 204 ° 2 min 538 W/m² 17,9 °C 25,0 °C 22,5 km/h (4 Bft)
24.08.2024 10:10 22,9 °C 26,6 °C 58 % 59 % 1013,0 hPa 0,0 l/m² 18,5 km/h (3 Bft) S-SW 195 ° 2 min 545 W/m² 17,9 °C 24,9 °C 25,7 km/h (4 Bft)
24.08.2024 10:12 22,9 °C 26,7 °C 58 % 59 % 1013,1 hPa 0,0 l/m² 14,6 km/h (3 Bft) S 176 ° 2 min 548 W/m² 18,0 °C 25,4 °C 22,5 km/h (4 Bft)
24.08.2024 10:14 22,9 °C 26,6 °C 58 % 59 % 1013,0 hPa 0,0 l/m² 17,7 km/h (3 Bft) S 180 ° 2 min 552 W/m² 17,9 °C 25,0 °C 22,5 km/h (4 Bft)
24.08.2024 10:16 22,9 °C 26,6 °C 58 % 59 % 1013,0 hPa 0,0 l/m² 17,3 km/h (3 Bft) S 188 ° 2 min 555 W/m² 17,9 °C 25,0 °C 24,1 km/h (4 Bft)
24.08.2024 10:18 22,9 °C 26,6 °C 58 % 58 % 1012,9 hPa 0,0 l/m² 20,7 km/h (4 Bft) S-SW 192 ° 2 min 563 W/m² 17,6 °C 24,7 °C 32,2 km/h (5 Bft)
24.08.2024 10:20 22,9 °C 26,7 °C 58 % 58 % 1013,0 hPa 0,0 l/m² 18,0 km/h (3 Bft) S 170 ° 2 min 563 W/m² 17,7 °C 25,0 °C 27,4 km/h (5 Bft)
24.08.2024 10:22 22,9 °C 26,8 °C 58 % 58 % 1012,9 hPa 0,0 l/m² 17,8 km/h (3 Bft) S 191 ° 2 min 571 W/m² 17,8 °C 25,2 °C 24,1 km/h (4 Bft)
24.08.2024 10:24 22,9 °C 26,7 °C 58 % 58 % 1012,9 hPa 0,0 l/m² 19,7 km/h (3 Bft) S 181 ° 2 min 570 W/m² 17,7 °C 24,9 °C 27,4 km/h (5 Bft)
24.08.2024 10:26 22,9 °C 26,9 °C 58 % 58 % 1012,9 hPa 0,0 l/m² 15,1 km/h (3 Bft) S 186 ° 2 min 578 W/m² 17,9 °C 25,6 °C 20,9 km/h (4 Bft)
24.08.2024 10:28 22,9 °C 27,1 °C 59 % 59 % 1012,9 hPa 0,0 l/m² 13,8 km/h (3 Bft) S-SW 203 ° 2 min 582 W/m² 18,4 °C 26,0 °C 19,3 km/h (3 Bft)
24.08.2024 10:30 22,9 °C 27,1 °C 59 % 57 % 1012,9 hPa 0,0 l/m² 18,0 km/h (3 Bft) S 182 ° 2 min 587 W/m² 17,8 °C 25,6 °C 33,8 km/h (5 Bft)
24.08.2024 10:32 22,9 °C 26,9 °C 59 % 57 % 1012,8 hPa 0,0 l/m² 21,2 km/h (4 Bft) SW 219 ° 2 min 596 W/m² 17,6 °C 25,0 °C 30,6 km/h (5 Bft)
24.08.2024 10:34 22,9 °C 26,9 °C 59 % 58 % 1012,9 hPa 0,0 l/m² 16,9 km/h (3 Bft) S-SW 207 ° 2 min 599 W/m² 17,9 °C 25,4 °C 27,4 km/h (5 Bft)
24.08.2024 10:36 22,9 °C 27,0 °C 59 % 58 % 1012,8 hPa 0,0 l/m² 16,2 km/h (3 Bft) S-SW 200 ° 2 min 601 W/m² 18,0 °C 25,6 °C 22,5 km/h (4 Bft)
24.08.2024 10:38 22,9 °C 27,3 °C 60 % 57 % 1012,8 hPa 0,0 l/m² 15,0 km/h (3 Bft) S-SW 193 ° 2 min 606 W/m² 18,0 °C 26,1 °C 19,3 km/h (3 Bft)
24.08.2024 10:40 22,9 °C 27,4 °C 60 % 57 % 1012,7 hPa 0,0 l/m² 16,9 km/h (3 Bft) S-SW 204 ° 2 min 612 W/m² 18,1 °C 26,0 °C 27,4 km/h (5 Bft)
24.08.2024 10:42 22,9 °C 27,4 °C 60 % 56 % 1012,8 hPa 0,0 l/m² 19,9 km/h (4 Bft) S-SW 201 ° 2 min 615 W/m² 17,8 °C 25,8 °C 27,4 km/h (5 Bft)
24.08.2024 10:44 22,9 °C 27,3 °C 60 % 56 % 1012,8 hPa 0,0 l/m² 21,7 km/h (4 Bft) S 188 ° 2 min 617 W/m² 17,7 °C 25,5 °C 30,6 km/h (5 Bft)
24.08.2024 10:46 22,9 °C 27,2 °C 60 % 56 % 1012,8 hPa 0,0 l/m² 21,2 km/h (4 Bft) S 191 ° 2 min 621 W/m² 17,6 °C 25,4 °C 32,2 km/h (5 Bft)
24.08.2024 10:48 22,9 °C 27,4 °C 60 % 57 % 1012,8 hPa 0,0 l/m² 17,4 km/h (3 Bft) S-SW 198 ° 2 min 626 W/m² 18,1 °C 26,0 °C 27,4 km/h (5 Bft)
24.08.2024 10:50 22,9 °C 27,4 °C 60 % 56 % 1012,7 hPa 0,0 l/m² 18,8 km/h (3 Bft) S-SW 202 ° 2 min 629 W/m² 17,8 °C 25,9 °C 24,1 km/h (4 Bft)
24.08.2024 10:51 22,9 °C 27,4 °C 60 % 56 % 1012,7 hPa 0,0 l/m² 12,9 km/h (3 Bft) S-SW 202 ° 1 min 629 W/m² 17,8 °C 26,4 °C 17,7 km/h (3 Bft)
24.08.2024 10:52 22,9 °C 27,4 °C 60 % 56 % 1012,8 hPa 0,0 l/m² 19,3 km/h (3 Bft) S 180 ° 1 min 631 W/m² 17,8 °C 25,8 °C 25,7 km/h (4 Bft)
24.08.2024 10:53 22,9 °C 27,4 °C 60 % 56 % 1012,8 hPa 0,0 l/m² 17,7 km/h (3 Bft) S-SW 202 ° 1 min 635 W/m² 17,8 °C 26,0 °C 27,4 km/h (5 Bft)
24.08.2024 10:54 22,9 °C 27,4 °C 60 % 56 % 1012,8 hPa 0,0 l/m² 16,1 km/h (3 Bft) S-SW 202 ° 1 min 633 W/m² 17,8 °C 26,1 °C 22,5 km/h (4 Bft)
24.08.2024 10:55 22,9 °C 27,6 °C 60 % 56 % 1012,8 hPa 0,0 l/m² 17,7 km/h (3 Bft) S 180 ° 1 min 635 W/m² 18,0 °C 26,2 °C 22,5 km/h (4 Bft)
24.08.2024 10:56 22,9 °C 27,7 °C 60 % 55 % 1012,8 hPa 0,0 l/m² 17,7 km/h (3 Bft) S 180 ° 1 min 638 W/m² 17,8 °C 26,3 °C 22,5 km/h (4 Bft)
24.08.2024 10:57 22,8 °C 27,7 °C 60 % 55 % 1012,8 hPa 0,0 l/m² 22,5 km/h (4 Bft) S 180 ° 1 min 643 W/m² 17,8 °C 26,0 °C 30,6 km/h (5 Bft)
24.08.2024 10:58 22,9 °C 27,6 °C 60 % 55 % 1012,7 hPa 0,0 l/m² 20,9 km/h (4 Bft) S-SO 157 ° 1 min 645 W/m² 17,7 °C 26,0 °C 27,4 km/h (5 Bft)
24.08.2024 10:59 22,9 °C 27,6 °C 60 % 55 % 1012,8 hPa 0,0 l/m² 24,1 km/h (4 Bft) S 180 ° 1 min 649 W/m² 17,7 °C 25,7 °C 30,6 km/h (5 Bft)
24.08.2024 11:00 22,9 °C 27,6 °C 60 % 55 % 1012,8 hPa 0,0 l/m² 22,5 km/h (4 Bft) S-SW 202 ° 1 min 652 W/m² 17,7 °C 25,8 °C 29,0 km/h (5 Bft)
24.08.2024 11:01 22,9 °C 27,6 °C 60 % 56 % 1012,8 hPa 0,0 l/m² 19,3 km/h (3 Bft) S 180 ° 1 min 654 W/m² 18,0 °C 26,1 °C 22,5 km/h (4 Bft)
24.08.2024 11:02 22,9 °C 27,6 °C 60 % 55 % 1012,7 hPa 0,0 l/m² 20,9 km/h (4 Bft) S 180 ° 1 min 650 W/m² 17,7 °C 26,0 °C 30,6 km/h (5 Bft)
24.08.2024 11:03 22,8 °C 27,6 °C 60 % 55 % 1012,7 hPa 0,0 l/m² 20,9 km/h (4 Bft) S-SW 202 ° 1 min 661 W/m² 17,7 °C 26,0 °C 27,4 km/h (5 Bft)
24.08.2024 11:04 22,8 °C 27,6 °C 60 % 55 % 1012,8 hPa 0,0 l/m² 20,9 km/h (4 Bft) S-SW 202 ° 1 min 661 W/m² 17,7 °C 26,0 °C 25,7 km/h (4 Bft)
24.08.2024 11:05 22,9 °C 27,7 °C 60 % 55 % 1012,8 hPa 0,0 l/m² 19,3 km/h (3 Bft) S-SW 202 ° 1 min 661 W/m² 17,8 °C 26,2 °C 24,1 km/h (4 Bft)
24.08.2024 11:06 22,8 °C 27,8 °C 60 % 55 % 1012,7 hPa 0,0 l/m² 24,1 km/h (4 Bft) S 180 ° 1 min 664 W/m² 17,9 °C 26,0 °C 29,0 km/h (5 Bft)
24.08.2024 11:07 22,8 °C 27,8 °C 60 % 55 % 1012,7 hPa 0,0 l/m² 19,3 km/h (3 Bft) S-SO 157 ° 1 min 659 W/m² 17,9 °C 26,3 °C 25,7 km/h (4 Bft)
24.08.2024 11:08 22,8 °C 27,7 °C 60 % 55 % 1012,6 hPa 0,0 l/m² 17,7 km/h (3 Bft) S-SO 157 ° 1 min 666 W/m² 17,8 °C 26,3 °C 24,1 km/h (4 Bft)
24.08.2024 11:09 22,8 °C 27,8 °C 60 % 55 % 1012,7 hPa 0,0 l/m² 17,7 km/h (3 Bft) S 180 ° 1 min 668 W/m² 17,9 °C 26,5 °C 24,1 km/h (4 Bft)
24.08.2024 11:10 22,8 °C 27,8 °C 60 % 55 % 1012,7 hPa 0,0 l/m² 16,1 km/h (3 Bft) S-SO 157 ° 1 min 673 W/m² 17,9 °C 26,6 °C 22,5 km/h (4 Bft)
24.08.2024 11:11 22,8 °C 28,0 °C 60 % 55 % 1012,6 hPa 0,0 l/m² 14,5 km/h (3 Bft) S 180 ° 1 min 670 W/m² 18,1 °C 27,0 °C 17,7 km/h (3 Bft)
24.08.2024 11:12 22,8 °C 28,1 °C 60 % 55 % 1012,6 hPa 0,0 l/m² 19,3 km/h (3 Bft) S-SW 202 ° 1 min 668 W/m² 18,2 °C 26,7 °C 22,5 km/h (4 Bft)
24.08.2024 11:18 22,8 °C 28,2 °C 60 % 53 % 1012,6 hPa 0,0 l/m² 24,4 km/h (4 Bft) S 177 ° 6 min 687 W/m² 17,7 °C 26,5 °C 30,6 km/h (5 Bft)
24.08.2024 11:20 22,8 °C 28,2 °C 60 % 53 % 1012,5 hPa 0,0 l/m² 22,5 km/h (4 Bft) S-SW 192 ° 2 min 696 W/m² 17,7 °C 26,6 °C 30,6 km/h (5 Bft)
24.08.2024 11:21 22,8 °C 28,2 °C 60 % 53 % 1012,5 hPa 0,0 l/m² 25,5 km/h (4 Bft) S-SW 202 ° 1 min 691 W/m² 17,7 °C 26,5 °C 32,2 km/h (5 Bft)
24.08.2024 11:23 22,8 °C 28,3 °C 60 % 54 % 1012,5 hPa 0,0 l/m² 22,9 km/h (4 Bft) S-SW 200 ° 2 min 691 W/m² 18,1 °C 26,7 °C 30,6 km/h (5 Bft)
24.08.2024 11:25 22,8 °C 28,3 °C 60 % 53 % 1012,5 hPa 0,0 l/m² 22,0 km/h (4 Bft) S 180 ° 2 min 700 W/m² 17,8 °C 26,8 °C 29,0 km/h (5 Bft)
24.08.2024 11:27 22,8 °C 28,4 °C 60 % 54 % 1012,5 hPa 0,0 l/m² 22,7 km/h (4 Bft) SW 217 ° 2 min 705 W/m² 18,2 °C 26,9 °C 29,0 km/h (5 Bft)
24.08.2024 11:29 22,9 °C 28,5 °C 60 % 53 % 1012,5 hPa 0,0 l/m² 22,3 km/h (4 Bft) S 184 ° 2 min 708 W/m² 18,0 °C 27,0 °C 29,0 km/h (5 Bft)
24.08.2024 11:30 22,9 °C 28,6 °C 60 % 53 % 1012,5 hPa 0,0 l/m² 17,1 km/h (3 Bft) S 184 ° 1 min 712 W/m² 18,1 °C 27,5 °C 22,5 km/h (4 Bft)
24.08.2024 11:31 22,9 °C 28,5 °C 60 % 53 % 1012,4 hPa 0,0 l/m² 17,2 km/h (3 Bft) S-SO 157 ° 1 min 712 W/m² 18,0 °C 27,4 °C 22,5 km/h (4 Bft)
24.08.2024 11:32 22,9 °C 28,6 °C 60 % 53 % 1012,4 hPa 0,0 l/m² 22,1 km/h (4 Bft) S-SO 161 ° 1 min 715 W/m² 18,1 °C 27,2 °C 33,8 km/h (5 Bft)
24.08.2024 11:34 22,9 °C 28,6 °C 60 % 52 % 1012,4 hPa 0,0 l/m² 19,2 km/h (3 Bft) S 173 ° 2 min 715 W/m² 17,8 °C 27,4 °C 25,7 km/h (4 Bft)
24.08.2024 11:36 22,9 °C 28,7 °C 60 % 52 % 1012,5 hPa 0,0 l/m² 17,0 km/h (3 Bft) S-SO 159 ° 2 min 721 W/m² 17,8 °C 27,6 °C 24,1 km/h (4 Bft)
24.08.2024 11:38 22,9 °C 28,7 °C 60 % 52 % 1012,4 hPa 0,0 l/m² 19,7 km/h (3 Bft) S 181 ° 2 min 724 W/m² 17,8 °C 27,5 °C 29,0 km/h (5 Bft)
24.08.2024 11:40 22,9 °C 28,8 °C 60 % 52 % 1012,3 hPa 0,0 l/m² 20,5 km/h (4 Bft) S 178 ° 2 min 724 W/m² 17,9 °C 27,5 °C 25,7 km/h (4 Bft)
24.08.2024 11:41 22,9 °C 28,8 °C 60 % 52 % 1012,3 hPa 0,0 l/m² 15,9 km/h (3 Bft) S 190 ° 1 min 726 W/m² 17,9 °C 27,8 °C 22,5 km/h (4 Bft)
24.08.2024 11:42 22,9 °C 28,8 °C 60 % 52 % 1012,3 hPa 0,0 l/m² 20,6 km/h (4 Bft) S-SO 167 ° 1 min 724 W/m² 17,9 °C 27,5 °C 25,7 km/h (4 Bft)
24.08.2024 11:44 22,9 °C 28,9 °C 60 % 51 % 1012,4 hPa 0,0 l/m² 19,9 km/h (4 Bft) S 190 ° 2 min 729 W/m² 17,7 °C 27,7 °C 29,0 km/h (5 Bft)
24.08.2024 11:46 22,9 °C 29,2 °C 61 % 51 % 1012,4 hPa 0,0 l/m² 19,1 km/h (3 Bft) S-SW 204 ° 2 min 726 W/m² 18,0 °C 28,1 °C 25,7 km/h (4 Bft)
24.08.2024 11:48 22,9 °C 29,2 °C 61 % 51 % 1012,4 hPa 0,0 l/m² 21,4 km/h (4 Bft) S-SW 213 ° 2 min 729 W/m² 18,0 °C 28,0 °C 27,4 km/h (5 Bft)
24.08.2024 11:50 22,9 °C 29,2 °C 62 % 51 % 1012,3 hPa 0,0 l/m² 18,8 km/h (3 Bft) S 186 ° 2 min 742 W/m² 18,0 °C 28,2 °C 24,1 km/h (4 Bft)
24.08.2024 11:51 22,9 °C 29,2 °C 62 % 51 % 1012,3 hPa 0,0 l/m² 16,6 km/h (3 Bft) S-SW 204 ° 1 min 742 W/m² 18,0 °C 28,3 °C 22,5 km/h (4 Bft)
24.08.2024 11:52 22,9 °C 29,2 °C 62 % 51 % 1012,3 hPa 0,0 l/m² 18,4 km/h (3 Bft) SW 224 ° 1 min 742 W/m² 18,0 °C 28,2 °C 22,5 km/h (4 Bft)
24.08.2024 11:54 22,9 °C 29,3 °C 62 % 51 % 1012,2 hPa 0,0 l/m² 19,3 km/h (3 Bft) S-SW 200 ° 2 min 742 W/m² 18,1 °C 28,3 °C 25,7 km/h (4 Bft)
24.08.2024 11:56 22,9 °C 29,4 °C 63 % 50 % 1012,2 hPa 0,0 l/m² 18,9 km/h (3 Bft) S-SW 211 ° 2 min 745 W/m² 17,9 °C 28,4 °C 25,7 km/h (4 Bft)
24.08.2024 11:58 22,9 °C 29,4 °C 63 % 50 % 1012,2 hPa 0,0 l/m² 16,9 km/h (3 Bft) S 180 ° 2 min 744 W/m² 17,9 °C 28,5 °C 25,7 km/h (4 Bft)
24.08.2024 11:59 22,9 °C 29,5 °C 63 % 51 % 1012,2 hPa 0,0 l/m² 14,4 km/h (3 Bft) S 173 ° 1 min 745 W/m² 18,3 °C 28,8 °C 20,9 km/h (4 Bft)
24.08.2024 12:00 22,9 °C 29,5 °C 63 % 51 % 1012,2 hPa 0,0 l/m² 13,6 km/h (3 Bft) S 184 ° 1 min 745 W/m² 18,3 °C 28,9 °C 17,7 km/h (3 Bft)
24.08.2024 12:01 23,0 °C 29,7 °C 63 % 51 % 1012,0 hPa 0,0 l/m² 13,9 km/h (3 Bft) S-SO 161 ° 1 min 745 W/m² 18,5 °C 29,1 °C 17,7 km/h (3 Bft)
24.08.2024 12:02 23,0 °C 29,7 °C 63 % 49 % 1012,1 hPa 0,0 l/m² 19,2 km/h (3 Bft) S-SO 155 ° 1 min 744 W/m² 17,8 °C 28,8 °C 24,1 km/h (4 Bft)
24.08.2024 12:03 23,0 °C 29,7 °C 63 % 49 % 1012,1 hPa 0,0 l/m² 18,0 km/h (3 Bft) S-SO 150 ° 1 min 744 W/m² 17,8 °C 28,8 °C 25,7 km/h (4 Bft)
24.08.2024 12:04 23,0 °C 29,6 °C 63 % 50 % 1012,2 hPa 0,0 l/m² 11,9 km/h (2 Bft) S 184 ° 1 min 751 W/m² 18,1 °C 29,1 °C 16,1 km/h (3 Bft)
24.08.2024 12:06 23,0 °C 29,6 °C 62 % 50 % 1012,1 hPa 0,0 l/m² 17,3 km/h (3 Bft) S-SW 196 ° 2 min 751 W/m² 18,1 °C 28,7 °C 25,7 km/h (4 Bft)
24.08.2024 12:08 22,9 °C 29,6 °C 62 % 49 % 1012,1 hPa 0,0 l/m² 14,4 km/h (3 Bft) S 182 ° 2 min 756 W/m² 17,7 °C 28,9 °C 19,3 km/h (3 Bft)
24.08.2024 12:10 23,0 °C 29,6 °C 63 % 49 % 1012,1 hPa 0,0 l/m² 17,4 km/h (3 Bft) S-SW 195 ° 2 min 756 W/m² 17,7 °C 28,7 °C 24,1 km/h (4 Bft)
24.08.2024 12:11 23,0 °C 29,7 °C 63 % 49 % 1012,0 hPa 0,0 l/m² 21,0 km/h (4 Bft) S 175 ° 1 min 759 W/m² 17,8 °C 28,7 °C 27,4 km/h (5 Bft)
24.08.2024 12:12 23,0 °C 29,7 °C 63 % 49 % 1012,0 hPa 0,0 l/m² 17,2 km/h (3 Bft) S-SO 153 ° 1 min 761 W/m² 17,8 °C 28,9 °C 25,7 km/h (4 Bft)
24.08.2024 12:13 23,0 °C 29,7 °C 62 % 49 % 1012,1 hPa 0,0 l/m² 19,2 km/h (3 Bft) SO 145 ° 1 min 763 W/m² 17,8 °C 28,8 °C 22,5 km/h (4 Bft)
24.08.2024 12:14 23,0 °C 29,7 °C 62 % 49 % 1012,1 hPa 0,0 l/m² 15,3 km/h (3 Bft) S-SW 193 ° 1 min 759 W/m² 17,8 °C 29,0 °C 20,9 km/h (4 Bft)
24.08.2024 12:16 23,1 °C 29,8 °C 63 % 49 % 1012,0 hPa 0,0 l/m² 20,5 km/h (4 Bft) S 175 ° 2 min 761 W/m² 17,9 °C 28,8 °C 25,7 km/h (4 Bft)
24.08.2024 12:18 23,0 °C 29,8 °C 63 % 49 % 1012,0 hPa 0,0 l/m² 16,6 km/h (3 Bft) S-SW 201 ° 2 min 763 W/m² 17,9 °C 29,0 °C 25,7 km/h (4 Bft)
24.08.2024 12:20 23,0 °C 29,8 °C 63 % 48 % 1012,0 hPa 0,0 l/m² 18,6 km/h (3 Bft) S 171 ° 2 min 763 W/m² 17,6 °C 28,9 °C 30,6 km/h (5 Bft)
24.08.2024 12:22 23,0 °C 29,9 °C 63 % 48 % 1011,9 hPa 0,0 l/m² 14,7 km/h (3 Bft) S-SO 153 ° 2 min 766 W/m² 17,7 °C 29,3 °C 24,1 km/h (4 Bft)
24.08.2024 12:23 23,0 °C 29,8 °C 63 % 48 % 1011,9 hPa 0,0 l/m² 13,4 km/h (3 Bft) SO 144 ° 1 min 768 W/m² 17,6 °C 29,2 °C 16,1 km/h (3 Bft)
24.08.2024 12:24 23,1 °C 29,9 °C 63 % 48 % 1011,9 hPa 0,0 l/m² 15,1 km/h (3 Bft) SO 132 ° 1 min 770 W/m² 17,7 °C 29,2 °C 19,3 km/h (3 Bft)
24.08.2024 12:26 23,1 °C 30,1 °C 63 % 48 % 1011,9 hPa 0,0 l/m² 19,1 km/h (3 Bft) S 182 ° 2 min 772 W/m² 17,9 °C 29,3 °C 24,1 km/h (4 Bft)
24.08.2024 12:28 23,1 °C 30,2 °C 63 % 48 % 1012,0 hPa 0,0 l/m² 13,3 km/h (3 Bft) SO 146 ° 2 min 766 W/m² 17,9 °C 29,7 °C 20,9 km/h (4 Bft)
24.08.2024 12:30 23,1 °C 30,2 °C 63 % 48 % 1011,9 hPa 0,0 l/m² 16,0 km/h (3 Bft) S-SW 205 ° 2 min 770 W/m² 17,9 °C 29,6 °C 22,5 km/h (4 Bft)
24.08.2024 12:32 23,1 °C 30,3 °C 63 % 47 % 1011,9 hPa 0,0 l/m² 17,8 km/h (3 Bft) S-SO 154 ° 2 min 773 W/m² 17,7 °C 29,6 °C 24,1 km/h (4 Bft)
24.08.2024 12:33 23,1 °C 30,4 °C 63 % 47 % 1011,9 hPa 0,0 l/m² 16,1 km/h (3 Bft) S-SO 155 ° 1 min 775 W/m² 17,8 °C 29,8 °C 24,1 km/h (4 Bft)
24.08.2024 12:34 23,1 °C 30,3 °C 63 % 46 % 1011,9 hPa 0,0 l/m² 13,9 km/h (3 Bft) SO 135 ° 1 min 777 W/m² 17,4 °C 29,8 °C 16,1 km/h (3 Bft)
24.08.2024 12:36 23,1 °C 30,4 °C 63 % 47 % 1011,9 hPa 0,0 l/m² 16,7 km/h (3 Bft) SO 145 ° 2 min 779 W/m² 17,8 °C 29,8 °C 25,7 km/h (4 Bft)
24.08.2024 12:38 23,1 °C 30,4 °C 63 % 46 % 1011,9 hPa 0,0 l/m² 14,6 km/h (3 Bft) SO 140 ° 2 min 777 W/m² 17,5 °C 29,9 °C 19,3 km/h (3 Bft)
24.08.2024 12:40 23,2 °C 30,2 °C 63 % 47 % 1011,6 hPa 0,0 l/m² 11,3 km/h (2 Bft) S-SO 152 ° 2 min 775 W/m² 17,6 °C 29,8 °C 16,1 km/h (3 Bft)
24.08.2024 12:42 23,1 °C 30,3 °C 63 % 47 % 1011,6 hPa 0,0 l/m² 12,5 km/h (2 Bft) O-SO 113 ° 2 min 777 W/m² 17,7 °C 29,9 °C 20,9 km/h (4 Bft)
24.08.2024 12:43 23,1 °C 30,3 °C 63 % 47 % 1011,6 hPa 0,0 l/m² 11,7 km/h (2 Bft) S-SW 194 ° 1 min 777 W/m² 17,7 °C 29,9 °C 19,3 km/h (3 Bft)
24.08.2024 12:44 23,1 °C 30,5 °C 63 % 47 % 1011,6 hPa 0,0 l/m² 16,1 km/h (3 Bft) S-SO 159 ° 1 min 777 W/m² 17,9 °C 29,9 °C 17,7 km/h (3 Bft)
24.08.2024 12:46 23,1 °C 30,7 °C 62 % 46 % 1011,6 hPa 0,0 l/m² 12,3 km/h (2 Bft) O-SO 113 ° 2 min 777 W/m² 17,7 °C 30,3 °C 17,7 km/h (3 Bft)
24.08.2024 12:48 23,1 °C 30,8 °C 62 % 47 % 1011,6 hPa 0,0 l/m² 12,1 km/h (2 Bft) S-SW 197 ° 2 min 779 W/m² 18,2 °C 30,5 °C 16,1 km/h (3 Bft)
24.08.2024 12:50 23,2 °C 31,1 °C 63 % 46 % 1011,5 hPa 0,0 l/m² 22,0 km/h (4 Bft) S 184 ° 2 min 779 W/m² 18,1 °C 30,5 °C 30,6 km/h (5 Bft)
24.08.2024 12:52 23,1 °C 30,9 °C 62 % 45 % 1011,4 hPa 0,0 l/m² 15,4 km/h (3 Bft) S-SW 203 ° 2 min 779 W/m² 17,6 °C 30,4 °C 20,9 km/h (4 Bft)
24.08.2024 12:53 23,1 °C 30,8 °C 62 % 45 % 1011,4 hPa 0,0 l/m² 12,0 km/h (2 Bft) S 182 ° 1 min 780 W/m² 17,5 °C 30,5 °C 17,7 km/h (3 Bft)
24.08.2024 12:54 23,2 °C 30,8 °C 62 % 46 % 1011,5 hPa 0,0 l/m² 12,0 km/h (2 Bft) S-SW 202 ° 1 min 782 W/m² 17,8 °C 30,5 °C 14,5 km/h (3 Bft)
24.08.2024 12:56 23,2 °C 30,9 °C 63 % 45 % 1011,4 hPa 0,0 l/m² 12,5 km/h (2 Bft) S-SO 161 ° 2 min 779 W/m² 17,6 °C 30,6 °C 16,1 km/h (3 Bft)
24.08.2024 12:58 23,2 °C 31,0 °C 62 % 45 % 1011,3 hPa 0,0 l/m² 18,5 km/h (3 Bft) S-SO 157 ° 2 min 779 W/m² 17,6 °C 30,5 °C 27,4 km/h (5 Bft)
24.08.2024 13:00 23,2 °C 31,0 °C 62 % 45 % 1011,4 hPa 0,0 l/m² 16,5 km/h (3 Bft) SO 141 ° 2 min 780 W/m² 17,6 °C 30,5 °C 22,5 km/h (4 Bft)
24.08.2024 13:02 23,2 °C 30,9 °C 62 % 45 % 1011,3 hPa 0,0 l/m² 14,8 km/h (3 Bft) S-SW 199 ° 2 min 782 W/m² 17,6 °C 30,5 °C 20,9 km/h (4 Bft)
24.08.2024 13:03 23,2 °C 31,1 °C 62 % 45 % 1011,3 hPa 0,0 l/m² 16,7 km/h (3 Bft) S 185 ° 1 min 784 W/m² 17,7 °C 30,6 °C 22,5 km/h (4 Bft)
24.08.2024 13:04 23,2 °C 31,1 °C 62 % 45 % 1011,4 hPa 0,0 l/m² 17,4 km/h (3 Bft) S 170 ° 1 min 788 W/m² 17,7 °C 30,6 °C 20,9 km/h (4 Bft)
24.08.2024 13:06 23,2 °C 31,1 °C 62 % 44 % 1011,3 hPa 0,0 l/m² 10,6 km/h (2 Bft) S 175 ° 2 min 784 W/m² 17,4 °C 30,9 °C 19,3 km/h (3 Bft)
24.08.2024 13:08 23,2 °C 31,1 °C 62 % 44 % 1011,2 hPa 0,0 l/m² 12,5 km/h (2 Bft) SO 144 ° 2 min 788 W/m² 17,4 °C 30,8 °C 17,7 km/h (3 Bft)
24.08.2024 13:10 23,2 °C 31,1 °C 62 % 45 % 1011,2 hPa 0,0 l/m² 15,3 km/h (3 Bft) SO 146 ° 2 min 786 W/m² 17,7 °C 30,7 °C 22,5 km/h (4 Bft)
24.08.2024 13:12 23,2 °C 31,2 °C 62 % 44 % 1011,2 hPa 0,0 l/m² 18,0 km/h (3 Bft) S-SO 155 ° 2 min 788 W/m² 17,5 °C 30,7 °C 29,0 km/h (5 Bft)
24.08.2024 13:13 23,2 °C 31,2 °C 62 % 44 % 1011,2 hPa 0,0 l/m² 13,2 km/h (3 Bft) SO 140 ° 1 min 784 W/m² 17,5 °C 30,9 °C 16,1 km/h (3 Bft)
24.08.2024 13:14 23,2 °C 31,2 °C 62 % 44 % 1011,2 hPa 0,0 l/m² 12,7 km/h (3 Bft) S-SW 192 ° 1 min 788 W/m² 17,5 °C 30,9 °C 16,1 km/h (3 Bft)
24.08.2024 13:16 23,2 °C 31,2 °C 62 % 45 % 1011,1 hPa 0,0 l/m² 12,2 km/h (2 Bft) S-SW 196 ° 2 min 786 W/m² 17,8 °C 30,9 °C 17,7 km/h (3 Bft)
24.08.2024 13:18 23,2 °C 31,3 °C 62 % 45 % 1011,0 hPa 0,0 l/m² 14,2 km/h (3 Bft) SO 124 ° 2 min 789 W/m² 17,9 °C 31,0 °C 19,3 km/h (3 Bft)
24.08.2024 13:20 23,2 °C 31,3 °C 62 % 45 % 1010,9 hPa 0,0 l/m² 18,1 km/h (3 Bft) SO 132 ° 2 min 782 W/m² 17,9 °C 30,9 °C 24,1 km/h (4 Bft)
24.08.2024 13:22 23,2 °C 31,4 °C 62 % 44 % 1010,9 hPa 0,0 l/m² 17,3 km/h (3 Bft) S-SO 162 ° 2 min 780 W/m² 17,6 °C 31,0 °C 29,0 km/h (5 Bft)
24.08.2024 13:23 23,2 °C 31,4 °C 62 % 44 % 1011,0 hPa 0,0 l/m² 19,7 km/h (3 Bft) S 169 ° 1 min 782 W/m² 17,6 °C 30,9 °C 24,1 km/h (4 Bft)
24.08.2024 13:24 23,2 °C 31,3 °C 62 % 44 % 1011,1 hPa 0,0 l/m² 21,6 km/h (4 Bft) S-SO 149 ° 1 min 784 W/m² 17,6 °C 30,8 °C 25,7 km/h (4 Bft)
24.08.2024 13:26 23,2 °C 31,3 °C 62 % 45 % 1011,0 hPa 0,0 l/m² 15,5 km/h (3 Bft) S 171 ° 2 min 777 W/m² 17,9 °C 30,9 °C 22,5 km/h (4 Bft)
24.08.2024 13:28 23,2 °C 31,4 °C 62 % 44 % 1010,9 hPa 0,0 l/m² 14,8 km/h (3 Bft) S 181 ° 2 min 775 W/m² 17,6 °C 31,1 °C 19,3 km/h (3 Bft)
24.08.2024 13:30 23,2 °C 31,3 °C 61 % 44 % 1011,0 hPa 0,0 l/m² 13,2 km/h (3 Bft) S-SO 156 ° 2 min 782 W/m² 17,6 °C 31,0 °C 16,1 km/h (3 Bft)
24.08.2024 13:32 23,2 °C 31,3 °C 61 % 44 % 1010,9 hPa 0,0 l/m² 13,2 km/h (3 Bft) SO 146 ° 2 min 782 W/m² 17,6 °C 31,0 °C 17,7 km/h (3 Bft)
24.08.2024 13:33 23,2 °C 31,3 °C 61 % 44 % 1010,9 hPa 0,0 l/m² 17,3 km/h (3 Bft) SO 142 ° 1 min 789 W/m² 17,6 °C 30,9 °C 24,1 km/h (4 Bft)
24.08.2024 13:34 23,2 °C 31,4 °C 61 % 44 % 1010,9 hPa 0,0 l/m² 17,9 km/h (3 Bft) S-SO 153 ° 1 min 786 W/m² 17,6 °C 31,0 °C 20,9 km/h (4 Bft)
24.08.2024 13:36 23,2 °C 31,4 °C 61 % 44 % 1010,8 hPa 0,0 l/m² 16,7 km/h (3 Bft) SO 142 ° 2 min 780 W/m² 17,6 °C 31,0 °C 20,9 km/h (4 Bft)
24.08.2024 13:38 23,2 °C 31,4 °C 61 % 44 % 1010,8 hPa 0,0 l/m² 17,0 km/h (3 Bft) S-SO 162 ° 2 min 779 W/m² 17,6 °C 31,0 °C 25,7 km/h (4 Bft)
24.08.2024 13:40 23,2 °C 31,6 °C 61 % 43 % 1010,8 hPa 0,0 l/m² 23,2 km/h (4 Bft) S-SO 161 ° 2 min 779 W/m² 17,5 °C 31,1 °C 35,4 km/h (5 Bft)
24.08.2024 13:42 23,2 °C 31,7 °C 61 % 43 % 1010,8 hPa 0,0 l/m² 16,5 km/h (3 Bft) S 177 ° 2 min 777 W/m² 17,6 °C 31,4 °C 24,1 km/h (4 Bft)
24.08.2024 13:43 23,2 °C 31,8 °C 61 % 43 % 1010,8 hPa 0,0 l/m² 13,9 km/h (3 Bft) S-SO 161 ° 1 min 779 W/m² 17,6 °C 31,6 °C 22,5 km/h (4 Bft)
24.08.2024 13:44 23,2 °C 31,8 °C 61 % 42 % 1010,8 hPa 0,0 l/m² 13,5 km/h (3 Bft) SO 128 ° 1 min 772 W/m² 17,3 °C 31,6 °C 20,9 km/h (4 Bft)
24.08.2024 13:46 23,2 °C 31,7 °C 61 % 43 % 1010,7 hPa 0,0 l/m² 11,0 km/h (2 Bft) S-SW 213 ° 2 min 775 W/m² 17,6 °C 31,5 °C 17,7 km/h (3 Bft)
24.08.2024 13:48 23,2 °C 31,9 °C 61 % 43 % 1010,8 hPa 0,0 l/m² 15,5 km/h (3 Bft) S 190 ° 2 min 773 W/m² 17,7 °C 31,7 °C 17,7 km/h (3 Bft)
24.08.2024 13:50 23,2 °C 32,1 °C 61 % 42 % 1010,7 hPa 0,0 l/m² 17,0 km/h (3 Bft) S 176 ° 2 min 773 W/m² 17,5 °C 31,9 °C 22,5 km/h (4 Bft)
24.08.2024 13:52 23,2 °C 32,2 °C 61 % 41 % 1010,7 hPa 0,0 l/m² 15,7 km/h (3 Bft) S-SO 162 ° 2 min 763 W/m² 17,2 °C 32,0 °C 20,9 km/h (4 Bft)
24.08.2024 13:53 23,2 °C 32,2 °C 61 % 42 % 1010,7 hPa 0,0 l/m² 21,2 km/h (4 Bft) SO 134 ° 1 min 765 W/m² 17,6 °C 32,0 °C 29,0 km/h (5 Bft)
24.08.2024 13:54 23,2 °C 32,1 °C 61 % 42 % 1010,6 hPa 0,0 l/m² 22,7 km/h (4 Bft) SO 142 ° 1 min 766 W/m² 17,5 °C 31,8 °C 30,6 km/h (5 Bft)
24.08.2024 13:56 23,2 °C 32,1 °C 61 % 42 % 1010,6 hPa 0,0 l/m² 20,2 km/h (4 Bft) S 181 ° 2 min 765 W/m² 17,5 °C 31,8 °C 27,4 km/h (5 Bft)
24.08.2024 13:58 23,2 °C 32,2 °C 61 % 42 % 1010,7 hPa 0,0 l/m² 15,6 km/h (3 Bft) S-SW 194 ° 2 min 766 W/m² 17,6 °C 32,0 °C 22,5 km/h (4 Bft)
24.08.2024 14:00 23,2 °C 32,4 °C 61 % 41 % 1010,5 hPa 0,0 l/m² 19,1 km/h (3 Bft) S 172 ° 2 min 766 W/m² 17,4 °C 32,2 °C 24,1 km/h (4 Bft)
24.08.2024 14:02 23,2 °C 32,5 °C 61 % 41 % 1010,6 hPa 0,0 l/m² 14,2 km/h (3 Bft) SO 136 ° 2 min 766 W/m² 17,5 °C 32,4 °C 27,4 km/h (5 Bft)
24.08.2024 14:03 23,2 °C 32,4 °C 61 % 40 % 1010,6 hPa 0,0 l/m² 16,4 km/h (3 Bft) S-SO 148 ° 1 min 765 W/m² 17,0 °C 32,3 °C 25,7 km/h (4 Bft)
24.08.2024 14:04 23,2 °C 32,3 °C 61 % 41 % 1010,5 hPa 0,0 l/m² 13,3 km/h (3 Bft) SO 127 ° 1 min 751 W/m² 17,3 °C 32,2 °C 19,3 km/h (3 Bft)
24.08.2024 14:06 23,2 °C 32,4 °C 61 % 41 % 1010,6 hPa 0,0 l/m² 24,6 km/h (4 Bft) S-SO 162 ° 2 min 761 W/m² 17,4 °C 32,2 °C 32,2 km/h (5 Bft)
24.08.2024 14:08 23,2 °C 32,5 °C 61 % 40 % 1010,5 hPa 0,0 l/m² 20,2 km/h (4 Bft) S-SO 159 ° 2 min 765 W/m² 17,1 °C 32,4 °C 25,7 km/h (4 Bft)
24.08.2024 14:10 23,2 °C 32,4 °C 61 % 40 % 1010,5 hPa 0,0 l/m² 16,3 km/h (3 Bft) S-SO 164 ° 2 min 763 W/m² 17,0 °C 32,3 °C 32,2 km/h (5 Bft)
24.08.2024 14:12 23,2 °C 32,5 °C 61 % 40 % 1010,6 hPa 0,0 l/m² 21,0 km/h (4 Bft) S-SO 155 ° 2 min 759 W/m² 17,1 °C 32,3 °C 33,8 km/h (5 Bft)
24.08.2024 14:13 23,2 °C 32,5 °C 61 % 40 % 1010,6 hPa 0,0 l/m² 14,2 km/h (3 Bft) S-SO 148 ° 1 min 763 W/m² 17,1 °C 32,4 °C 19,3 km/h (3 Bft)
24.08.2024 14:14 23,2 °C 32,5 °C 61 % 40 % 1010,4 hPa 0,0 l/m² 16,5 km/h (3 Bft) SO 137 ° 1 min 761 W/m² 17,1 °C 32,4 °C 20,9 km/h (4 Bft)
24.08.2024 14:16 23,2 °C 32,4 °C 61 % 40 % 1010,4 hPa 0,0 l/m² 18,5 km/h (3 Bft) SO 127 ° 2 min 758 W/m² 17,0 °C 32,2 °C 24,1 km/h (4 Bft)
24.08.2024 14:18 23,2 °C 32,3 °C 61 % 40 % 1010,4 hPa 0,0 l/m² 15,5 km/h (3 Bft) S 187 ° 2 min 758 W/m² 16,9 °C 32,1 °C 25,7 km/h (4 Bft)
24.08.2024 14:20 23,2 °C 32,4 °C 61 % 41 % 1010,3 hPa 0,0 l/m² 16,8 km/h (3 Bft) SO 134 ° 2 min 754 W/m² 17,4 °C 32,3 °C 25,7 km/h (4 Bft)
24.08.2024 14:22 23,2 °C 32,3 °C 61 % 40 % 1010,2 hPa 0,0 l/m² 18,5 km/h (3 Bft) S-SO 153 ° 2 min 758 W/m² 16,9 °C 32,1 °C 27,4 km/h (5 Bft)
24.08.2024 14:23 23,2 °C 32,4 °C 61 % 40 % 1010,2 hPa 0,0 l/m² 13,1 km/h (3 Bft) S 171 ° 1 min 756 W/m² 17,0 °C 32,3 °C 16,1 km/h (3 Bft)
24.08.2024 14:24 23,2 °C 32,4 °C 61 % 41 % 1010,2 hPa 0,0 l/m² 14,2 km/h (3 Bft) S 174 ° 1 min 754 W/m² 17,4 °C 32,3 °C 20,9 km/h (4 Bft)
24.08.2024 14:26 23,2 °C 32,6 °C 61 % 41 % 1010,1 hPa 0,0 l/m² 16,8 km/h (3 Bft) S 177 ° 2 min 747 W/m² 17,6 °C 32,5 °C 24,1 km/h (4 Bft)
24.08.2024 14:28 23,2 °C 32,9 °C 61 % 40 % 1010,0 hPa 0,0 l/m² 20,4 km/h (4 Bft) S-SO 166 ° 2 min 740 W/m² 17,5 °C 32,9 °C 25,7 km/h (4 Bft)
24.08.2024 14:30 23,2 °C 32,9 °C 61 % 39 % 1010,1 hPa 0,0 l/m² 18,0 km/h (3 Bft) SO 126 ° 2 min 744 W/m² 17,1 °C 32,9 °C 24,1 km/h (4 Bft)
24.08.2024 14:32 23,2 °C 32,9 °C 61 % 40 % 1010,0 hPa 0,0 l/m² 17,4 km/h (3 Bft) SO 138 ° 2 min 737 W/m² 17,5 °C 32,9 °C 25,7 km/h (4 Bft)
24.08.2024 14:33 23,2 °C 32,8 °C 61 % 39 % 1010,0 hPa 0,0 l/m² 16,1 km/h (3 Bft) SO 146 ° 1 min 735 W/m² 17,0 °C 32,8 °C 19,3 km/h (3 Bft)
24.08.2024 14:34 23,2 °C 32,8 °C 61 % 39 % 1010,1 hPa 0,0 l/m² 15,4 km/h (3 Bft) S 169 ° 1 min 735 W/m² 17,0 °C 32,8 °C 22,5 km/h (4 Bft)
24.08.2024 14:36 23,2 °C 33,0 °C 61 % 40 % 1010,0 hPa 0,0 l/m² 16,8 km/h (3 Bft) S-SW 192 ° 2 min 738 W/m² 17,6 °C 33,0 °C 22,5 km/h (4 Bft)
24.08.2024 14:38 23,2 °C 33,1 °C 61 % 39 % 1010,0 hPa 0,0 l/m² 14,9 km/h (3 Bft) S-SO 147 ° 2 min 737 W/m² 17,3 °C 33,1 °C 19,3 km/h (3 Bft)
24.08.2024 14:40 23,2 °C 33,3 °C 61 % 39 % 1009,9 hPa 0,0 l/m² 18,0 km/h (3 Bft) S-SO 154 ° 2 min 740 W/m² 17,4 °C 33,3 °C 29,0 km/h (5 Bft)
24.08.2024 14:42 23,2 °C 33,1 °C 61 % 39 % 1009,9 hPa 0,0 l/m² 17,7 km/h (3 Bft) S-SW 192 ° 2 min 733 W/m² 17,3 °C 33,1 °C 25,7 km/h (4 Bft)
24.08.2024 14:43 23,2 °C 33,2 °C 61 % 39 % 1009,9 hPa 0,0 l/m² 22,0 km/h (4 Bft) S-SO 163 ° 1 min 733 W/m² 17,3 °C 33,2 °C 25,7 km/h (4 Bft)
24.08.2024 14:44 23,2 °C 33,3 °C 61 % 39 % 1009,8 hPa 0,0 l/m² 20,8 km/h (4 Bft) S 183 ° 1 min 733 W/m² 17,4 °C 33,3 °C 25,7 km/h (4 Bft)
24.08.2024 14:46 23,2 °C 33,3 °C 61 % 38 % 1009,9 hPa 0,0 l/m² 19,0 km/h (3 Bft) S-SW 192 ° 2 min 726 W/m² 17,0 °C 33,3 °C 27,4 km/h (5 Bft)
24.08.2024 14:48 23,2 °C 33,3 °C 61 % 39 % 1009,9 hPa 0,0 l/m² 16,2 km/h (3 Bft) S-SW 194 ° 2 min 721 W/m² 17,4 °C 33,3 °C 20,9 km/h (4 Bft)
24.08.2024 14:50 23,2 °C 33,5 °C 61 % 38 % 1009,8 hPa 0,0 l/m² 18,4 km/h (3 Bft) S 189 ° 2 min 722 W/m² 17,2 °C 33,5 °C 25,7 km/h (4 Bft)
24.08.2024 14:52 23,2 °C 33,7 °C 61 % 38 % 1010,0 hPa 0,0 l/m² 19,0 km/h (3 Bft) S-SW 209 ° 2 min 722 W/m² 17,4 °C 33,7 °C 25,7 km/h (4 Bft)
24.08.2024 14:53 23,2 °C 33,8 °C 61 % 38 % 1010,0 hPa 0,0 l/m² 18,9 km/h (3 Bft) S 172 ° 1 min 724 W/m² 17,5 °C 33,8 °C 24,1 km/h (4 Bft)
24.08.2024 14:54 23,2 °C 33,8 °C 61 % 37 % 1009,9 hPa 0,0 l/m² 14,5 km/h (3 Bft) S 185 ° 1 min 722 W/m² 17,0 °C 33,8 °C 19,3 km/h (3 Bft)
24.08.2024 14:56 23,2 °C 33,8 °C 60 % 38 % 1009,9 hPa 0,0 l/m² 15,5 km/h (3 Bft) S 175 ° 2 min 717 W/m² 17,5 °C 33,8 °C 24,1 km/h (4 Bft)
24.08.2024 14:58 23,2 °C 33,7 °C 60 % 38 % 1009,8 hPa 0,0 l/m² 14,7 km/h (3 Bft) SW 219 ° 2 min 712 W/m² 17,4 °C 33,7 °C 20,9 km/h (4 Bft)
24.08.2024 15:00 23,2 °C 33,7 °C 61 % 37 % 1009,9 hPa 0,0 l/m² 19,2 km/h (3 Bft) S 180 ° 2 min 708 W/m² 17,0 °C 33,7 °C 25,7 km/h (4 Bft)
24.08.2024 15:02 23,2 °C 33,6 °C 61 % 36 % 1009,8 hPa 0,0 l/m² 21,4 km/h (4 Bft) S 180 ° 2 min 703 W/m² 16,4 °C 33,6 °C 27,4 km/h (5 Bft)
24.08.2024 15:03 23,2 °C 33,6 °C 61 % 37 % 1009,8 hPa 0,0 l/m² 17,9 km/h (3 Bft) S 182 ° 1 min 703 W/m² 16,9 °C 33,6 °C 22,5 km/h (4 Bft)
24.08.2024 15:04 23,2 °C 33,5 °C 61 % 37 % 1009,8 hPa 0,0 l/m² 19,3 km/h (3 Bft) S-SO 157 ° 1 min 705 W/m² 16,8 °C 33,5 °C 24,1 km/h (4 Bft)
24.08.2024 15:06 23,2 °C 33,6 °C 61 % 37 % 1009,8 hPa 0,0 l/m² 16,3 km/h (3 Bft) S-SW 201 ° 2 min 703 W/m² 16,9 °C 33,6 °C 22,5 km/h (4 Bft)
24.08.2024 15:08 23,2 °C 33,6 °C 61 % 37 % 1009,8 hPa 0,0 l/m² 16,2 km/h (3 Bft) S-SW 202 ° 2 min 698 W/m² 16,9 °C 33,6 °C 25,7 km/h (4 Bft)
24.08.2024 15:10 23,2 °C 33,6 °C 60 % 37 % 1009,6 hPa 0,0 l/m² 19,9 km/h (4 Bft) S-SW 193 ° 2 min 696 W/m² 16,9 °C 33,6 °C 30,6 km/h (5 Bft)
24.08.2024 15:12 23,2 °C 33,7 °C 60 % 37 % 1009,6 hPa 0,0 l/m² 24,1 km/h (4 Bft) S-SW 193 ° 2 min 689 W/m² 17,0 °C 33,7 °C 32,2 km/h (5 Bft)
24.08.2024 15:13 23,2 °C 33,7 °C 60 % 37 % 1009,6 hPa 0,0 l/m² 18,7 km/h (3 Bft) S-SW 198 ° 1 min 687 W/m² 17,0 °C 33,7 °C 24,1 km/h (4 Bft)
24.08.2024 15:14 23,2 °C 33,7 °C 60 % 36 % 1009,6 hPa 0,0 l/m² 20,7 km/h (4 Bft) S 186 ° 1 min 687 W/m² 16,5 °C 33,7 °C 30,6 km/h (5 Bft)
24.08.2024 15:16 23,2 °C 33,6 °C 60 % 36 % 1009,6 hPa 0,0 l/m² 20,0 km/h (4 Bft) S-SW 206 ° 2 min 682 W/m² 16,4 °C 33,6 °C 27,4 km/h (5 Bft)
24.08.2024 15:18 23,2 °C 33,7 °C 60 % 37 % 1009,5 hPa 0,0 l/m² 18,3 km/h (3 Bft) S-SW 206 ° 2 min 679 W/m² 17,0 °C 33,7 °C 24,1 km/h (4 Bft)
24.08.2024 15:20 23,2 °C 33,9 °C 60 % 37 % 1009,5 hPa 0,0 l/m² 15,6 km/h (3 Bft) SW 223 ° 2 min 673 W/m² 17,1 °C 33,9 °C 22,5 km/h (4 Bft)
24.08.2024 15:22 23,2 °C 33,9 °C 61 % 36 % 1009,5 hPa 0,0 l/m² 19,5 km/h (3 Bft) SW 225 ° 2 min 668 W/m² 16,7 °C 33,9 °C 24,1 km/h (4 Bft)
24.08.2024 15:23 23,2 °C 33,9 °C 61 % 37 % 1009,5 hPa 0,0 l/m² 14,8 km/h (3 Bft) S 190 ° 1 min 666 W/m² 17,1 °C 33,9 °C 19,3 km/h (3 Bft)
24.08.2024 15:24 23,2 °C 33,9 °C 61 % 36 % 1009,4 hPa 0,0 l/m² 17,5 km/h (3 Bft) S 169 ° 1 min 664 W/m² 16,7 °C 33,9 °C 25,7 km/h (4 Bft)
24.08.2024 15:26 23,2 °C 33,8 °C 61 % 36 % 1009,3 hPa 0,0 l/m² 13,2 km/h (3 Bft) S-SW 196 ° 2 min 664 W/m² 16,6 °C 33,8 °C 22,5 km/h (4 Bft)
24.08.2024 15:28 23,2 °C 34,0 °C 61 % 36 % 1009,4 hPa 0,0 l/m² 16,1 km/h (3 Bft) S-SW 202 ° 2 min 659 W/m² 16,8 °C 34,0 °C 20,9 km/h (4 Bft)
24.08.2024 15:30 23,2 °C 34,2 °C 61 % 36 % 1009,4 hPa 0,0 l/m² 17,1 km/h (3 Bft) SW 221 ° 2 min 659 W/m² 17,0 °C 34,2 °C 27,4 km/h (5 Bft)
24.08.2024 15:32 23,3 °C 34,1 °C 61 % 36 % 1009,4 hPa 0,0 l/m² 21,1 km/h (4 Bft) S-SW 194 ° 2 min 652 W/m² 16,9 °C 34,1 °C 30,6 km/h (5 Bft)
24.08.2024 15:33 23,3 °C 34,1 °C 61 % 36 % 1009,4 hPa 0,0 l/m² 20,1 km/h (4 Bft) S 186 ° 1 min 647 W/m² 16,9 °C 34,1 °C 24,1 km/h (4 Bft)
24.08.2024 15:34 23,3 °C 33,9 °C 61 % 35 % 1009,4 hPa 0,0 l/m² 18,6 km/h (3 Bft) S-SO 165 ° 1 min 642 W/m² 16,2 °C 33,9 °C 22,5 km/h (4 Bft)
24.08.2024 15:36 23,3 °C 34,0 °C 61 % 36 % 1009,4 hPa 0,0 l/m² 16,2 km/h (3 Bft) S 184 ° 2 min 638 W/m² 16,8 °C 34,0 °C 20,9 km/h (4 Bft)
24.08.2024 15:38 23,3 °C 33,9 °C 61 % 36 % 1009,3 hPa 0,0 l/m² 21,8 km/h (4 Bft) S 188 ° 2 min 640 W/m² 16,7 °C 33,9 °C 29,0 km/h (5 Bft)
24.08.2024 15:40 23,4 °C 33,9 °C 61 % 35 % 1009,4 hPa 0,0 l/m² 17,1 km/h (3 Bft) S-SW 192 ° 2 min 636 W/m² 16,2 °C 33,9 °C 22,5 km/h (4 Bft)
24.08.2024 15:42 23,4 °C 33,7 °C 61 % 36 % 1009,3 hPa 0,0 l/m² 15,3 km/h (3 Bft) S-SO 153 ° 2 min 628 W/m² 16,5 °C 33,7 °C 20,9 km/h (4 Bft)
24.08.2024 15:43 23,4 °C 33,8 °C 61 % 36 % 1009,3 hPa 0,0 l/m² 12,7 km/h (3 Bft) S-SW 200 ° 1 min 628 W/m² 16,6 °C 33,8 °C 17,7 km/h (3 Bft)
24.08.2024 15:45 23,4 °C 33,8 °C 61 % 36 % 1009,3 hPa 0,0 l/m² 21,3 km/h (4 Bft) S-SW 207 ° 2 min 626 W/m² 16,6 °C 33,8 °C 27,4 km/h (5 Bft)
24.08.2024 15:46 23,3 °C 33,8 °C 61 % 36 % 1009,2 hPa 0,0 l/m² 26,8 km/h (4 Bft) S 173 ° 1 min 622 W/m² 16,6 °C 33,8 °C 33,8 km/h (5 Bft)
24.08.2024 15:48 23,4 °C 33,8 °C 61 % 36 % 1009,3 hPa 0,0 l/m² 20,7 km/h (4 Bft) S 187 ° 2 min 621 W/m² 16,6 °C 33,8 °C 29,0 km/h (5 Bft)
24.08.2024 15:50 23,4 °C 33,8 °C 61 % 36 % 1009,2 hPa 0,0 l/m² 19,5 km/h (3 Bft) S 171 ° 2 min 613 W/m² 16,6 °C 33,8 °C 29,0 km/h (5 Bft)
24.08.2024 15:52 23,4 °C 33,7 °C 61 % 36 % 1009,2 hPa 0,0 l/m² 17,5 km/h (3 Bft) S-SW 193 ° 2 min 605 W/m² 16,5 °C 33,7 °C 25,7 km/h (4 Bft)
24.08.2024 15:53 23,4 °C 33,8 °C 61 % 36 % 1009,2 hPa 0,0 l/m² 18,9 km/h (3 Bft) S 190 ° 1 min 605 W/m² 16,6 °C 33,8 °C 22,5 km/h (4 Bft)
24.08.2024 15:54 23,4 °C 33,8 °C 61 % 36 % 1009,1 hPa 0,0 l/m² 19,9 km/h (4 Bft) S 180 ° 1 min 603 W/m² 16,6 °C 33,8 °C 22,5 km/h (4 Bft)
24.08.2024 15:56 23,4 °C 33,8 °C 61 % 36 % 1009,0 hPa 0,0 l/m² 17,1 km/h (3 Bft) S 173 ° 2 min 599 W/m² 16,6 °C 33,8 °C 22,5 km/h (4 Bft)
24.08.2024 15:58 23,4 °C 33,8 °C 61 % 36 % 1009,1 hPa 0,0 l/m² 16,9 km/h (3 Bft) S-SO 165 ° 2 min 594 W/m² 16,6 °C 33,8 °C 25,7 km/h (4 Bft)
24.08.2024 16:00 23,4 °C 33,9 °C 61 % 36 % 1009,1 hPa 0,0 l/m² 17,0 km/h (3 Bft) S 177 ° 2 min 592 W/m² 16,7 °C 33,9 °C 25,7 km/h (4 Bft)
24.08.2024 16:02 23,4 °C 34,0 °C 61 % 35 % 1009,1 hPa 0,0 l/m² 21,6 km/h (4 Bft) S 189 ° 2 min 587 W/m² 16,3 °C 34,0 °C 30,6 km/h (5 Bft)
24.08.2024 16:03 23,4 °C 34,1 °C 61 % 35 % 1009,1 hPa 0,0 l/m² 19,0 km/h (3 Bft) S 175 ° 1 min 585 W/m² 16,4 °C 34,1 °C 24,1 km/h (4 Bft)
24.08.2024 16:04 23,4 °C 34,1 °C 61 % 35 % 1009,0 hPa 0,0 l/m² 16,8 km/h (3 Bft) W-SW 241 ° 1 min 584 W/m² 16,4 °C 34,1 °C 20,9 km/h (4 Bft)
24.08.2024 16:06 23,4 °C 34,2 °C 61 % 35 % 1009,0 hPa 0,0 l/m² 12,2 km/h (2 Bft) S-SW 202 ° 2 min 578 W/m² 16,5 °C 34,2 °C 17,7 km/h (3 Bft)
24.08.2024 16:08 23,4 °C 34,3 °C 61 % 36 % 1009,1 hPa 0,0 l/m² 15,9 km/h (3 Bft) SW 221 ° 2 min 575 W/m² 17,0 °C 34,3 °C 20,9 km/h (4 Bft)
24.08.2024 16:10 23,4 °C 34,3 °C 61 % 35 % 1009,1 hPa 0,0 l/m² 14,3 km/h (3 Bft) S-SW 205 ° 2 min 571 W/m² 16,6 °C 34,3 °C 19,3 km/h (3 Bft)
24.08.2024 16:12 23,4 °C 34,3 °C 61 % 35 % 1009,1 hPa 0,0 l/m² 14,3 km/h (3 Bft) S-SW 195 ° 2 min 568 W/m² 16,6 °C 34,3 °C 25,7 km/h (4 Bft)
24.08.2024 16:13 23,4 °C 34,3 °C 61 % 35 % 1009,1 hPa 0,0 l/m² 19,6 km/h (3 Bft) S-SW 199 ° 1 min 564 W/m² 16,6 °C 34,3 °C 22,5 km/h (4 Bft)
24.08.2024 16:14 23,4 °C 34,3 °C 60 % 34 % 1009,1 hPa 0,0 l/m² 21,2 km/h (4 Bft) S-SW 198 ° 1 min 563 W/m² 16,1 °C 34,3 °C 27,4 km/h (5 Bft)
24.08.2024 16:16 23,4 °C 34,2 °C 61 % 34 % 1009,0 hPa 0,0 l/m² 20,3 km/h (4 Bft) S 174 ° 2 min 557 W/m² 16,1 °C 34,2 °C 27,4 km/h (5 Bft)
24.08.2024 16:18 23,4 °C 34,1 °C 61 % 35 % 1009,0 hPa 0,0 l/m² 23,7 km/h (4 Bft) S 170 ° 2 min 555 W/m² 16,4 °C 34,1 °C 33,8 km/h (5 Bft)
24.08.2024 16:20 23,4 °C 34,0 °C 61 % 35 % 1009,1 hPa 0,0 l/m² 18,9 km/h (3 Bft) S 188 ° 2 min 550 W/m² 16,3 °C 34,0 °C 27,4 km/h (5 Bft)
24.08.2024 16:22 23,4 °C 34,1 °C 61 % 35 % 1009,0 hPa 0,0 l/m² 15,9 km/h (3 Bft) S 182 ° 2 min 547 W/m² 16,4 °C 34,1 °C 24,1 km/h (4 Bft)
24.08.2024 16:23 23,4 °C 34,1 °C 61 % 36 % 1009,0 hPa 0,0 l/m² 18,9 km/h (3 Bft) SW 216 ° 1 min 541 W/m² 16,9 °C 34,1 °C 22,5 km/h (4 Bft)
24.08.2024 16:24 23,4 °C 34,2 °C 61 % 35 % 1009,0 hPa 0,0 l/m² 17,1 km/h (3 Bft) S 183 ° 1 min 540 W/m² 16,5 °C 34,2 °C 19,3 km/h (3 Bft)
24.08.2024 16:26 23,4 °C 34,3 °C 61 % 35 % 1009,0 hPa 0,0 l/m² 15,1 km/h (3 Bft) S-SW 195 ° 2 min 536 W/m² 16,6 °C 34,3 °C 20,9 km/h (4 Bft)
24.08.2024 16:28 23,4 °C 34,2 °C 61 % 34 % 1008,8 hPa 0,0 l/m² 16,5 km/h (3 Bft) S 173 ° 2 min 536 W/m² 16,1 °C 34,2 °C 20,9 km/h (4 Bft)
24.08.2024 16:30 23,4 °C 34,1 °C 61 % 35 % 1008,9 hPa 0,0 l/m² 14,7 km/h (3 Bft) S-SW 211 ° 2 min 527 W/m² 16,4 °C 34,1 °C 19,3 km/h (3 Bft)
24.08.2024 16:32 23,4 °C 34,3 °C 61 % 35 % 1008,8 hPa 0,0 l/m² 9,9 km/h (2 Bft) S-SO 165 ° 2 min 524 W/m² 16,6 °C 34,3 °C 14,5 km/h (3 Bft)
24.08.2024 16:33 23,4 °C 34,3 °C 61 % 35 % 1008,8 hPa 0,0 l/m² 18,0 km/h (3 Bft) S-SO 164 ° 1 min 520 W/m² 16,6 °C 34,3 °C 24,1 km/h (4 Bft)
24.08.2024 16:34 23,4 °C 34,3 °C 61 % 35 % 1008,8 hPa 0,0 l/m² 17,1 km/h (3 Bft) S 191 ° 1 min 513 W/m² 16,6 °C 34,3 °C 22,5 km/h (4 Bft)
24.08.2024 16:36 23,4 °C 34,3 °C 61 % 35 % 1008,8 hPa 0,0 l/m² 15,6 km/h (3 Bft) S-SW 198 ° 2 min 512 W/m² 16,6 °C 34,3 °C 19,3 km/h (3 Bft)
24.08.2024 16:38 23,4 °C 34,2 °C 61 % 35 % 1008,7 hPa 0,0 l/m² 13,6 km/h (3 Bft) S 186 ° 2 min 506 W/m² 16,5 °C 34,2 °C 19,3 km/h (3 Bft)
24.08.2024 16:40 23,4 °C 34,3 °C 61 % 35 % 1008,7 hPa 0,0 l/m² 16,1 km/h (3 Bft) S-SO 166 ° 2 min 504 W/m² 16,6 °C 34,3 °C 24,1 km/h (4 Bft)
24.08.2024 16:42 23,4 °C 34,2 °C 61 % 35 % 1008,7 hPa 0,0 l/m² 17,2 km/h (3 Bft) SO 146 ° 2 min 497 W/m² 16,5 °C 34,2 °C 24,1 km/h (4 Bft)
24.08.2024 16:43 23,4 °C 34,2 °C 61 % 35 % 1008,7 hPa 0,0 l/m² 15,1 km/h (3 Bft) S-SO 151 ° 1 min 496 W/m² 16,5 °C 34,2 °C 20,9 km/h (4 Bft)
24.08.2024 16:44 23,4 °C 34,2 °C 61 % 35 % 1008,7 hPa 0,0 l/m² 13,9 km/h (3 Bft) S 175 ° 1 min 487 W/m² 16,5 °C 34,2 °C 17,7 km/h (3 Bft)
24.08.2024 16:46 23,4 °C 34,2 °C 61 % 35 % 1008,7 hPa 0,0 l/m² 19,6 km/h (3 Bft) S-SO 153 ° 2 min 485 W/m² 16,5 °C 34,2 °C 27,4 km/h (5 Bft)
24.08.2024 16:48 23,4 °C 34,2 °C 61 % 35 % 1008,6 hPa 0,0 l/m² 18,0 km/h (3 Bft) S-SO 160 ° 2 min 476 W/m² 16,5 °C 34,2 °C 29,0 km/h (5 Bft)
24.08.2024 16:50 23,4 °C 34,2 °C 61 % 35 % 1008,6 hPa 0,0 l/m² 18,7 km/h (3 Bft) S 175 ° 2 min 471 W/m² 16,5 °C 34,2 °C 30,6 km/h (5 Bft)
24.08.2024 16:52 23,4 °C 34,2 °C 61 % 35 % 1008,6 hPa 0,0 l/m² 20,8 km/h (4 Bft) S-SW 197 ° 2 min 468 W/m² 16,5 °C 34,2 °C 27,4 km/h (5 Bft)
24.08.2024 16:53 23,4 °C 34,2 °C 61 % 35 % 1008,6 hPa 0,0 l/m² 19,5 km/h (3 Bft) S-SW 207 ° 1 min 468 W/m² 16,5 °C 34,2 °C 22,5 km/h (4 Bft)
24.08.2024 16:54 23,4 °C 34,2 °C 61 % 35 % 1008,6 hPa 0,0 l/m² 15,7 km/h (3 Bft) S-SW 205 ° 1 min 462 W/m² 16,5 °C 34,2 °C 19,3 km/h (3 Bft)
24.08.2024 16:56 23,4 °C 34,1 °C 61 % 35 % 1008,5 hPa 0,0 l/m² 15,9 km/h (3 Bft) S-SO 162 ° 2 min 452 W/m² 16,4 °C 34,1 °C 20,9 km/h (4 Bft)
24.08.2024 16:58 23,4 °C 34,2 °C 61 % 35 % 1008,5 hPa 0,0 l/m² 15,8 km/h (3 Bft) S 182 ° 2 min 448 W/m² 16,5 °C 34,2 °C 22,5 km/h (4 Bft)
24.08.2024 17:00 23,4 °C 34,2 °C 61 % 35 % 1008,5 hPa 0,0 l/m² 20,5 km/h (4 Bft) S 181 ° 2 min 445 W/m² 16,5 °C 34,2 °C 27,4 km/h (5 Bft)
24.08.2024 17:02 23,4 °C 34,2 °C 61 % 35 % 1008,4 hPa 0,0 l/m² 17,5 km/h (3 Bft) S-SW 205 ° 2 min 439 W/m² 16,5 °C 34,2 °C 25,7 km/h (4 Bft)
24.08.2024 17:03 23,4 °C 34,3 °C 61 % 35 % 1008,4 hPa 0,0 l/m² 20,3 km/h (4 Bft) S-SW 195 ° 1 min 439 W/m² 16,6 °C 34,3 °C 25,7 km/h (4 Bft)
24.08.2024 17:04 23,4 °C 34,3 °C 61 % 35 % 1008,4 hPa 0,0 l/m² 23,0 km/h (4 Bft) S 188 ° 1 min 438 W/m² 16,6 °C 34,3 °C 27,4 km/h (5 Bft)
24.08.2024 17:06 23,4 °C 34,3 °C 61 % 35 % 1008,4 hPa 0,0 l/m² 19,1 km/h (3 Bft) S 169 ° 2 min 431 W/m² 16,6 °C 34,3 °C 25,7 km/h (4 Bft)
24.08.2024 17:08 23,5 °C 34,2 °C 61 % 35 % 1008,5 hPa 0,0 l/m² 17,1 km/h (3 Bft) S-SW 197 ° 2 min 427 W/m² 16,5 °C 34,2 °C 27,4 km/h (5 Bft)
24.08.2024 17:10 23,5 °C 34,2 °C 61 % 35 % 1008,4 hPa 0,0 l/m² 16,8 km/h (3 Bft) S 185 ° 2 min 415 W/m² 16,5 °C 34,2 °C 24,1 km/h (4 Bft)
24.08.2024 17:12 23,5 °C 34,2 °C 61 % 35 % 1008,4 hPa 0,0 l/m² 15,4 km/h (3 Bft) S 183 ° 2 min 410 W/m² 16,5 °C 34,2 °C 22,5 km/h (4 Bft)
24.08.2024 17:13 23,5 °C 34,1 °C 61 % 35 % 1008,4 hPa 0,0 l/m² 17,7 km/h (3 Bft) S 172 ° 1 min 410 W/m² 16,4 °C 34,1 °C 24,1 km/h (4 Bft)
24.08.2024 17:14 23,5 °C 34,1 °C 61 % 35 % 1008,3 hPa 0,0 l/m² 19,5 km/h (3 Bft) S 177 ° 1 min 406 W/m² 16,4 °C 34,1 °C 25,7 km/h (4 Bft)
24.08.2024 17:16 23,6 °C 34,0 °C 61 % 35 % 1008,4 hPa 0,0 l/m² 19,0 km/h (3 Bft) S-SO 161 ° 2 min 404 W/m² 16,3 °C 34,0 °C 27,4 km/h (5 Bft)
24.08.2024 17:18 23,6 °C 33,9 °C 61 % 35 % 1008,3 hPa 0,0 l/m² 20,3 km/h (4 Bft) S 171 ° 2 min 397 W/m² 16,2 °C 33,9 °C 30,6 km/h (5 Bft)
24.08.2024 17:20 23,6 °C 33,9 °C 61 % 35 % 1008,3 hPa 0,0 l/m² 20,1 km/h (4 Bft) S 188 ° 2 min 388 W/m² 16,2 °C 33,9 °C 25,7 km/h (4 Bft)
24.08.2024 17:22 23,4 °C 33,9 °C 61 % 35 % 1008,3 hPa 0,0 l/m² 17,4 km/h (3 Bft) S-SO 152 ° 2 min 385 W/m² 16,2 °C 33,9 °C 25,7 km/h (4 Bft)
24.08.2024 17:23 23,4 °C 33,9 °C 61 % 35 % 1008,3 hPa 0,0 l/m² 14,0 km/h (3 Bft) S 178 ° 1 min 378 W/m² 16,2 °C 33,9 °C 17,7 km/h (3 Bft)
24.08.2024 17:24 23,5 °C 33,9 °C 61 % 35 % 1008,3 hPa 0,0 l/m² 15,8 km/h (3 Bft) S-SO 148 ° 1 min 378 W/m² 16,2 °C 33,9 °C 24,1 km/h (4 Bft)
24.08.2024 17:26 23,5 °C 33,9 °C 61 % 36 % 1008,2 hPa 0,0 l/m² 13,2 km/h (3 Bft) SO 136 ° 2 min 374 W/m² 16,7 °C 33,9 °C 25,7 km/h (4 Bft)
24.08.2024 17:28 23,5 °C 34,1 °C 61 % 36 % 1008,2 hPa 0,0 l/m² 17,6 km/h (3 Bft) S-SO 150 ° 2 min 371 W/m² 16,9 °C 34,1 °C 29,0 km/h (5 Bft)
24.08.2024 17:30 23,5 °C 34,1 °C 61 % 35 % 1008,2 hPa 0,0 l/m² 16,7 km/h (3 Bft) S-SW 192 ° 2 min 366 W/m² 16,4 °C 34,1 °C 22,5 km/h (4 Bft)
24.08.2024 17:32 23,6 °C 34,1 °C 61 % 36 % 1008,2 hPa 0,0 l/m² 18,3 km/h (3 Bft) S 179 ° 2 min 362 W/m² 16,9 °C 34,1 °C 22,5 km/h (4 Bft)
24.08.2024 17:33 23,6 °C 34,1 °C 61 % 36 % 1008,2 hPa 0,0 l/m² 15,7 km/h (3 Bft) S 186 ° 1 min 357 W/m² 16,9 °C 34,1 °C 20,9 km/h (4 Bft)
24.08.2024 17:34 23,4 °C 34,1 °C 61 % 36 % 1008,1 hPa 0,0 l/m² 18,9 km/h (3 Bft) S 181 ° 1 min 352 W/m² 16,9 °C 34,1 °C 25,7 km/h (4 Bft)
24.08.2024 17:36 23,5 °C 34,1 °C 61 % 35 % 1008,2 hPa 0,0 l/m² 21,2 km/h (4 Bft) S-SW 194 ° 2 min 345 W/m² 16,4 °C 34,1 °C 29,0 km/h (5 Bft)
24.08.2024 17:38 23,5 °C 33,9 °C 61 % 35 % 1008,1 hPa 0,0 l/m² 19,9 km/h (4 Bft) S 188 ° 2 min 341 W/m² 16,2 °C 33,9 °C 27,4 km/h (5 Bft)
24.08.2024 17:40 23,5 °C 33,9 °C 61 % 35 % 1008,0 hPa 0,0 l/m² 16,5 km/h (3 Bft) S-SO 153 ° 2 min 338 W/m² 16,2 °C 33,9 °C 22,5 km/h (4 Bft)
24.08.2024 17:42 23,5 °C 33,8 °C 61 % 35 % 1007,9 hPa 0,0 l/m² 17,7 km/h (3 Bft) S-SO 151 ° 2 min 330 W/m² 16,2 °C 33,8 °C 25,7 km/h (4 Bft)
24.08.2024 17:43 23,5 °C 33,9 °C 61 % 35 % 1007,9 hPa 0,0 l/m² 18,4 km/h (3 Bft) S 173 ° 1 min 329 W/m² 16,2 °C 33,9 °C 22,5 km/h (4 Bft)
24.08.2024 17:44 23,5 °C 33,9 °C 61 % 35 % 1007,9 hPa 0,0 l/m² 18,3 km/h (3 Bft) S-SO 151 ° 1 min 329 W/m² 16,2 °C 33,9 °C 22,5 km/h (4 Bft)
24.08.2024 17:46 23,5 °C 33,8 °C 61 % 35 % 1007,9 hPa 0,0 l/m² 17,6 km/h (3 Bft) S 182 ° 2 min 322 W/m² 16,2 °C 33,8 °C 25,7 km/h (4 Bft)
24.08.2024 17:48 23,5 °C 33,9 °C 61 % 35 % 1007,9 hPa 0,0 l/m² 19,3 km/h (3 Bft) S 171 ° 2 min 315 W/m² 16,2 °C 33,9 °C 25,7 km/h (4 Bft)
24.08.2024 17:50 23,4 °C 33,9 °C 61 % 35 % 1007,8 hPa 0,0 l/m² 16,6 km/h (3 Bft) S-SO 166 ° 2 min 309 W/m² 16,2 °C 33,9 °C 25,7 km/h (4 Bft)
24.08.2024 17:52 23,4 °C 33,9 °C 61 % 35 % 1007,9 hPa 0,0 l/m² 22,9 km/h (4 Bft) S 172 ° 2 min 302 W/m² 16,2 °C 33,9 °C 32,2 km/h (5 Bft)
24.08.2024 17:53 23,4 °C 33,9 °C 61 % 35 % 1007,9 hPa 0,0 l/m² 17,7 km/h (3 Bft) S-SO 167 ° 1 min 301 W/m² 16,2 °C 33,9 °C 24,1 km/h (4 Bft)
24.08.2024 17:54 23,4 °C 33,8 °C 61 % 35 % 1007,9 hPa 0,0 l/m² 15,6 km/h (3 Bft) S-SO 165 ° 1 min 295 W/m² 16,2 °C 33,8 °C 24,1 km/h (4 Bft)
24.08.2024 17:56 23,4 °C 33,8 °C 61 % 36 % 1007,8 hPa 0,0 l/m² 13,7 km/h (3 Bft) S-SO 161 ° 2 min 292 W/m² 16,6 °C 33,8 °C 24,1 km/h (4 Bft)
24.08.2024 17:58 23,4 °C 33,8 °C 61 % 36 % 1007,7 hPa 0,0 l/m² 15,1 km/h (3 Bft) S 181 ° 2 min 287 W/m² 16,6 °C 33,8 °C 24,1 km/h (4 Bft)
24.08.2024 18:00 23,5 °C 33,8 °C 61 % 36 % 1007,8 hPa 0,0 l/m² 18,8 km/h (3 Bft) S-SO 159 ° 2 min 279 W/m² 16,6 °C 33,8 °C 27,4 km/h (5 Bft)
24.08.2024 18:02 23,4 °C 33,8 °C 61 % 35 % 1007,7 hPa 0,0 l/m² 15,9 km/h (3 Bft) S-SO 167 ° 2 min 274 W/m² 16,2 °C 33,8 °C 22,5 km/h (4 Bft)
24.08.2024 18:03 23,4 °C 33,7 °C 61 % 36 % 1007,7 hPa 0,0 l/m² 16,1 km/h (3 Bft) S 173 ° 1 min 271 W/m² 16,5 °C 33,7 °C 22,5 km/h (4 Bft)
24.08.2024 18:04 23,4 °C 33,7 °C 61 % 35 % 1007,7 hPa 0,0 l/m² 17,0 km/h (3 Bft) S-SO 160 ° 1 min 267 W/m² 16,1 °C 33,7 °C 25,7 km/h (4 Bft)
24.08.2024 18:06 23,4 °C 33,7 °C 61 % 36 % 1007,7 hPa 0,0 l/m² 18,5 km/h (3 Bft) S-SO 152 ° 2 min 69 W/m² 16,5 °C 33,7 °C 29,0 km/h (5 Bft)
24.08.2024 18:08 23,4 °C 33,7 °C 61 % 36 % 1007,7 hPa 0,0 l/m² 15,7 km/h (3 Bft) S 189 ° 2 min 251 W/m² 16,5 °C 33,7 °C 25,7 km/h (4 Bft)
24.08.2024 18:10 23,4 °C 33,8 °C 61 % 36 % 1007,6 hPa 0,0 l/m² 18,8 km/h (3 Bft) S-SO 166 ° 2 min 186 W/m² 16,6 °C 33,8 °C 27,4 km/h (5 Bft)
24.08.2024 18:12 23,5 °C 33,7 °C 61 % 35 % 1007,5 hPa 0,0 l/m² 16,9 km/h (3 Bft) S 180 ° 2 min 250 W/m² 16,1 °C 33,7 °C 27,4 km/h (5 Bft)
24.08.2024 18:13 23,5 °C 33,7 °C 61 % 36 % 1007,5 hPa 0,0 l/m² 14,5 km/h (3 Bft) S 171 ° 1 min 91 W/m² 16,5 °C 33,7 °C 20,9 km/h (4 Bft)
24.08.2024 18:14 23,4 °C 33,7 °C 61 % 36 % 1007,6 hPa 0,0 l/m² 13,8 km/h (3 Bft) S-SO 167 ° 1 min 93 W/m² 16,5 °C 33,7 °C 22,5 km/h (4 Bft)
24.08.2024 18:16 23,4 °C 33,7 °C 61 % 36 % 1007,5 hPa 0,0 l/m² 13,2 km/h (3 Bft) S-SO 148 ° 2 min 53 W/m² 16,5 °C 33,7 °C 22,5 km/h (4 Bft)
24.08.2024 18:18 23,4 °C 33,7 °C 61 % 35 % 1007,6 hPa 0,0 l/m² 19,1 km/h (3 Bft) S 182 ° 2 min 58 W/m² 16,1 °C 33,7 °C 27,4 km/h (5 Bft)
24.08.2024 18:20 23,4 °C 33,7 °C 61 % 35 % 1007,6 hPa 0,0 l/m² 19,7 km/h (3 Bft) S 180 ° 2 min 134 W/m² 16,1 °C 33,7 °C 33,8 km/h (5 Bft)
24.08.2024 18:22 23,4 °C 33,7 °C 61 % 36 % 1007,4 hPa 0,0 l/m² 19,1 km/h (3 Bft) S 191 ° 2 min 97 W/m² 16,5 °C 33,7 °C 27,4 km/h (5 Bft)
24.08.2024 18:23 23,4 °C 33,6 °C 61 % 35 % 1007,4 hPa 0,0 l/m² 17,0 km/h (3 Bft) S 173 ° 1 min 97 W/m² 16,0 °C 33,6 °C 22,5 km/h (4 Bft)
24.08.2024 18:24 23,4 °C 33,6 °C 61 % 36 % 1007,5 hPa 0,0 l/m² 15,9 km/h (3 Bft) S 173 ° 0 min 47 W/m² 16,4 °C 33,6 °C 25,7 km/h (4 Bft)
24.08.2024 18:26 23,4 °C 33,6 °C 61 % 35 % 1007,5 hPa 0,0 l/m² 20,8 km/h (4 Bft) S 169 ° 2 min 91 W/m² 16,0 °C 33,6 °C 29,0 km/h (5 Bft)
24.08.2024 18:28 23,4 °C 33,6 °C 61 % 35 % 1007,4 hPa 0,0 l/m² 22,4 km/h (4 Bft) S 188 ° 0 min 46 W/m² 16,0 °C 33,6 °C 35,4 km/h (5 Bft)
24.08.2024 18:30 23,4 °C 33,6 °C 61 % 35 % 1007,4 hPa 0,0 l/m² 20,0 km/h (4 Bft) S 189 ° 0 min 46 W/m² 16,0 °C 33,6 °C 29,0 km/h (5 Bft)
24.08.2024 18:32 23,4 °C 33,6 °C 61 % 36 % 1007,4 hPa 0,0 l/m² 19,6 km/h (3 Bft) S 170 ° 0 min 47 W/m² 16,4 °C 33,6 °C 30,6 km/h (5 Bft)
24.08.2024 18:33 23,4 °C 33,5 °C 61 % 36 % 1007,4 hPa 0,0 l/m² 22,8 km/h (4 Bft) S 178 ° 0 min 44 W/m² 16,3 °C 33,5 °C 30,6 km/h (5 Bft)
24.08.2024 18:34 23,4 °C 33,5 °C 61 % 36 % 1007,3 hPa 0,0 l/m² 21,5 km/h (4 Bft) S-SW 213 ° 0 min 51 W/m² 16,3 °C 33,5 °C 27,4 km/h (5 Bft)
24.08.2024 18:36 23,4 °C 33,5 °C 61 % 36 % 1007,4 hPa 0,0 l/m² 19,4 km/h (3 Bft) S-SW 208 ° 0 min 42 W/m² 16,3 °C 33,5 °C 27,4 km/h (5 Bft)
24.08.2024 18:38 23,4 °C 33,4 °C 61 % 36 % 1007,3 hPa 0,0 l/m² 19,1 km/h (3 Bft) S 185 ° 2 min 83 W/m² 16,3 °C 33,4 °C 24,1 km/h (4 Bft)
24.08.2024 18:40 23,5 °C 33,4 °C 61 % 36 % 1007,3 hPa 0,0 l/m² 20,4 km/h (4 Bft) S 178 ° 0 min 44 W/m² 16,3 °C 33,4 °C 32,2 km/h (5 Bft)
24.08.2024 18:42 23,4 °C 33,4 °C 60 % 36 % 1007,3 hPa 0,0 l/m² 15,4 km/h (3 Bft) S 176 ° 0 min 42 W/m² 16,3 °C 33,4 °C 24,1 km/h (4 Bft)
24.08.2024 18:43 23,4 °C 33,4 °C 60 % 36 % 1007,3 hPa 0,0 l/m² 17,0 km/h (3 Bft) S 169 ° 0 min 40 W/m² 16,3 °C 33,4 °C 20,9 km/h (4 Bft)
24.08.2024 18:46 23,4 °C 33,3 °C 61 % 36 % 1007,2 hPa 0,0 l/m² 19,8 km/h (3 Bft) S 175 ° 0 min 40 W/m² 16,2 °C 33,3 °C 32,2 km/h (5 Bft)
24.08.2024 18:48 23,4 °C 33,3 °C 61 % 36 % 1007,2 hPa 0,0 l/m² 19,2 km/h (3 Bft) S 180 ° 0 min 39 W/m² 16,2 °C 33,3 °C 32,2 km/h (5 Bft)
24.08.2024 18:50 23,4 °C 33,3 °C 60 % 37 % 1007,2 hPa 0,0 l/m² 17,0 km/h (3 Bft) S 172 ° 0 min 39 W/m² 16,6 °C 33,3 °C 24,1 km/h (4 Bft)
24.08.2024 18:52 23,4 °C 33,2 °C 60 % 36 % 1007,2 hPa 0,0 l/m² 20,0 km/h (4 Bft) S-SO 168 ° 0 min 37 W/m² 16,1 °C 33,2 °C 27,4 km/h (5 Bft)
24.08.2024 18:53 23,4 °C 33,2 °C 60 % 36 % 1007,2 hPa 0,0 l/m² 19,9 km/h (4 Bft) S-SW 192 ° 0 min 37 W/m² 16,1 °C 33,2 °C 27,4 km/h (5 Bft)
24.08.2024 18:54 23,4 °C 33,2 °C 60 % 36 % 1007,1 hPa 0,0 l/m² 19,0 km/h (3 Bft) S-SO 165 ° 0 min 37 W/m² 16,1 °C 33,2 °C 29,0 km/h (5 Bft)
24.08.2024 18:56 23,4 °C 33,2 °C 60 % 36 % 1007,1 hPa 0,0 l/m² 22,8 km/h (4 Bft) S-SW 194 ° 0 min 37 W/m² 16,1 °C 33,2 °C 30,6 km/h (5 Bft)
24.08.2024 18:58 23,4 °C 33,1 °C 60 % 36 % 1007,1 hPa 0,0 l/m² 18,4 km/h (3 Bft) S 186 ° 0 min 35 W/m² 16,0 °C 33,1 °C 24,1 km/h (4 Bft)
24.08.2024 19:00 23,4 °C 33,1 °C 60 % 37 % 1007,1 hPa 0,0 l/m² 14,4 km/h (3 Bft) S-SO 157 ° 0 min 35 W/m² 16,4 °C 33,1 °C 19,3 km/h (3 Bft)
24.08.2024 19:02 23,4 °C 32,9 °C 60 % 37 % 1007,0 hPa 0,0 l/m² 12,5 km/h (2 Bft) S-SW 199 ° 0 min 42 W/m² 16,2 °C 32,9 °C 17,7 km/h (3 Bft)
24.08.2024 19:03 23,4 °C 32,9 °C 60 % 37 % 1007,0 hPa 0,0 l/m² 13,8 km/h (3 Bft) S 188 ° 0 min 33 W/m² 16,2 °C 32,9 °C 17,7 km/h (3 Bft)
24.08.2024 19:04 23,4 °C 32,9 °C 60 % 37 % 1007,1 hPa 0,0 l/m² 15,0 km/h (3 Bft) S-SO 151 ° 0 min 44 W/m² 16,2 °C 32,9 °C 19,3 km/h (3 Bft)
24.08.2024 19:06 23,4 °C 32,8 °C 61 % 37 % 1007,1 hPa 0,0 l/m² 13,9 km/h (3 Bft) S 180 ° 0 min 35 W/m² 16,2 °C 32,8 °C 25,7 km/h (4 Bft)
24.08.2024 19:08 23,4 °C 32,8 °C 60 % 38 % 1007,1 hPa 0,0 l/m² 15,5 km/h (3 Bft) S 170 ° 0 min 32 W/m² 16,6 °C 32,8 °C 22,5 km/h (4 Bft)
24.08.2024 19:10 23,4 °C 32,8 °C 60 % 38 % 1007,0 hPa 0,0 l/m² 11,1 km/h (2 Bft) S 171 ° 0 min 35 W/m² 16,6 °C 32,8 °C 14,5 km/h (3 Bft)
24.08.2024 19:12 23,4 °C 32,7 °C 60 % 38 % 1007,0 hPa 0,0 l/m² 14,5 km/h (3 Bft) S 187 ° 0 min 30 W/m² 16,5 °C 32,6 °C 22,5 km/h (4 Bft)
24.08.2024 19:13 23,4 °C 32,7 °C 60 % 38 % 1007,0 hPa 0,0 l/m² 14,4 km/h (3 Bft) S-SO 167 ° 0 min 40 W/m² 16,5 °C 32,6 °C 19,3 km/h (3 Bft)
24.08.2024 19:14 23,4 °C 32,7 °C 60 % 38 % 1007,0 hPa 0,0 l/m² 15,9 km/h (3 Bft) S-SW 194 ° 0 min 30 W/m² 16,5 °C 32,6 °C 19,3 km/h (3 Bft)
24.08.2024 19:16 23,4 °C 32,6 °C 60 % 38 % 1007,0 hPa 0,0 l/m² 14,4 km/h (3 Bft) S 177 ° 0 min 28 W/m² 16,4 °C 32,5 °C 19,3 km/h (3 Bft)
24.08.2024 19:18 23,4 °C 32,6 °C 60 % 38 % 1007,1 hPa 0,0 l/m² 14,5 km/h (3 Bft) S-SO 167 ° 0 min 28 W/m² 16,4 °C 32,5 °C 19,3 km/h (3 Bft)
24.08.2024 19:20 23,4 °C 32,5 °C 60 % 38 % 1007,0 hPa 0,0 l/m² 11,1 km/h (2 Bft) S 184 ° 0 min 28 W/m² 16,3 °C 32,4 °C 16,1 km/h (3 Bft)
24.08.2024 19:22 23,4 °C 32,4 °C 60 % 38 % 1007,0 hPa 0,0 l/m² 11,5 km/h (2 Bft) S-SO 163 ° 0 min 26 W/m² 16,2 °C 32,3 °C 17,7 km/h (3 Bft)
24.08.2024 19:23 23,4 °C 32,3 °C 60 % 38 % 1007,0 hPa 0,0 l/m² 8,6 km/h (2 Bft) S 189 ° 0 min 26 W/m² 16,1 °C 32,3 °C 11,3 km/h (2 Bft)
24.08.2024 19:24 23,4 °C 32,3 °C 60 % 39 % 1007,0 hPa 0,0 l/m² 15,1 km/h (3 Bft) S-SO 163 ° 0 min 26 W/m² 16,5 °C 32,2 °C 20,9 km/h (4 Bft)
24.08.2024 19:26 23,4 °C 32,3 °C 60 % 39 % 1007,0 hPa 0,0 l/m² 12,5 km/h (2 Bft) S 169 ° 0 min 25 W/m² 16,5 °C 32,2 °C 19,3 km/h (3 Bft)
24.08.2024 19:28 23,4 °C 32,2 °C 60 % 39 % 1007,0 hPa 0,0 l/m² 9,6 km/h (2 Bft) S-SO 167 ° 0 min 25 W/m² 16,5 °C 32,1 °C 12,9 km/h (3 Bft)
24.08.2024 19:30 23,4 °C 32,1 °C 60 % 39 % 1006,9 hPa 0,0 l/m² 10,0 km/h (2 Bft) S 180 ° 0 min 25 W/m² 16,4 °C 32,0 °C 14,5 km/h (3 Bft)
24.08.2024 19:32 23,4 °C 31,9 °C 60 % 39 % 1007,0 hPa 0,0 l/m² 9,1 km/h (2 Bft) S 170 ° 0 min 23 W/m² 16,2 °C 31,8 °C 17,7 km/h (3 Bft)
24.08.2024 19:33 23,4 °C 31,9 °C 60 % 39 % 1007,0 hPa 0,0 l/m² 11,6 km/h (2 Bft) S-SO 155 ° 0 min 23 W/m² 16,2 °C 31,7 °C 16,1 km/h (3 Bft)
24.08.2024 19:34 23,4 °C 31,9 °C 60 % 39 % 1006,9 hPa 0,0 l/m² 8,7 km/h (2 Bft) S 181 ° 0 min 23 W/m² 16,2 °C 31,8 °C 11,3 km/h (2 Bft)
24.08.2024 19:36 23,4 °C 31,8 °C 60 % 40 % 1007,0 hPa 0,0 l/m² 7,9 km/h (2 Bft) S 182 ° 0 min 21 W/m² 16,5 °C 31,7 °C 11,3 km/h (2 Bft)
24.08.2024 19:38 23,4 °C 31,7 °C 60 % 40 % 1007,0 hPa 0,0 l/m² 8,7 km/h (2 Bft) S 179 ° 0 min 21 W/m² 16,4 °C 31,6 °C 12,9 km/h (3 Bft)
24.08.2024 19:40 23,4 °C 31,6 °C 60 % 40 % 1006,9 hPa 0,0 l/m² 8,2 km/h (2 Bft) S 179 ° 0 min 19 W/m² 16,3 °C 31,5 °C 11,3 km/h (2 Bft)
24.08.2024 19:42 23,4 °C 31,5 °C 60 % 40 % 1007,0 hPa 0,0 l/m² 10,0 km/h (2 Bft) S 178 ° 0 min 19 W/m² 16,2 °C 31,3 °C 14,5 km/h (3 Bft)
24.08.2024 19:43 23,4 °C 31,4 °C 60 % 41 % 1007,0 hPa 0,0 l/m² 8,6 km/h (2 Bft) S 174 ° 0 min 18 W/m² 16,5 °C 31,3 °C 9,7 km/h (2 Bft)
24.08.2024 19:44 23,4 °C 31,4 °C 60 % 41 % 1006,9 hPa 0,0 l/m² 8,4 km/h (2 Bft) S 189 ° 0 min 18 W/m² 16,5 °C 31,3 °C 9,7 km/h (2 Bft)
24.08.2024 19:46 23,4 °C 31,3 °C 60 % 41 % 1006,9 hPa 0,0 l/m² 6,4 km/h (2 Bft) S 180 ° 0 min 16 W/m² 16,4 °C 31,3 °C 9,7 km/h (2 Bft)
24.08.2024 19:48 23,4 °C 31,1 °C 60 % 41 % 1006,9 hPa 0,0 l/m² 5,7 km/h (2 Bft) S 169 ° 0 min 16 W/m² 16,3 °C 31,1 °C 11,3 km/h (2 Bft)
24.08.2024 19:50 23,4 °C 31,0 °C 60 % 41 % 1006,9 hPa 0,0 l/m² 7,6 km/h (2 Bft) S-SO 167 ° 0 min 14 W/m² 16,2 °C 30,9 °C 11,3 km/h (2 Bft)
24.08.2024 19:52 23,4 °C 30,9 °C 60 % 42 % 1006,9 hPa 0,0 l/m² 6,7 km/h (2 Bft) S-SO 152 ° 0 min 14 W/m² 16,5 °C 30,9 °C 9,7 km/h (2 Bft)
24.08.2024 19:53 23,4 °C 30,8 °C 60 % 42 % 1006,9 hPa 0,0 l/m² 5,4 km/h (2 Bft) S-SO 158 ° 0 min 14 W/m² 16,4 °C 30,8 °C 6,4 km/h (2 Bft)
24.08.2024 19:54 23,4 °C 30,8 °C 60 % 42 % 1006,9 hPa 0,0 l/m² 4,5 km/h (1 Bft) S-SO 161 ° 0 min 12 W/m² 16,4 °C 30,8 °C 6,4 km/h (2 Bft)
24.08.2024 19:56 23,4 °C 30,7 °C 60 % 42 % 1006,9 hPa 0,0 l/m² 5,1 km/h (1 Bft) S 178 ° 0 min 12 W/m² 16,3 °C 30,7 °C 8,0 km/h (2 Bft)
24.08.2024 19:58 23,4 °C 30,4 °C 60 % 43 % 1006,8 hPa 0,0 l/m² 4,6 km/h (1 Bft) S-SO 159 ° 0 min 11 W/m² 16,4 °C 30,4 °C 6,4 km/h (2 Bft)
24.08.2024 20:00 23,4 °C 30,3 °C 60 % 43 % 1006,9 hPa 0,0 l/m² 5,5 km/h (2 Bft) S-SO 153 ° 0 min 11 W/m² 16,3 °C 30,3 °C 8,0 km/h (2 Bft)
24.08.2024 20:02 23,4 °C 30,2 °C 60 % 44 % 1006,9 hPa 0,0 l/m² 5,1 km/h (1 Bft) S-SO 161 ° 0 min 9 W/m² 16,6 °C 30,2 °C 9,7 km/h (2 Bft)
24.08.2024 20:03 23,4 °C 30,1 °C 60 % 44 % 1006,9 hPa 0,0 l/m² 5,2 km/h (1 Bft) S-SO 162 ° 0 min 9 W/m² 16,5 °C 30,1 °C 6,4 km/h (2 Bft)
24.08.2024 20:04 23,4 °C 30,0 °C 60 % 44 % 1006,9 hPa 0,0 l/m² 3,5 km/h (1 Bft) S-SO 161 ° 0 min 9 W/m² 16,4 °C 30,0 °C 6,4 km/h (2 Bft)
24.08.2024 20:06 23,4 °C 29,9 °C 60 % 44 % 1006,9 hPa 0,0 l/m² 5,6 km/h (2 Bft) S-SO 157 ° 0 min 7 W/m² 16,3 °C 29,9 °C 8,0 km/h (2 Bft)
24.08.2024 20:08 23,4 °C 29,8 °C 60 % 45 % 1006,9 hPa 0,0 l/m² 6,0 km/h (2 Bft) S-SO 159 ° 0 min 7 W/m² 16,6 °C 29,8 °C 8,0 km/h (2 Bft)
24.08.2024 20:10 23,4 °C 29,7 °C 60 % 45 % 1006,8 hPa 0,0 l/m² 6,2 km/h (2 Bft) S-SO 159 ° 0 min 5 W/m² 16,5 °C 29,7 °C 9,7 km/h (2 Bft)
24.08.2024 20:12 23,4 °C 29,6 °C 60 % 45 % 1006,9 hPa 0,0 l/m² 5,9 km/h (2 Bft) S-SO 155 ° 0 min 5 W/m² 16,4 °C 29,6 °C 8,0 km/h (2 Bft)
24.08.2024 20:13 23,4 °C 29,6 °C 60 % 45 % 1006,9 hPa 0,0 l/m² 4,7 km/h (1 Bft) S-SO 155 ° 0 min 5 W/m² 16,4 °C 29,6 °C 6,4 km/h (2 Bft)
24.08.2024 20:14 23,4 °C 29,5 °C 60 % 45 % 1006,9 hPa 0,0 l/m² 6,2 km/h (2 Bft) S-SO 158 ° 0 min 0 W/m² 16,3 °C 29,5 °C 8,0 km/h (2 Bft)
24.08.2024 20:16 23,4 °C 29,4 °C 60 % 46 % 1006,9 hPa 0,0 l/m² 5,4 km/h (2 Bft) S-SO 168 ° 0 min 0 W/m² 16,5 °C 29,4 °C 8,0 km/h (2 Bft)
24.08.2024 20:18 23,4 °C 29,3 °C 60 % 46 % 1006,9 hPa 0,0 l/m² 5,0 km/h (1 Bft) S-SO 167 ° 0 min 0 W/m² 16,5 °C 29,3 °C 8,0 km/h (2 Bft)
24.08.2024 20:20 23,4 °C 29,2 °C 60 % 46 % 1006,8 hPa 0,0 l/m² 6,3 km/h (2 Bft) S-SO 166 ° 0 min 0 W/m² 16,4 °C 29,2 °C 9,7 km/h (2 Bft)
24.08.2024 20:22 23,4 °C 29,2 °C 60 % 46 % 1006,8 hPa 0,0 l/m² 6,4 km/h (2 Bft) S-SO 161 ° 0 min 0 W/m² 16,4 °C 29,2 °C 9,7 km/h (2 Bft)
24.08.2024 20:23 23,4 °C 29,2 °C 60 % 46 % 1006,8 hPa 0,0 l/m² 5,4 km/h (2 Bft) S-SO 151 ° 0 min 0 W/m² 16,4 °C 29,2 °C 8,0 km/h (2 Bft)
24.08.2024 20:24 23,4 °C 29,1 °C 60 % 46 % 1006,9 hPa 0,0 l/m² 8,2 km/h (2 Bft) S-SO 156 ° 0 min 0 W/m² 16,3 °C 28,9 °C 12,9 km/h (3 Bft)
24.08.2024 20:26 23,4 °C 29,1 °C 60 % 46 % 1006,9 hPa 0,0 l/m² 8,6 km/h (2 Bft) S-SO 163 ° 0 min 0 W/m² 16,3 °C 28,8 °C 12,9 km/h (3 Bft)
24.08.2024 20:28 23,4 °C 29,1 °C 60 % 46 % 1006,9 hPa 0,0 l/m² 5,5 km/h (2 Bft) S-SO 156 ° 0 min 0 W/m² 16,3 °C 29,1 °C 9,7 km/h (2 Bft)
24.08.2024 20:30 23,4 °C 28,9 °C 60 % 46 % 1006,9 hPa 0,0 l/m² 5,4 km/h (2 Bft) S-SO 162 ° 0 min 0 W/m² 16,1 °C 28,9 °C 8,0 km/h (2 Bft)
24.08.2024 20:32 23,4 °C 28,8 °C 61 % 46 % 1006,9 hPa 0,0 l/m² 5,3 km/h (1 Bft) S-SO 162 ° 0 min 0 W/m² 16,0 °C 28,8 °C 9,7 km/h (2 Bft)
24.08.2024 20:33 23,4 °C 28,8 °C 61 % 47 % 1006,9 hPa 0,0 l/m² 6,8 km/h (2 Bft) SO 144 ° 0 min 0 W/m² 16,3 °C 28,7 °C 9,7 km/h (2 Bft)
24.08.2024 20:34 23,4 °C 28,8 °C 60 % 47 % 1006,8 hPa 0,0 l/m² 5,4 km/h (2 Bft) S-SO 156 ° 0 min 0 W/m² 16,3 °C 28,8 °C 8,0 km/h (2 Bft)
24.08.2024 20:36 23,4 °C 28,8 °C 60 % 47 % 1006,8 hPa 0,0 l/m² 6,1 km/h (2 Bft) S-SO 159 ° 0 min 0 W/m² 16,3 °C 28,8 °C 8,0 km/h (2 Bft)
24.08.2024 20:38 23,4 °C 28,7 °C 60 % 47 % 1006,8 hPa 0,0 l/m² 5,9 km/h (2 Bft) S-SO 159 ° 0 min 0 W/m² 16,3 °C 28,7 °C 9,7 km/h (2 Bft)
24.08.2024 20:40 23,4 °C 28,7 °C 60 % 47 % 1006,8 hPa 0,0 l/m² 5,1 km/h (1 Bft) S-SO 155 ° 0 min 0 W/m² 16,3 °C 28,7 °C 8,0 km/h (2 Bft)
24.08.2024 20:42 23,4 °C 28,6 °C 61 % 47 % 1006,8 hPa 0,0 l/m² 4,8 km/h (1 Bft) S-SO 155 ° 0 min 0 W/m² 16,2 °C 28,6 °C 8,0 km/h (2 Bft)
24.08.2024 20:43 23,4 °C 28,6 °C 61 % 47 % 1006,8 hPa 0,0 l/m² 6,2 km/h (2 Bft) S-SO 163 ° 0 min 0 W/m² 16,2 °C 28,6 °C 6,4 km/h (2 Bft)
24.08.2024 20:44 23,4 °C 28,5 °C 61 % 47 % 1006,8 hPa 0,0 l/m² 5,5 km/h (2 Bft) S-SO 157 ° 0 min 0 W/m² 16,1 °C 28,5 °C 8,0 km/h (2 Bft)
24.08.2024 20:46 23,4 °C 28,4 °C 60 % 47 % 1006,7 hPa 0,0 l/m² 4,6 km/h (1 Bft) S-SO 151 ° 0 min 0 W/m² 16,0 °C 28,4 °C 8,0 km/h (2 Bft)
24.08.2024 20:48 23,4 °C 28,4 °C 60 % 47 % 1006,7 hPa 0,0 l/m² 4,6 km/h (1 Bft) S-SO 160 ° 0 min 0 W/m² 16,0 °C 28,4 °C 8,0 km/h (2 Bft)
24.08.2024 20:50 23,4 °C 28,3 °C 60 % 47 % 1006,7 hPa 0,0 l/m² 5,2 km/h (1 Bft) S-SO 150 ° 0 min 0 W/m² 15,9 °C 28,3 °C 8,0 km/h (2 Bft)
24.08.2024 20:52 23,4 °C 28,4 °C 60 % 47 % 1006,6 hPa 0,0 l/m² 4,5 km/h (1 Bft) SO 129 ° 0 min 0 W/m² 16,0 °C 28,4 °C 6,4 km/h (2 Bft)
24.08.2024 20:53 23,4 °C 28,4 °C 60 % 48 % 1006,6 hPa 0,0 l/m² 4,9 km/h (1 Bft) O-SO 123 ° 0 min 0 W/m² 16,3 °C 28,4 °C 6,4 km/h (2 Bft)
24.08.2024 20:54 23,4 °C 28,3 °C 60 % 48 % 1006,6 hPa 0,0 l/m² 3,9 km/h (1 Bft) O-SO 122 ° 0 min 0 W/m² 16,2 °C 28,3 °C 6,4 km/h (2 Bft)
24.08.2024 20:56 23,4 °C 28,2 °C 60 % 48 % 1006,6 hPa 0,0 l/m² 4,8 km/h (1 Bft) O-SO 123 ° 0 min 0 W/m² 16,1 °C 28,2 °C 8,0 km/h (2 Bft)
24.08.2024 20:58 23,4 °C 28,2 °C 60 % 49 % 1006,6 hPa 0,0 l/m² 4,6 km/h (1 Bft) O-SO 123 ° 0 min 0 W/m² 16,5 °C 28,2 °C 6,4 km/h (2 Bft)
24.08.2024 21:00 23,4 °C 28,1 °C 60 % 49 % 1006,6 hPa 0,0 l/m² 3,9 km/h (1 Bft) SO 126 ° 0 min 0 W/m² 16,4 °C 28,1 °C 6,4 km/h (2 Bft)
24.08.2024 21:02 23,4 °C 28,1 °C 60 % 49 % 1006,6 hPa 0,0 l/m² 5,0 km/h (1 Bft) SO 124 ° 0 min 0 W/m² 16,4 °C 28,1 °C 8,0 km/h (2 Bft)
24.08.2024 21:03 23,4 °C 28,0 °C 60 % 49 % 1006,6 hPa 0,0 l/m² 4,1 km/h (1 Bft) SO 124 ° 0 min 0 W/m² 16,3 °C 28,0 °C 6,4 km/h (2 Bft)
24.08.2024 21:04 23,4 °C 28,0 °C 61 % 49 % 1006,5 hPa 0,0 l/m² 2,8 km/h (1 Bft) O-SO 122 ° 0 min 0 W/m² 16,3 °C 28,0 °C 4,8 km/h (1 Bft)
24.08.2024 21:06 23,4 °C 27,9 °C 61 % 49 % 1006,6 hPa 0,0 l/m² 4,9 km/h (1 Bft) O-SO 117 ° 0 min 0 W/m² 16,2 °C 27,9 °C 9,7 km/h (2 Bft)
24.08.2024 21:08 23,4 °C 27,7 °C 60 % 50 % 1006,5 hPa 0,0 l/m² 5,0 km/h (1 Bft) O-SO 122 ° 0 min 0 W/m² 16,3 °C 27,7 °C 12,9 km/h (3 Bft)
24.08.2024 21:10 23,4 °C 27,6 °C 60 % 50 % 1006,5 hPa 0,0 l/m² 6,2 km/h (2 Bft) O-SO 121 ° 0 min 0 W/m² 16,2 °C 27,6 °C 11,3 km/h (2 Bft)
24.08.2024 21:12 23,4 °C 27,5 °C 60 % 51 % 1006,6 hPa 0,0 l/m² 5,0 km/h (1 Bft) O-SO 117 ° 0 min 0 W/m² 16,4 °C 27,5 °C 9,7 km/h (2 Bft)
24.08.2024 21:13 23,4 °C 27,5 °C 60 % 51 % 1006,6 hPa 0,0 l/m² 5,4 km/h (2 Bft) O-SO 117 ° 0 min 0 W/m² 16,4 °C 27,5 °C 6,4 km/h (2 Bft)
24.08.2024 21:14 23,4 °C 27,4 °C 60 % 51 % 1006,5 hPa 0,0 l/m² 5,5 km/h (2 Bft) O-SO 120 ° 0 min 0 W/m² 16,3 °C 27,4 °C 6,4 km/h (2 Bft)
24.08.2024 21:16 23,4 °C 27,4 °C 60 % 51 % 1006,5 hPa 0,0 l/m² 7,8 km/h (2 Bft) O-SO 115 ° 0 min 0 W/m² 16,3 °C 27,2 °C 14,5 km/h (3 Bft)
24.08.2024 21:18 23,4 °C 27,5 °C 60 % 50 % 1006,5 hPa 0,0 l/m² 5,8 km/h (2 Bft) O-SO 121 ° 0 min 0 W/m² 16,1 °C 27,5 °C 9,7 km/h (2 Bft)
24.08.2024 21:20 23,4 °C 27,6 °C 61 % 51 % 1006,6 hPa 0,0 l/m² 5,7 km/h (2 Bft) O-SO 120 ° 0 min 0 W/m² 16,5 °C 27,6 °C 11,3 km/h (2 Bft)
24.08.2024 21:22 23,4 °C 27,6 °C 60 % 50 % 1006,5 hPa 0,0 l/m² 7,2 km/h (2 Bft) O-SO 114 ° 0 min 0 W/m² 16,2 °C 27,5 °C 12,9 km/h (3 Bft)
24.08.2024 21:23 23,4 °C 27,6 °C 60 % 50 % 1006,5 hPa 0,0 l/m² 7,3 km/h (2 Bft) O-SO 123 ° 0 min 0 W/m² 16,2 °C 27,4 °C 12,9 km/h (3 Bft)
24.08.2024 21:24 23,4 °C 27,7 °C 60 % 50 % 1006,5 hPa 0,0 l/m² 5,7 km/h (2 Bft) O-SO 114 ° 0 min 0 W/m² 16,3 °C 27,7 °C 11,3 km/h (2 Bft)
24.08.2024 21:26 23,4 °C 27,7 °C 61 % 50 % 1006,5 hPa 0,0 l/m² 6,4 km/h (2 Bft) SO 128 ° 0 min 0 W/m² 16,3 °C 27,7 °C 11,3 km/h (2 Bft)
24.08.2024 21:28 23,4 °C 27,7 °C 60 % 50 % 1006,4 hPa 0,0 l/m² 7,1 km/h (2 Bft) O-SO 120 ° 0 min 0 W/m² 16,3 °C 27,6 °C 11,3 km/h (2 Bft)
24.08.2024 21:30 23,4 °C 27,6 °C 60 % 50 % 1006,3 hPa 0,0 l/m² 7,5 km/h (2 Bft) O-SO 115 ° 0 min 0 W/m² 16,2 °C 27,4 °C 12,9 km/h (3 Bft)
24.08.2024 21:32 23,4 °C 27,6 °C 60 % 50 % 1006,4 hPa 0,0 l/m² 7,2 km/h (2 Bft) O-SO 117 ° 0 min 0 W/m² 16,2 °C 27,5 °C 16,1 km/h (3 Bft)
24.08.2024 21:33 23,4 °C 27,5 °C 60 % 50 % 1006,4 hPa 0,0 l/m² 8,3 km/h (2 Bft) O-SO 113 ° 0 min 0 W/m² 16,1 °C 27,2 °C 11,3 km/h (2 Bft)
24.08.2024 21:34 23,4 °C 27,4 °C 60 % 50 % 1006,4 hPa 0,0 l/m² 9,5 km/h (2 Bft) O-SO 110 ° 0 min 0 W/m² 16,0 °C 26,9 °C 12,9 km/h (3 Bft)
24.08.2024 21:36 23,4 °C 27,4 °C 61 % 51 % 1006,4 hPa 0,0 l/m² 7,6 km/h (2 Bft) O-SO 103 ° 0 min 0 W/m² 16,3 °C 27,2 °C 11,3 km/h (2 Bft)
24.08.2024 21:38 23,4 °C 27,3 °C 60 % 51 % 1006,3 hPa 0,0 l/m² 7,7 km/h (2 Bft) O-SO 107 ° 0 min 0 W/m² 16,3 °C 27,1 °C 11,3 km/h (2 Bft)
24.08.2024 21:40 23,4 °C 27,3 °C 61 % 51 % 1006,3 hPa 0,0 l/m² 9,0 km/h (2 Bft) O-SO 112 ° 0 min 0 W/m² 16,3 °C 26,9 °C 12,9 km/h (3 Bft)
24.08.2024 21:42 23,4 °C 27,3 °C 60 % 52 % 1006,3 hPa 0,0 l/m² 8,9 km/h (2 Bft) O-SO 117 ° 0 min 0 W/m² 16,6 °C 26,9 °C 12,9 km/h (3 Bft)
24.08.2024 21:43 23,4 °C 27,3 °C 60 % 52 % 1006,3 hPa 0,0 l/m² 9,2 km/h (2 Bft) O-SO 115 ° 0 min 0 W/m² 16,6 °C 26,8 °C 12,9 km/h (3 Bft)
24.08.2024 21:45 23,4 °C 27,3 °C 60 % 52 % 1006,3 hPa 0,0 l/m² 9,9 km/h (2 Bft) O-SO 109 ° 0 min 0 W/m² 16,6 °C 26,7 °C 16,1 km/h (3 Bft)
24.08.2024 21:46 23,4 °C 27,3 °C 61 % 52 % 1006,4 hPa 0,0 l/m² 8,5 km/h (2 Bft) O-SO 107 ° 0 min 0 W/m² 16,6 °C 26,9 °C 12,9 km/h (3 Bft)
24.08.2024 21:48 23,4 °C 27,4 °C 60 % 52 % 1006,3 hPa 0,0 l/m² 8,9 km/h (2 Bft) SO 140 ° 0 min 0 W/m² 16,7 °C 27,0 °C 12,9 km/h (3 Bft)
24.08.2024 21:50 23,4 °C 27,4 °C 60 % 51 % 1006,3 hPa 0,0 l/m² 6,8 km/h (2 Bft) O-SO 123 ° 0 min 0 W/m² 16,3 °C 27,3 °C 12,9 km/h (3 Bft)
24.08.2024 21:52 23,4 °C 27,5 °C 61 % 51 % 1006,3 hPa 0,0 l/m² 9,0 km/h (2 Bft) SO 132 ° 0 min 0 W/m² 16,4 °C 27,1 °C 12,9 km/h (3 Bft)
24.08.2024 21:53 23,4 °C 27,6 °C 61 % 51 % 1006,3 hPa 0,0 l/m² 12,9 km/h (3 Bft) O-SO 121 ° 0 min 0 W/m² 16,5 °C 26,7 °C 19,3 km/h (3 Bft)
24.08.2024 21:54 23,4 °C 27,6 °C 60 % 51 % 1006,2 hPa 0,0 l/m² 11,7 km/h (2 Bft) SO 129 ° 0 min 0 W/m² 16,5 °C 26,8 °C 14,5 km/h (3 Bft)
24.08.2024 21:56 23,4 °C 27,7 °C 61 % 51 % 1006,2 hPa 0,0 l/m² 10,3 km/h (2 Bft) SO 131 ° 0 min 0 W/m² 16,6 °C 27,1 °C 16,1 km/h (3 Bft)
24.08.2024 21:58 23,4 °C 27,8 °C 60 % 51 % 1006,2 hPa 0,0 l/m² 10,2 km/h (2 Bft) SO 130 ° 0 min 0 W/m² 16,7 °C 27,2 °C 16,1 km/h (3 Bft)
24.08.2024 22:00 23,4 °C 27,8 °C 61 % 51 % 1006,2 hPa 0,0 l/m² 8,6 km/h (2 Bft) O-SO 120 ° 0 min 0 W/m² 16,7 °C 27,5 °C 12,9 km/h (3 Bft)
24.08.2024 22:02 23,4 °C 27,8 °C 61 % 51 % 1006,2 hPa 0,0 l/m² 8,7 km/h (2 Bft) O-SO 120 ° 0 min 0 W/m² 16,7 °C 27,4 °C 12,9 km/h (3 Bft)
24.08.2024 22:03 23,4 °C 27,7 °C 61 % 51 % 1006,2 hPa 0,0 l/m² 7,5 km/h (2 Bft) SO 132 ° 0 min 0 W/m² 16,6 °C 27,5 °C 11,3 km/h (2 Bft)
24.08.2024 22:04 23,4 °C 27,7 °C 61 % 51 % 1006,2 hPa 0,0 l/m² 8,0 km/h (2 Bft) O-SO 115 ° 0 min 0 W/m² 16,6 °C 27,4 °C 12,9 km/h (3 Bft)
24.08.2024 22:06 23,4 °C 27,6 °C 60 % 51 % 1006,2 hPa 0,0 l/m² 8,1 km/h (2 Bft) O-SO 117 ° 0 min 0 W/m² 16,5 °C 27,3 °C 14,5 km/h (3 Bft)
24.08.2024 22:08 23,4 °C 27,6 °C 61 % 51 % 1006,2 hPa 0,0 l/m² 9,5 km/h (2 Bft) O-SO 115 ° 0 min 0 W/m² 16,5 °C 27,1 °C 14,5 km/h (3 Bft)
24.08.2024 22:10 23,4 °C 27,6 °C 60 % 51 % 1006,2 hPa 0,0 l/m² 10,1 km/h (2 Bft) SO 138 ° 0 min 0 W/m² 16,5 °C 27,0 °C 16,1 km/h (3 Bft)
24.08.2024 22:12 23,4 °C 27,6 °C 61 % 51 % 1006,1 hPa 0,0 l/m² 7,5 km/h (2 Bft) SO 128 ° 0 min 0 W/m² 16,5 °C 27,4 °C 14,5 km/h (3 Bft)
24.08.2024 22:13 23,4 °C 27,6 °C 61 % 51 % 1006,1 hPa 0,0 l/m² 9,7 km/h (2 Bft) O-SO 114 ° 0 min 0 W/m² 16,5 °C 27,1 °C 12,9 km/h (3 Bft)
24.08.2024 22:14 23,4 °C 27,5 °C 61 % 51 % 1006,2 hPa 0,0 l/m² 7,8 km/h (2 Bft) O-SO 119 ° 0 min 0 W/m² 16,4 °C 27,3 °C 11,3 km/h (2 Bft)
24.08.2024 22:16 23,4 °C 27,4 °C 61 % 52 % 1006,2 hPa 0,0 l/m² 7,8 km/h (2 Bft) SO 131 ° 0 min 0 W/m² 16,7 °C 27,2 °C 12,9 km/h (3 Bft)
24.08.2024 22:18 23,4 °C 27,4 °C 60 % 52 % 1006,2 hPa 0,0 l/m² 8,9 km/h (2 Bft) O-SO 109 ° 0 min 0 W/m² 16,7 °C 27,0 °C 14,5 km/h (3 Bft)
24.08.2024 22:20 23,4 °C 27,2 °C 61 % 52 % 1006,1 hPa 0,0 l/m² 7,6 km/h (2 Bft) O-SO 120 ° 0 min 0 W/m² 16,5 °C 27,0 °C 11,3 km/h (2 Bft)
24.08.2024 22:22 23,4 °C 27,1 °C 61 % 53 % 1006,1 hPa 0,0 l/m² 6,4 km/h (2 Bft) SO 132 ° 0 min 0 W/m² 16,7 °C 27,1 °C 11,3 km/h (2 Bft)
24.08.2024 22:23 23,4 °C 27,1 °C 61 % 53 % 1006,1 hPa 0,0 l/m² 8,0 km/h (2 Bft) O-SO 119 ° 0 min 0 W/m² 16,7 °C 26,8 °C 11,3 km/h (2 Bft)
24.08.2024 22:24 23,4 °C 27,1 °C 61 % 53 % 1006,2 hPa 0,0 l/m² 9,2 km/h (2 Bft) O-SO 115 ° 0 min 0 W/m² 16,7 °C 26,6 °C 11,3 km/h (2 Bft)
24.08.2024 22:26 23,4 °C 26,9 °C 61 % 53 % 1006,3 hPa 0,0 l/m² 9,2 km/h (2 Bft) SO 128 ° 0 min 0 W/m² 16,5 °C 26,4 °C 16,1 km/h (3 Bft)
24.08.2024 22:28 23,4 °C 26,9 °C 61 % 53 % 1006,2 hPa 0,0 l/m² 9,3 km/h (2 Bft) SO 128 ° 0 min 0 W/m² 16,5 °C 26,4 °C 16,1 km/h (3 Bft)
24.08.2024 22:30 23,4 °C 26,9 °C 61 % 53 % 1006,2 hPa 0,0 l/m² 7,4 km/h (2 Bft) O-SO 119 ° 0 min 0 W/m² 16,5 °C 26,7 °C 12,9 km/h (3 Bft)
24.08.2024 22:32 23,4 °C 26,9 °C 61 % 53 % 1006,2 hPa 0,0 l/m² 10,0 km/h (2 Bft) S-SO 147 ° 0 min 0 W/m² 16,5 °C 26,3 °C 17,7 km/h (3 Bft)
24.08.2024 22:33 23,4 °C 26,9 °C 61 % 53 % 1006,2 hPa 0,0 l/m² 11,6 km/h (2 Bft) SO 139 ° 0 min 0 W/m² 16,5 °C 26,0 °C 14,5 km/h (3 Bft)
24.08.2024 22:34 23,4 °C 26,9 °C 61 % 53 % 1006,2 hPa 0,0 l/m² 9,1 km/h (2 Bft) O-SO 119 ° 0 min 0 W/m² 16,5 °C 26,4 °C 11,3 km/h (2 Bft)
24.08.2024 22:36 23,4 °C 26,9 °C 61 % 53 % 1006,2 hPa 0,0 l/m² 9,9 km/h (2 Bft) SO 124 ° 0 min 0 W/m² 16,5 °C 26,3 °C 16,1 km/h (3 Bft)
24.08.2024 22:38 23,4 °C 27,0 °C 61 % 52 % 1006,2 hPa 0,0 l/m² 11,9 km/h (2 Bft) S-SO 152 ° 0 min 0 W/m² 16,3 °C 26,1 °C 17,7 km/h (3 Bft)
24.08.2024 22:40 23,4 °C 27,1 °C 61 % 52 % 1006,1 hPa 0,0 l/m² 11,1 km/h (2 Bft) SO 124 ° 0 min 0 W/m² 16,4 °C 26,3 °C 16,1 km/h (3 Bft)
24.08.2024 22:42 23,4 °C 27,2 °C 61 % 52 % 1006,1 hPa 0,0 l/m² 11,3 km/h (2 Bft) S-SO 152 ° 0 min 0 W/m² 16,5 °C 26,4 °C 19,3 km/h (3 Bft)
24.08.2024 22:43 23,4 °C 27,3 °C 61 % 51 % 1006,1 hPa 0,0 l/m² 16,0 km/h (3 Bft) S-SO 147 ° 0 min 0 W/m² 16,3 °C 26,0 °C 20,9 km/h (4 Bft)
24.08.2024 22:44 23,4 °C 27,3 °C 61 % 51 % 1006,2 hPa 0,0 l/m² 13,3 km/h (3 Bft) S-SO 164 ° 0 min 0 W/m² 16,3 °C 26,3 °C 19,3 km/h (3 Bft)
24.08.2024 22:46 23,4 °C 27,4 °C 61 % 51 % 1006,2 hPa 0,0 l/m² 12,2 km/h (2 Bft) S-SO 156 ° 0 min 0 W/m² 16,3 °C 26,5 °C 20,9 km/h (4 Bft)
24.08.2024 22:48 23,4 °C 27,6 °C 61 % 50 % 1006,2 hPa 0,0 l/m² 16,1 km/h (3 Bft) SO 135 ° 0 min 0 W/m² 16,2 °C 26,4 °C 20,9 km/h (4 Bft)
24.08.2024 22:50 23,4 °C 27,7 °C 61 % 50 % 1006,2 hPa 0,0 l/m² 14,9 km/h (3 Bft) SO 144 ° 0 min 0 W/m² 16,3 °C 26,6 °C 20,9 km/h (4 Bft)
24.08.2024 22:52 23,4 °C 27,8 °C 61 % 50 % 1006,2 hPa 0,0 l/m² 11,2 km/h (2 Bft) SO 139 ° 0 min 0 W/m² 16,4 °C 27,1 °C 16,1 km/h (3 Bft)
24.08.2024 22:53 23,4 °C 27,8 °C 61 % 50 % 1006,2 hPa 0,0 l/m² 12,2 km/h (2 Bft) S-SO 163 ° 0 min 0 W/m² 16,4 °C 27,0 °C 17,7 km/h (3 Bft)
24.08.2024 22:54 23,4 °C 27,8 °C 61 % 50 % 1006,2 hPa 0,0 l/m² 13,2 km/h (3 Bft) SO 144 ° 0 min 0 W/m² 16,4 °C 26,9 °C 16,1 km/h (3 Bft)
24.08.2024 22:56 23,5 °C 27,8 °C 61 % 50 % 1006,2 hPa 0,0 l/m² 12,1 km/h (2 Bft) SO 133 ° 0 min 0 W/m² 16,4 °C 27,0 °C 17,7 km/h (3 Bft)
24.08.2024 22:58 23,5 °C 27,9 °C 61 % 50 % 1006,2 hPa 0,0 l/m² 12,6 km/h (3 Bft) SO 146 ° 0 min 0 W/m² 16,5 °C 27,1 °C 19,3 km/h (3 Bft)
24.08.2024 23:00 23,5 °C 27,9 °C 61 % 49 % 1006,2 hPa 0,0 l/m² 13,4 km/h (3 Bft) SO 144 ° 0 min 0 W/m² 16,2 °C 27,0 °C 19,3 km/h (3 Bft)
24.08.2024 23:02 23,6 °C 27,8 °C 61 % 50 % 1006,2 hPa 0,0 l/m² 10,8 km/h (2 Bft) SO 144 ° 0 min 0 W/m² 16,4 °C 27,2 °C 14,5 km/h (3 Bft)
24.08.2024 23:03 23,6 °C 27,8 °C 61 % 49 % 1006,2 hPa 0,0 l/m² 12,8 km/h (3 Bft) S-SO 150 ° 0 min 0 W/m² 16,1 °C 26,9 °C 17,7 km/h (3 Bft)
24.08.2024 23:04 23,5 °C 27,8 °C 61 % 50 % 1006,2 hPa 0,0 l/m² 12,1 km/h (2 Bft) SO 138 ° 0 min 0 W/m² 16,4 °C 27,0 °C 19,3 km/h (3 Bft)
24.08.2024 23:06 23,5 °C 27,8 °C 61 % 49 % 1006,3 hPa 0,0 l/m² 12,7 km/h (3 Bft) S-SO 154 ° 0 min 0 W/m² 16,1 °C 26,9 °C 17,7 km/h (3 Bft)
24.08.2024 23:08 23,5 °C 27,8 °C 61 % 50 % 1006,3 hPa 0,0 l/m² 12,1 km/h (2 Bft) S-SO 160 ° 0 min 0 W/m² 16,4 °C 27,0 °C 19,3 km/h (3 Bft)
24.08.2024 23:10 23,6 °C 27,8 °C 61 % 50 % 1006,2 hPa 0,0 l/m² 11,4 km/h (2 Bft) SO 146 ° 0 min 0 W/m² 16,4 °C 27,1 °C 17,7 km/h (3 Bft)
24.08.2024 23:12 23,6 °C 27,7 °C 61 % 50 % 1006,3 hPa 0,0 l/m² 10,2 km/h (2 Bft) SO 133 ° 0 min 0 W/m² 16,3 °C 27,1 °C 14,5 km/h (3 Bft)
24.08.2024 23:13 23,6 °C 27,7 °C 61 % 50 % 1006,3 hPa 0,0 l/m² 10,5 km/h (2 Bft) S-SO 148 ° 0 min 0 W/m² 16,3 °C 27,1 °C 14,5 km/h (3 Bft)
24.08.2024 23:14 23,6 °C 27,7 °C 61 % 50 % 1006,2 hPa 0,0 l/m² 11,8 km/h (2 Bft) SO 146 ° 0 min 0 W/m² 16,3 °C 26,9 °C 14,5 km/h (3 Bft)
24.08.2024 23:15 23,6 °C 27,7 °C 61 % 50 % 1006,3 hPa 0,0 l/m² 9,7 km/h (2 Bft) S-SO 157 ° 0 min 0 W/m² 16,3 °C 27,2 °C 12,9 km/h (3 Bft)
24.08.2024 23:16 23,6 °C 27,7 °C 61 % 50 % 1006,2 hPa 0,0 l/m² 9,7 km/h (2 Bft) S-SO 157 ° 0 min 0 W/m² 16,3 °C 27,2 °C 12,9 km/h (3 Bft)
24.08.2024 23:17 23,6 °C 27,7 °C 61 % 50 % 1006,2 hPa 0,0 l/m² 12,9 km/h (3 Bft) S-SO 157 ° 0 min 0 W/m² 16,3 °C 26,8 °C 16,1 km/h (3 Bft)
24.08.2024 23:22 23,6 °C 27,6 °C 61 % 50 % 1006,3 hPa 0,0 l/m² 9,1 km/h (2 Bft) S-SO 150 ° 0 min 0 W/m² 16,2 °C 27,2 °C 11,3 km/h (2 Bft)
24.08.2024 23:24 23,6 °C 27,7 °C 59 % 50 % 1006,3 hPa 0,0 l/m² 10,1 km/h (2 Bft) SO 130 ° 0 min 0 W/m² 16,3 °C 27,1 °C 14,5 km/h (3 Bft)
24.08.2024 23:25 23,6 °C 27,6 °C 59 % 50 % 1006,3 hPa 0,0 l/m² 10,3 km/h (2 Bft) O-SO 122 ° 0 min 0 W/m² 16,2 °C 27,0 °C 12,9 km/h (3 Bft)
24.08.2024 23:27 23,6 °C 27,6 °C 59 % 50 % 1006,2 hPa 0,0 l/m² 10,0 km/h (2 Bft) SO 142 ° 0 min 0 W/m² 16,2 °C 27,0 °C 14,5 km/h (3 Bft)
24.08.2024 23:29 23,6 °C 27,6 °C 58 % 50 % 1006,3 hPa 0,0 l/m² 8,9 km/h (2 Bft) S-SO 157 ° 0 min 0 W/m² 16,2 °C 27,2 °C 17,7 km/h (3 Bft)
24.08.2024 23:30 23,6 °C 27,6 °C 58 % 50 % 1006,2 hPa 0,0 l/m² 10,3 km/h (2 Bft) SO 141 ° 0 min 0 W/m² 16,2 °C 27,0 °C 17,7 km/h (3 Bft)
24.08.2024 23:31 23,6 °C 27,5 °C 58 % 50 % 1006,2 hPa 0,0 l/m² 10,0 km/h (2 Bft) SO 127 ° 0 min 0 W/m² 16,1 °C 26,9 °C 14,5 km/h (3 Bft)
24.08.2024 23:32 23,6 °C 27,5 °C 58 % 50 % 1006,2 hPa 0,0 l/m² 9,8 km/h (2 Bft) S-SO 149 ° 0 min 0 W/m² 16,1 °C 27,0 °C 14,5 km/h (3 Bft)
24.08.2024 23:35 23,7 °C 27,4 °C 58 % 50 % 1006,2 hPa 0,0 l/m² 8,9 km/h (2 Bft) S-SO 154 ° 0 min 0 W/m² 16,0 °C 27,0 °C 16,1 km/h (3 Bft)
24.08.2024 23:37 23,7 °C 27,3 °C 58 % 50 % 1006,3 hPa 0,0 l/m² 7,0 km/h (2 Bft) SO 144 ° 0 min 0 W/m² 15,9 °C 27,2 °C 12,9 km/h (3 Bft)
24.08.2024 23:39 23,7 °C 27,3 °C 57 % 50 % 1006,2 hPa 0,0 l/m² 13,5 km/h (3 Bft) S-SO 159 ° 0 min 0 W/m² 15,9 °C 26,3 °C 17,7 km/h (3 Bft)
24.08.2024 23:40 23,7 °C 27,3 °C 57 % 50 % 1006,3 hPa 0,0 l/m² 8,2 km/h (2 Bft) SO 145 ° 0 min 0 W/m² 15,9 °C 27,0 °C 12,9 km/h (3 Bft)
24.08.2024 23:41 23,7 °C 27,3 °C 57 % 50 % 1006,2 hPa 0,0 l/m² 9,9 km/h (2 Bft) SO 134 ° 0 min 0 W/m² 15,9 °C 26,7 °C 14,5 km/h (3 Bft)
24.08.2024 23:42 23,7 °C 27,3 °C 57 % 50 % 1006,2 hPa 0,0 l/m² 12,0 km/h (2 Bft) S-SO 161 ° 0 min 0 W/m² 15,9 °C 26,4 °C 16,1 km/h (3 Bft)
24.08.2024 23:45 23,7 °C 27,2 °C 57 % 50 % 1006,3 hPa 0,0 l/m² 10,1 km/h (2 Bft) S-SO 150 ° 0 min 0 W/m² 15,9 °C 26,6 °C 14,5 km/h (3 Bft)
24.08.2024 23:47 23,7 °C 27,2 °C 57 % 50 % 1006,3 hPa 0,0 l/m² 11,8 km/h (2 Bft) S-SO 150 ° 0 min 0 W/m² 15,9 °C 26,3 °C 16,1 km/h (3 Bft)
24.08.2024 23:49 23,7 °C 27,2 °C 57 % 50 % 1006,2 hPa 0,0 l/m² 11,9 km/h (2 Bft) S-SO 153 ° 0 min 0 W/m² 15,9 °C 26,3 °C 16,1 km/h (3 Bft)
24.08.2024 23:50 23,7 °C 27,2 °C 57 % 50 % 1006,2 hPa 0,0 l/m² 12,9 km/h (3 Bft) S-SO 156 ° 0 min 0 W/m² 15,9 °C 26,2 °C 19,3 km/h (3 Bft)
24.08.2024 23:51 23,7 °C 27,3 °C 57 % 50 % 1006,1 hPa 0,0 l/m² 11,6 km/h (2 Bft) SO 134 ° 0 min 0 W/m² 15,9 °C 26,5 °C 14,5 km/h (3 Bft)
24.08.2024 23:52 23,7 °C 27,2 °C 57 % 50 % 1006,1 hPa 0,0 l/m² 10,8 km/h (2 Bft) SO 140 ° 0 min 0 W/m² 15,9 °C 26,5 °C 16,1 km/h (3 Bft)
24.08.2024 23:55 23,7 °C 27,2 °C 56 % 50 % 1006,1 hPa 0,0 l/m² 9,2 km/h (2 Bft) S-SO 157 ° 0 min 0 W/m² 15,9 °C 26,7 °C 14,5 km/h (3 Bft)
24.08.2024 23:57 23,7 °C 27,2 °C 56 % 50 % 1006,2 hPa 0,0 l/m² 11,2 km/h (2 Bft) SO 142 ° 0 min 0 W/m² 15,9 °C 26,4 °C 20,9 km/h (4 Bft)
24.08.2024 23:59 23,8 °C 27,1 °C 56 % 50 % 1006,2 hPa 0,0 l/m² 10,9 km/h (2 Bft) S-SO 161 ° 0 min 0 W/m² 15,8 °C 26,4 °C 16,1 km/h (3 Bft)
_ Min-Zeit 06:25 06:41 02:27 16:28 23:55 - 09:03 - - - - 06:27 06:41 07:01
Minimum _ 22,5 °C 14,9 °C 55 % 34 % 1006,1 hPa - 0,0 km/h (0 Bft) - - - - 12,9 °C 14,9 °C 0,0 km/h (0 Bft)
_ Max-Zeit 23:59 17:06 12:56 06:45 08:23 23:59 15:46 - - 11:18 13:33 12:01 17:06 18:28
Maximum _ 23,8 °C 34,3 °C 63 % 90 % 1013,5 hPa 0,0 l/m² 26,8 km/h
S (4 Bft)
- - 6 min 789 W/m² 18,5 °C 34,3 °C 35,4 km/h
S (5 Bft)
Durchschnitt _ 23,1 °C 25,4 °C 59 % 59 % 1010,7 hPa #0,0 l/m² 9,5 km/h (2 Bft) S - #11:06 h 252 W/m² 15,8 °C 25,1 °C 13,9 km/h (3 Bft)
© 2009 Mathias Hoßbach